Missouri River (Missouri), Boonville (06909000)

StateMissouriLatestUnknown (47600 cfs)
RiverMissouri RiverRatingObservedEstimated
Updated2026-05-10 9:00 (35 minutes ago)Flood - The river is flooding. Obstacles can be treacherous or deadly. The river should be avoided at this stage for casual trips and definitely for the inexperienced. Trips should be attempted only with protective gear and equipment.Flood(none)(none)
Discharge47600 cfs (median: 87500 cfs)High - The river is high and potentially dangerous, especially for the young and / or inexperienced. Normal stream obstacles are sometimes difficult to navigate. Extended distances can be attempted, but canoe travel may not be advisable.High(none)(none)
Height8.9 feetGood - Conditions are ideal for a canoe or kayak. Boats typically will drag on fewer than one-quarter of riffles, if at all, and portages are unnecessary or rare. Normal float lengths can be attempted without a problem.Good(none)(none)
TrendRising (falling over 24 hours)Low - River is low but can still be floated. Some riffles are okay but most come with significant dragging and might need a portage. Float lengths should be reduced to accommodate low flow, dragging, and portages.Low(none)(none)
USGSExternal icon USGS Site (External icon Duck Duck Go Maps)Poor - River is too low to float comfortably. Most or all riffles will drag or must be portaged and some obstacles (such as slick shelf rock) cause undue problems. Avoid the river at this stage for casual paddling trips.Poor(none)(none)

Trending Data

Plot Image

Trips for Missouri River (Missouri), Boonville (06909000)

DateStartEndDistanceConditionDischargeHeightFishingDetails

A total of 0 rows are displayed.

Condition Descriptions

Fishing Conditions

Fish Species

Notes

Classic Trip List

The classic River Trips application is still available for use. It is updated with the new system using a data retrofit. It is no longer maintained. The original River Trips application is no longer updated (as of 1 Dec 2016) but can be checked for errors or for the condition of the data before it was converted to the new system.

Gauge Data Table

ObservationHeightDischargeMaximum
Discharge
Minimum
Discharge
Mean
Discharge
P05P10P20P25P50
(Median)
P75P80P90P95
2026-05-10 09:00 8.90 47600 330000 (2007) 37400 (1989) 101000 40100 43600 50500 53400 87500 132000 150000 187000 228000
2026-05-10 08:00 8.89 47500 330000 (2007) 37400 (1989) 101000 40100 43600 50500 53400 87500 132000 150000 187000 228000
2026-05-10 07:00 8.89 47500 330000 (2007) 37400 (1989) 101000 40100 43600 50500 53400 87500 132000 150000 187000 228000
2026-05-10 06:00 8.96 47900 330000 (2007) 37400 (1989) 101000 40100 43600 50500 53400 87500 132000 150000 187000 228000
2026-05-10 05:00 8.98 48000 330000 (2007) 37400 (1989) 101000 40100 43600 50500 53400 87500 132000 150000 187000 228000
2026-05-10 04:00 9.01 48200 330000 (2007) 37400 (1989) 101000 40100 43600 50500 53400 87500 132000 150000 187000 228000
2026-05-10 03:00 8.96 47900 330000 (2007) 37400 (1989) 101000 40100 43600 50500 53400 87500 132000 150000 187000 228000
2026-05-10 02:00 9.03 48300 330000 (2007) 37400 (1989) 101000 40100 43600 50500 53400 87500 132000 150000 187000 228000
2026-05-10 01:00 9.05 48400 330000 (2007) 37400 (1989) 101000 40100 43600 50500 53400 87500 132000 150000 187000 228000
2026-05-10 00:00 9.06 48500 330000 (2007) 37400 (1989) 101000 40100 43600 50500 53400 87500 132000 150000 187000 228000
2026-05-09 23:00 9.07 48500 330000 (2007) 37400 (1989) 101000 40100 43600 50500 53400 87500 132000 150000 187000 228000
2026-05-09 22:00 9.08 48600 303000 (2007) 37800 (1989) 100000 40200 42800 47800 50900 88400 138000 145000 188000 204000
2026-05-09 21:00 9.07 48500 303000 (2007) 37800 (1989) 100000 40200 42800 47800 50900 88400 138000 145000 188000 204000
2026-05-09 20:00 9.08 48600 303000 (2007) 37800 (1989) 100000 40200 42800 47800 50900 88400 138000 145000 188000 204000
2026-05-09 19:00 9.10 48700 303000 (2007) 37800 (1989) 100000 40200 42800 47800 50900 88400 138000 145000 188000 204000
2026-05-09 18:00 9.09 48700 303000 (2007) 37800 (1989) 100000 40200 42800 47800 50900 88400 138000 145000 188000 204000
2026-05-09 17:00 9.16 49000 303000 (2007) 37800 (1989) 100000 40200 42800 47800 50900 88400 138000 145000 188000 204000
2026-05-09 16:00 9.15 49000 303000 (2007) 37800 (1989) 100000 40200 42800 47800 50900 88400 138000 145000 188000 204000
2026-05-09 15:00 9.17 49100 303000 (2007) 37800 (1989) 100000 40200 42800 47800 50900 88400 138000 145000 188000 204000
2026-05-09 14:00 9.19 49200 303000 (2007) 37800 (1989) 100000 40200 42800 47800 50900 88400 138000 145000 188000 204000
2026-05-09 13:00 9.19 49200 303000 (2007) 37800 (1989) 100000 40200 42800 47800 50900 88400 138000 145000 188000 204000
2026-05-09 12:00 9.19 49200 303000 (2007) 37800 (1989) 100000 40200 42800 47800 50900 88400 138000 145000 188000 204000
2026-05-09 11:00 9.20 49300 303000 (2007) 37800 (1989) 100000 40200 42800 47800 50900 88400 138000 145000 188000 204000
2026-05-09 10:00 9.22 49400 303000 (2007) 37800 (1989) 100000 40200 42800 47800 50900 88400 138000 145000 188000 204000
2026-05-09 09:00 9.23 49400 303000 (2007) 37800 (1989) 100000 40200 42800 47800 50900 88400 138000 145000 188000 204000
2026-05-09 08:00 9.24 49500 303000 (2007) 37800 (1989) 100000 40200 42800 47800 50900 88400 138000 145000 188000 204000
2026-05-09 07:00 9.26 49600 303000 (2007) 37800 (1989) 100000 40200 42800 47800 50900 88400 138000 145000 188000 204000
2026-05-09 06:00 9.27 49700 303000 (2007) 37800 (1989) 100000 40200 42800 47800 50900 88400 138000 145000 188000 204000
2026-05-09 05:00 9.28 49700 303000 (2007) 37800 (1989) 100000 40200 42800 47800 50900 88400 138000 145000 188000 204000
2026-05-09 04:00 9.30 49800 303000 (2007) 37800 (1989) 100000 40200 42800 47800 50900 88400 138000 145000 188000 204000
2026-05-09 03:00 9.32 50000 303000 (2007) 37800 (1989) 100000 40200 42800 47800 50900 88400 138000 145000 188000 204000
2026-05-09 02:00 9.34 50100 303000 (2007) 37800 (1989) 100000 40200 42800 47800 50900 88400 138000 145000 188000 204000
2026-05-09 01:00 9.36 50200 303000 (2007) 37800 (1989) 100000 40200 42800 47800 50900 88400 138000 145000 188000 204000
2026-05-09 00:00 9.38 50300 303000 (2007) 37800 (1989) 100000 40200 42800 47800 50900 88400 138000 145000 188000 204000
2026-05-08 23:00 9.40 50400 303000 (2007) 37800 (1989) 100000 40200 42800 47800 50900 88400 138000 145000 188000 204000
2026-05-08 22:00 9.43 50600 245000 (2007) 38200 (1989) 96600 39600 42500 49300 54500 92200 130000 141000 166000 181000
2026-05-08 21:00 9.46 50800 245000 (2007) 38200 (1989) 96600 39600 42500 49300 54500 92200 130000 141000 166000 181000
2026-05-08 20:00 9.48 50900 245000 (2007) 38200 (1989) 96600 39600 42500 49300 54500 92200 130000 141000 166000 181000
2026-05-08 19:00 9.51 51100 245000 (2007) 38200 (1989) 96600 39600 42500 49300 54500 92200 130000 141000 166000 181000
2026-05-08 18:00 9.54 51200 245000 (2007) 38200 (1989) 96600 39600 42500 49300 54500 92200 130000 141000 166000 181000
2026-05-08 17:00 9.56 51400 245000 (2007) 38200 (1989) 96600 39600 42500 49300 54500 92200 130000 141000 166000 181000
2026-05-08 16:00 9.58 51500 245000 (2007) 38200 (1989) 96600 39600 42500 49300 54500 92200 130000 141000 166000 181000
2026-05-08 15:00 9.60 51600 245000 (2007) 38200 (1989) 96600 39600 42500 49300 54500 92200 130000 141000 166000 181000
2026-05-08 14:00 9.62 51700 245000 (2007) 38200 (1989) 96600 39600 42500 49300 54500 92200 130000 141000 166000 181000
2026-05-08 13:00 9.65 51900 245000 (2007) 38200 (1989) 96600 39600 42500 49300 54500 92200 130000 141000 166000 181000
2026-05-08 12:00 9.68 52100 245000 (2007) 38200 (1989) 96600 39600 42500 49300 54500 92200 130000 141000 166000 181000
2026-05-08 11:00 9.72 52300 245000 (2007) 38200 (1989) 96600 39600 42500 49300 54500 92200 130000 141000 166000 181000
2026-05-08 10:00 9.75 52500 245000 (2007) 38200 (1989) 96600 39600 42500 49300 54500 92200 130000 141000 166000 181000
2026-05-08 09:00 9.77 52600 245000 (2007) 38200 (1989) 96600 39600 42500 49300 54500 92200 130000 141000 166000 181000
2026-05-08 08:00 9.82 52900 245000 (2007) 38200 (1989) 96600 39600 42500 49300 54500 92200 130000 141000 166000 181000
2026-05-08 07:00 9.84 53000 245000 (2007) 38200 (1989) 96600 39600 42500 49300 54500 92200 130000 141000 166000 181000
2026-05-08 06:00 9.87 53200 245000 (2007) 38200 (1989) 96600 39600 42500 49300 54500 92200 130000 141000 166000 181000
2026-05-08 05:00 9.89 53300 245000 (2007) 38200 (1989) 96600 39600 42500 49300 54500 92200 130000 141000 166000 181000
2026-05-08 04:00 9.93 53600 245000 (2007) 38200 (1989) 96600 39600 42500 49300 54500 92200 130000 141000 166000 181000
2026-05-08 03:00 9.97 53800 245000 (2007) 38200 (1989) 96600 39600 42500 49300 54500 92200 130000 141000 166000 181000
2026-05-08 02:00 10.02 54100 245000 (2007) 38200 (1989) 96600 39600 42500 49300 54500 92200 130000 141000 166000 181000
2026-05-08 01:00 10.04 54200 245000 (2007) 38200 (1989) 96600 39600 42500 49300 54500 92200 130000 141000 166000 181000
2026-05-08 00:00 10.07 54400 245000 (2007) 38200 (1989) 96600 39600 42500 49300 54500 92200 130000 141000 166000 181000
2026-05-07 23:00 10.10 54600 245000 (2007) 38200 (1989) 96600 39600 42500 49300 54500 92200 130000 141000 166000 181000
2026-05-07 22:00 10.13 54800 230000 (1999) 38400 (1989) 90100 39900 43400 49500 54200 84700 116000 131000 146000 164000
2026-05-07 21:00 10.15 54900 230000 (1999) 38400 (1989) 90100 39900 43400 49500 54200 84700 116000 131000 146000 164000
2026-05-07 20:00 10.16 55000 230000 (1999) 38400 (1989) 90100 39900 43400 49500 54200 84700 116000 131000 146000 164000
2026-05-07 19:00 10.19 55200 230000 (1999) 38400 (1989) 90100 39900 43400 49500 54200 84700 116000 131000 146000 164000
2026-05-07 18:00 10.15 54900 230000 (1999) 38400 (1989) 90100 39900 43400 49500 54200 84700 116000 131000 146000 164000
2026-05-07 17:00 10.15 54900 230000 (1999) 38400 (1989) 90100 39900 43400 49500 54200 84700 116000 131000 146000 164000
2026-05-07 16:00 10.19 55200 230000 (1999) 38400 (1989) 90100 39900 43400 49500 54200 84700 116000 131000 146000 164000
2026-05-07 15:00 10.20 55200 230000 (1999) 38400 (1989) 90100 39900 43400 49500 54200 84700 116000 131000 146000 164000
2026-05-07 14:00 10.22 55400 230000 (1999) 38400 (1989) 90100 39900 43400 49500 54200 84700 116000 131000 146000 164000
2026-05-07 13:00 10.22 55400 230000 (1999) 38400 (1989) 90100 39900 43400 49500 54200 84700 116000 131000 146000 164000
2026-05-07 12:00 10.22 55400 230000 (1999) 38400 (1989) 90100 39900 43400 49500 54200 84700 116000 131000 146000 164000
2026-05-07 11:00 10.28 55700 230000 (1999) 38400 (1989) 90100 39900 43400 49500 54200 84700 116000 131000 146000 164000
2026-05-07 10:00 10.32 56000 230000 (1999) 38400 (1989) 90100 39900 43400 49500 54200 84700 116000 131000 146000 164000
2026-05-07 09:00 10.35 56200 230000 (1999) 38400 (1989) 90100 39900 43400 49500 54200 84700 116000 131000 146000 164000
2026-05-07 08:00 10.36 56300 230000 (1999) 38400 (1989) 90100 39900 43400 49500 54200 84700 116000 131000 146000 164000
2026-05-07 07:00 10.36 56300 230000 (1999) 38400 (1989) 90100 39900 43400 49500 54200 84700 116000 131000 146000 164000
2026-05-07 06:00 10.38 56400 230000 (1999) 38400 (1989) 90100 39900 43400 49500 54200 84700 116000 131000 146000 164000
2026-05-07 05:00 10.37 56300 230000 (1999) 38400 (1989) 90100 39900 43400 49500 54200 84700 116000 131000 146000 164000
2026-05-07 04:00 10.37 56300 230000 (1999) 38400 (1989) 90100 39900 43400 49500 54200 84700 116000 131000 146000 164000
2026-05-07 03:00 10.38 56400 230000 (1999) 38400 (1989) 90100 39900 43400 49500 54200 84700 116000 131000 146000 164000
2026-05-07 02:00 10.37 56300 230000 (1999) 38400 (1989) 90100 39900 43400 49500 54200 84700 116000 131000 146000 164000
2026-05-07 01:00 10.37 56300 230000 (1999) 38400 (1989) 90100 39900 43400 49500 54200 84700 116000 131000 146000 164000
2026-05-07 00:00 10.35 56200 230000 (1999) 38400 (1989) 90100 39900 43400 49500 54200 84700 116000 131000 146000 164000
2026-05-06 23:00 10.35 56200 230000 (1999) 38400 (1989) 90100 39900 43400 49500 54200 84700 116000 131000 146000 164000
2026-05-06 22:00 10.35 56200 242000 (1999) 38800 (1989) 88000 41300 43300 48300 50800 81500 110000 122000 156000 176000
2026-05-06 21:00 10.34 56100 242000 (1999) 38800 (1989) 88000 41300 43300 48300 50800 81500 110000 122000 156000 176000
2026-05-06 20:00 10.30 55900 242000 (1999) 38800 (1989) 88000 41300 43300 48300 50800 81500 110000 122000 156000 176000
2026-05-06 19:00 10.29 55800 242000 (1999) 38800 (1989) 88000 41300 43300 48300 50800 81500 110000 122000 156000 176000
2026-05-06 18:00 10.29 55800 242000 (1999) 38800 (1989) 88000 41300 43300 48300 50800 81500 110000 122000 156000 176000
2026-05-06 17:00 10.28 55700 242000 (1999) 38800 (1989) 88000 41300 43300 48300 50800 81500 110000 122000 156000 176000
2026-05-06 16:00 10.25 55600 242000 (1999) 38800 (1989) 88000 41300 43300 48300 50800 81500 110000 122000 156000 176000
2026-05-06 15:00 10.24 55500 242000 (1999) 38800 (1989) 88000 41300 43300 48300 50800 81500 110000 122000 156000 176000
2026-05-06 14:00 10.22 55400 242000 (1999) 38800 (1989) 88000 41300 43300 48300 50800 81500 110000 122000 156000 176000
2026-05-06 13:00 10.20 63000 242000 (1999) 38800 (1989) 88000 41300 43300 48300 50800 81500 110000 122000 156000 176000
2026-05-06 12:00 10.17 62800 242000 (1999) 38800 (1989) 88000 41300 43300 48300 50800 81500 110000 122000 156000 176000
2026-05-06 11:00 10.14 62600 242000 (1999) 38800 (1989) 88000 41300 43300 48300 50800 81500 110000 122000 156000 176000
2026-05-06 10:00 10.13 62500 242000 (1999) 38800 (1989) 88000 41300 43300 48300 50800 81500 110000 122000 156000 176000
2026-05-06 09:00 62400 242000 (1999) 38800 (1989) 88000 41300 43300 48300 50800 81500 110000 122000 156000 176000
2026-05-06 08:00 10.11 62300 242000 (1999) 38800 (1989) 88000 41300 43300 48300 50800 81500 110000 122000 156000 176000
2026-05-06 07:00 10.11 62300 242000 (1999) 38800 (1989) 88000 41300 43300 48300 50800 81500 110000 122000 156000 176000
2026-05-06 06:00 10.08 62100 242000 (1999) 38800 (1989) 88000 41300 43300 48300 50800 81500 110000 122000 156000 176000
2026-05-06 05:00 10.07 62100 242000 (1999) 38800 (1989) 88000 41300 43300 48300 50800 81500 110000 122000 156000 176000
2026-05-06 04:00 10.06 62000 242000 (1999) 38800 (1989) 88000 41300 43300 48300 50800 81500 110000 122000 156000 176000
2026-05-06 03:00 10.05 61900 242000 (1999) 38800 (1989) 88000 41300 43300 48300 50800 81500 110000 122000 156000 176000
2026-05-06 02:00 10.06 62000 242000 (1999) 38800 (1989) 88000 41300 43300 48300 50800 81500 110000 122000 156000 176000
2026-05-06 01:00 10.04 61900 242000 (1999) 38800 (1989) 88000 41300 43300 48300 50800 81500 110000 122000 156000 176000
2026-05-06 00:00 10.05 61900 242000 (1999) 38800 (1989) 88000 41300 43300 48300 50800 81500 110000 122000 156000 176000
2026-05-05 23:00 10.03 61800 242000 (1999) 38800 (1989) 88000 41300 43300 48300 50800 81500 110000 122000 156000 176000
2026-05-05 22:00 10.03 61800 220000 (2019) 39200 (1989) 88900 41400 43900 47700 49400 82800 102000 120000 167000 188000
2026-05-05 21:00 10.03 61800 220000 (2019) 39200 (1989) 88900 41400 43900 47700 49400 82800 102000 120000 167000 188000
2026-05-05 20:00 10.03 61800 220000 (2019) 39200 (1989) 88900 41400 43900 47700 49400 82800 102000 120000 167000 188000
2026-05-05 19:00 10.04 61900 220000 (2019) 39200 (1989) 88900 41400 43900 47700 49400 82800 102000 120000 167000 188000
2026-05-05 18:00 10.05 61900 220000 (2019) 39200 (1989) 88900 41400 43900 47700 49400 82800 102000 120000 167000 188000
2026-05-05 17:00 10.04 61900 220000 (2019) 39200 (1989) 88900 41400 43900 47700 49400 82800 102000 120000 167000 188000
2026-05-05 16:00 9.99 61500 220000 (2019) 39200 (1989) 88900 41400 43900 47700 49400 82800 102000 120000 167000 188000
2026-05-05 15:00 10.06 62000 220000 (2019) 39200 (1989) 88900 41400 43900 47700 49400 82800 102000 120000 167000 188000
2026-05-05 14:00 10.04 61900 220000 (2019) 39200 (1989) 88900 41400 43900 47700 49400 82800 102000 120000 167000 188000
2026-05-05 13:00 10.09 62200 220000 (2019) 39200 (1989) 88900 41400 43900 47700 49400 82800 102000 120000 167000 188000
2026-05-05 12:00 10.09 62200 220000 (2019) 39200 (1989) 88900 41400 43900 47700 49400 82800 102000 120000 167000 188000
2026-05-05 11:00 10.12 62400 220000 (2019) 39200 (1989) 88900 41400 43900 47700 49400 82800 102000 120000 167000 188000
2026-05-05 10:00 10.13 62500 220000 (2019) 39200 (1989) 88900 41400 43900 47700 49400 82800 102000 120000 167000 188000
2026-05-05 09:00 10.14 62600 220000 (2019) 39200 (1989) 88900 41400 43900 47700 49400 82800 102000 120000 167000 188000
2026-05-05 08:00 10.18 62800 220000 (2019) 39200 (1989) 88900 41400 43900 47700 49400 82800 102000 120000 167000 188000
2026-05-05 07:00 10.20 63000 220000 (2019) 39200 (1989) 88900 41400 43900 47700 49400 82800 102000 120000 167000 188000
2026-05-05 06:00 10.17 62800 220000 (2019) 39200 (1989) 88900 41400 43900 47700 49400 82800 102000 120000 167000 188000
2026-05-05 05:00 10.25 63300 220000 (2019) 39200 (1989) 88900 41400 43900 47700 49400 82800 102000 120000 167000 188000
2026-05-05 04:00 10.26 63400 220000 (2019) 39200 (1989) 88900 41400 43900 47700 49400 82800 102000 120000 167000 188000
2026-05-05 03:00 10.24 63300 220000 (2019) 39200 (1989) 88900 41400 43900 47700 49400 82800 102000 120000 167000 188000
2026-05-05 02:00 10.22 63100 220000 (2019) 39200 (1989) 88900 41400 43900 47700 49400 82800 102000 120000 167000 188000
2026-05-05 01:00 10.25 63300 220000 (2019) 39200 (1989) 88900 41400 43900 47700 49400 82800 102000 120000 167000 188000
2026-05-05 00:00 10.34 64000 220000 (2019) 39200 (1989) 88900 41400 43900 47700 49400 82800 102000 120000 167000 188000
2026-05-04 23:00 10.36 64100 220000 (2019) 39200 (1989) 88900 41400 43900 47700 49400 82800 102000 120000 167000 188000
2026-05-04 22:00 10.38 64200 262000 (2019) 39500 (1989) 89600 41200 44500 47000 49500 74800 109000 126000 172000 177000
2026-05-04 21:00 10.40 64400 262000 (2019) 39500 (1989) 89600 41200 44500 47000 49500 74800 109000 126000 172000 177000
2026-05-04 20:00 10.44 64700 262000 (2019) 39500 (1989) 89600 41200 44500 47000 49500 74800 109000 126000 172000 177000
2026-05-04 19:00 10.47 64900 262000 (2019) 39500 (1989) 89600 41200 44500 47000 49500 74800 109000 126000 172000 177000
2026-05-04 18:00 10.44 64700 262000 (2019) 39500 (1989) 89600 41200 44500 47000 49500 74800 109000 126000 172000 177000
2026-05-04 17:00 10.45 64700 262000 (2019) 39500 (1989) 89600 41200 44500 47000 49500 74800 109000 126000 172000 177000
2026-05-04 16:00 10.50 65100 262000 (2019) 39500 (1989) 89600 41200 44500 47000 49500 74800 109000 126000 172000 177000
2026-05-04 15:00 10.51 65200 262000 (2019) 39500 (1989) 89600 41200 44500 47000 49500 74800 109000 126000 172000 177000
2026-05-04 14:00 10.56 65500 262000 (2019) 39500 (1989) 89600 41200 44500 47000 49500 74800 109000 126000 172000 177000
2026-05-04 13:00 10.59 65700 262000 (2019) 39500 (1989) 89600 41200 44500 47000 49500 74800 109000 126000 172000 177000
2026-05-04 12:00 10.63 66000 262000 (2019) 39500 (1989) 89600 41200 44500 47000 49500 74800 109000 126000 172000 177000
2026-05-04 11:00 10.72 66700 262000 (2019) 39500 (1989) 89600 41200 44500 47000 49500 74800 109000 126000 172000 177000
2026-05-04 10:00 10.75 66900 262000 (2019) 39500 (1989) 89600 41200 44500 47000 49500 74800 109000 126000 172000 177000
2026-05-04 09:00 10.80 67300 262000 (2019) 39500 (1989) 89600 41200 44500 47000 49500 74800 109000 126000 172000 177000
2026-05-04 08:00 10.82 67400 262000 (2019) 39500 (1989) 89600 41200 44500 47000 49500 74800 109000 126000 172000 177000
2026-05-04 07:00 10.85 67700 262000 (2019) 39500 (1989) 89600 41200 44500 47000 49500 74800 109000 126000 172000 177000
2026-05-04 06:00 10.88 67900 262000 (2019) 39500 (1989) 89600 41200 44500 47000 49500 74800 109000 126000 172000 177000
2026-05-04 05:00 10.91 68100 262000 (2019) 39500 (1989) 89600 41200 44500 47000 49500 74800 109000 126000 172000 177000
2026-05-04 04:00 10.95 68400 262000 (2019) 39500 (1989) 89600 41200 44500 47000 49500 74800 109000 126000 172000 177000
2026-05-04 03:00 10.99 68700 262000 (2019) 39500 (1989) 89600 41200 44500 47000 49500 74800 109000 126000 172000 177000
2026-05-04 02:00 11.00 68800 262000 (2019) 39500 (1989) 89600 41200 44500 47000 49500 74800 109000 126000 172000 177000
2026-05-04 01:00 11.04 69100 262000 (2019) 39500 (1989) 89600 41200 44500 47000 49500 74800 109000 126000 172000 177000
2026-05-04 00:00 11.08 69400 262000 (2019) 39500 (1989) 89600 41200 44500 47000 49500 74800 109000 126000 172000 177000
2026-05-03 23:00 11.12 69700 262000 (2019) 39500 (1989) 89600 41200 44500 47000 49500 74800 109000 126000 172000 177000
2026-05-03 22:00 11.17 70100 278000 (2019) 40800 (2023) 91400 41400 44700 48700 49600 80000 110000 115000 170000 217000
2026-05-03 21:00 11.21 70400 278000 (2019) 40800 (2023) 91400 41400 44700 48700 49600 80000 110000 115000 170000 217000
2026-05-03 20:00 11.24 70600 278000 (2019) 40800 (2023) 91400 41400 44700 48700 49600 80000 110000 115000 170000 217000
2026-05-03 19:00 11.26 70700 278000 (2019) 40800 (2023) 91400 41400 44700 48700 49600 80000 110000 115000 170000 217000
2026-05-03 18:00 11.28 70900 278000 (2019) 40800 (2023) 91400 41400 44700 48700 49600 80000 110000 115000 170000 217000
2026-05-03 17:00 11.34 71400 278000 (2019) 40800 (2023) 91400 41400 44700 48700 49600 80000 110000 115000 170000 217000
2026-05-03 16:00 11.34 71400 278000 (2019) 40800 (2023) 91400 41400 44700 48700 49600 80000 110000 115000 170000 217000
2026-05-03 15:00 11.39 71700 278000 (2019) 40800 (2023) 91400 41400 44700 48700 49600 80000 110000 115000 170000 217000
2026-05-03 14:00 11.46 72300 278000 (2019) 40800 (2023) 91400 41400 44700 48700 49600 80000 110000 115000 170000 217000
2026-05-03 13:00 11.53 72800 278000 (2019) 40800 (2023) 91400 41400 44700 48700 49600 80000 110000 115000 170000 217000
2026-05-03 12:00 11.61 73500 278000 (2019) 40800 (2023) 91400 41400 44700 48700 49600 80000 110000 115000 170000 217000
2026-05-03 11:00 11.73 74400 278000 (2019) 40800 (2023) 91400 41400 44700 48700 49600 80000 110000 115000 170000 217000
2026-05-03 10:00 11.78 74800 278000 (2019) 40800 (2023) 91400 41400 44700 48700 49600 80000 110000 115000 170000 217000
2026-05-03 09:00 11.86 75500 278000 (2019) 40800 (2023) 91400 41400 44700 48700 49600 80000 110000 115000 170000 217000
2026-05-03 08:00 11.94 76100 278000 (2019) 40800 (2023) 91400 41400 44700 48700 49600 80000 110000 115000 170000 217000
2026-05-03 07:00 12.03 76800 278000 (2019) 40800 (2023) 91400 41400 44700 48700 49600 80000 110000 115000 170000 217000
2026-05-03 06:00 12.09 77300 278000 (2019) 40800 (2023) 91400 41400 44700 48700 49600 80000 110000 115000 170000 217000
2026-05-03 05:00 12.16 77900 278000 (2019) 40800 (2023) 91400 41400 44700 48700 49600 80000 110000 115000 170000 217000
2026-05-03 04:00 12.24 78600 278000 (2019) 40800 (2023) 91400 41400 44700 48700 49600 80000 110000 115000 170000 217000
2026-05-03 03:00 12.32 79200 278000 (2019) 40800 (2023) 91400 41400 44700 48700 49600 80000 110000 115000 170000 217000
2026-05-03 02:00 12.41 80000 278000 (2019) 40800 (2023) 91400 41400 44700 48700 49600 80000 110000 115000 170000 217000
2026-05-03 01:00 12.49 80700 278000 (2019) 40800 (2023) 91400 41400 44700 48700 49600 80000 110000 115000 170000 217000
2026-05-03 00:00 12.56 81300 278000 (2019) 40800 (2023) 91400 41400 44700 48700 49600 80000 110000 115000 170000 217000
2026-05-02 23:00 12.64 82000 278000 (2019) 40800 (2023) 91400 41400 44700 48700 49600 80000 110000 115000 170000 217000
2026-05-02 22:00 12.71 82600 268000 (2019) 40600 (1981) 94200 42100 44300 48500 50500 86500 113000 124000 178000 226000
2026-05-02 21:00 12.78 83200 268000 (2019) 40600 (1981) 94200 42100 44300 48500 50500 86500 113000 124000 178000 226000
2026-05-02 20:00 12.84 83800 268000 (2019) 40600 (1981) 94200 42100 44300 48500 50500 86500 113000 124000 178000 226000
2026-05-02 19:00 12.91 84400 268000 (2019) 40600 (1981) 94200 42100 44300 48500 50500 86500 113000 124000 178000 226000
2026-05-02 18:00 12.97 84900 268000 (2019) 40600 (1981) 94200 42100 44300 48500 50500 86500 113000 124000 178000 226000
2026-05-02 17:00 13.03 85500 268000 (2019) 40600 (1981) 94200 42100 44300 48500 50500 86500 113000 124000 178000 226000
2026-05-02 16:00 13.10 86100 268000 (2019) 40600 (1981) 94200 42100 44300 48500 50500 86500 113000 124000 178000 226000
2026-05-02 15:00 13.17 86800 268000 (2019) 40600 (1981) 94200 42100 44300 48500 50500 86500 113000 124000 178000 226000
2026-05-02 14:00 13.24 87500 268000 (2019) 40600 (1981) 94200 42100 44300 48500 50500 86500 113000 124000 178000 226000
2026-05-02 13:00 13.31 88100 268000 (2019) 40600 (1981) 94200 42100 44300 48500 50500 86500 113000 124000 178000 226000
2026-05-02 12:00 13.37 88700 268000 (2019) 40600 (1981) 94200 42100 44300 48500 50500 86500 113000 124000 178000 226000
2026-05-02 11:00 13.46 89500 268000 (2019) 40600 (1981) 94200 42100 44300 48500 50500 86500 113000 124000 178000 226000
2026-05-02 10:00 13.54 90300 268000 (2019) 40600 (1981) 94200 42100 44300 48500 50500 86500 113000 124000 178000 226000
2026-05-02 09:00 13.61 91000 268000 (2019) 40600 (1981) 94200 42100 44300 48500 50500 86500 113000 124000 178000 226000
2026-05-02 08:00 13.67 91600 268000 (2019) 40600 (1981) 94200 42100 44300 48500 50500 86500 113000 124000 178000 226000
2026-05-02 07:00 13.73 92100 268000 (2019) 40600 (1981) 94200 42100 44300 48500 50500 86500 113000 124000 178000 226000
2026-05-02 06:00 13.86 93400 268000 (2019) 40600 (1981) 94200 42100 44300 48500 50500 86500 113000 124000 178000 226000
2026-05-02 05:00 13.96 94400 268000 (2019) 40600 (1981) 94200 42100 44300 48500 50500 86500 113000 124000 178000 226000
2026-05-02 04:00 14.05 95300 268000 (2019) 40600 (1981) 94200 42100 44300 48500 50500 86500 113000 124000 178000 226000
2026-05-02 03:00 14.15 96300 268000 (2019) 40600 (1981) 94200 42100 44300 48500 50500 86500 113000 124000 178000 226000
2026-05-02 02:00 14.22 97000 268000 (2019) 40600 (1981) 94200 42100 44300 48500 50500 86500 113000 124000 178000 226000
2026-05-02 01:00 14.30 97800 268000 (2019) 40600 (1981) 94200 42100 44300 48500 50500 86500 113000 124000 178000 226000
2026-05-02 00:00 14.39 98700 268000 (2019) 40600 (1981) 94200 42100 44300 48500 50500 86500 113000 124000 178000 226000
2026-05-01 23:00 14.49 99700 268000 (2019) 40600 (1981) 94200 42100 44300 48500 50500 86500 113000 124000 178000 226000
2026-05-01 22:00 14.59 101000 269000 (2009) 39200 (1989) 94900 42700 43900 49100 52900 85200 116000 121000 195000 218000
2026-05-01 21:00 14.67 101000 269000 (2009) 39200 (1989) 94900 42700 43900 49100 52900 85200 116000 121000 195000 218000
2026-05-01 20:00 14.74 102000 269000 (2009) 39200 (1989) 94900 42700 43900 49100 52900 85200 116000 121000 195000 218000
2026-05-01 19:00 14.90 104000 269000 (2009) 39200 (1989) 94900 42700 43900 49100 52900 85200 116000 121000 195000 218000
2026-05-01 18:00 15.00 105000 269000 (2009) 39200 (1989) 94900 42700 43900 49100 52900 85200 116000 121000 195000 218000
2026-05-01 17:00 15.09 106000 269000 (2009) 39200 (1989) 94900 42700 43900 49100 52900 85200 116000 121000 195000 218000
2026-05-01 16:00 15.21 107000 269000 (2009) 39200 (1989) 94900 42700 43900 49100 52900 85200 116000 121000 195000 218000
2026-05-01 15:00 15.32 108000 269000 (2009) 39200 (1989) 94900 42700 43900 49100 52900 85200 116000 121000 195000 218000
2026-05-01 14:00 15.42 109000 269000 (2009) 39200 (1989) 94900 42700 43900 49100 52900 85200 116000 121000 195000 218000
2026-05-01 13:00 15.59 111000 269000 (2009) 39200 (1989) 94900 42700 43900 49100 52900 85200 116000 121000 195000 218000
2026-05-01 12:00 15.68 112000 269000 (2009) 39200 (1989) 94900 42700 43900 49100 52900 85200 116000 121000 195000 218000
2026-05-01 11:00 15.85 114000 269000 (2009) 39200 (1989) 94900 42700 43900 49100 52900 85200 116000 121000 195000 218000
2026-05-01 10:00 16.00 115000 269000 (2009) 39200 (1989) 94900 42700 43900 49100 52900 85200 116000 121000 195000 218000
2026-05-01 09:00 16.12 116000 269000 (2009) 39200 (1989) 94900 42700 43900 49100 52900 85200 116000 121000 195000 218000
2026-05-01 08:00 16.26 118000 269000 (2009) 39200 (1989) 94900 42700 43900 49100 52900 85200 116000 121000 195000 218000
2026-05-01 07:00 16.41 119000 269000 (2009) 39200 (1989) 94900 42700 43900 49100 52900 85200 116000 121000 195000 218000
2026-05-01 06:00 16.55 121000 269000 (2009) 39200 (1989) 94900 42700 43900 49100 52900 85200 116000 121000 195000 218000
2026-05-01 05:00 16.72 122000 269000 (2009) 39200 (1989) 94900 42700 43900 49100 52900 85200 116000 121000 195000 218000
2026-05-01 04:00 16.87 124000 269000 (2009) 39200 (1989) 94900 42700 43900 49100 52900 85200 116000 121000 195000 218000
2026-05-01 03:00 17.01 126000 269000 (2009) 39200 (1989) 94900 42700 43900 49100 52900 85200 116000 121000 195000 218000
2026-05-01 02:00 17.16 127000 269000 (2009) 39200 (1989) 94900 42700 43900 49100 52900 85200 116000 121000 195000 218000
2026-05-01 01:00 17.34 129000 269000 (2009) 39200 (1989) 94900 42700 43900 49100 52900 85200 116000 121000 195000 218000
2026-05-01 00:00 17.53 131000 269000 (2009) 39200 (1989) 94900 42700 43900 49100 52900 85200 116000 121000 195000 218000
2026-04-30 23:00 17.71 133000 269000 (2009) 39200 (1989) 94900 42700 43900 49100 52900 85200 116000 121000 195000 218000
2026-04-30 22:00 17.88 135000 269000 (2009) 37800 (1989) 93600 42400 43400 49700 53300 78100 125000 130000 183000 212000
2026-04-30 21:00 18.07 137000 269000 (2009) 37800 (1989) 93600 42400 43400 49700 53300 78100 125000 130000 183000 212000
2026-04-30 20:00 18.22 138000 269000 (2009) 37800 (1989) 93600 42400 43400 49700 53300 78100 125000 130000 183000 212000
2026-04-30 19:00 18.41 140000 269000 (2009) 37800 (1989) 93600 42400 43400 49700 53300 78100 125000 130000 183000 212000
2026-04-30 18:00 18.57 142000 269000 (2009) 37800 (1989) 93600 42400 43400 49700 53300 78100 125000 130000 183000 212000
2026-04-30 17:00 18.76 144000 269000 (2009) 37800 (1989) 93600 42400 43400 49700 53300 78100 125000 130000 183000 212000
2026-04-30 16:00 18.95 146000 269000 (2009) 37800 (1989) 93600 42400 43400 49700 53300 78100 125000 130000 183000 212000
2026-04-30 15:00 19.10 148000 269000 (2009) 37800 (1989) 93600 42400 43400 49700 53300 78100 125000 130000 183000 212000
2026-04-30 14:00 19.32 150000 269000 (2009) 37800 (1989) 93600 42400 43400 49700 53300 78100 125000 130000 183000 212000
2026-04-30 13:00 19.50 152000 269000 (2009) 37800 (1989) 93600 42400 43400 49700 53300 78100 125000 130000 183000 212000
2026-04-30 12:00 19.74 154000 269000 (2009) 37800 (1989) 93600 42400 43400 49700 53300 78100 125000 130000 183000 212000
2026-04-30 11:00 19.94 156000 269000 (2009) 37800 (1989) 93600 42400 43400 49700 53300 78100 125000 130000 183000 212000
2026-04-30 10:00 20.11 158000 269000 (2009) 37800 (1989) 93600 42400 43400 49700 53300 78100 125000 130000 183000 212000
2026-04-30 09:00 20.29 160000 269000 (2009) 37800 (1989) 93600 42400 43400 49700 53300 78100 125000 130000 183000 212000
2026-04-30 08:00 20.48 162000 269000 (2009) 37800 (1989) 93600 42400 43400 49700 53300 78100 125000 130000 183000 212000
2026-04-30 07:00 20.64 164000 269000 (2009) 37800 (1989) 93600 42400 43400 49700 53300 78100 125000 130000 183000 212000
2026-04-30 06:00 20.80 165000 269000 (2009) 37800 (1989) 93600 42400 43400 49700 53300 78100 125000 130000 183000 212000
2026-04-30 05:00 20.94 167000 269000 (2009) 37800 (1989) 93600 42400 43400 49700 53300 78100 125000 130000 183000 212000
2026-04-30 04:00 21.14 169000 269000 (2009) 37800 (1989) 93600 42400 43400 49700 53300 78100 125000 130000 183000 212000
2026-04-30 03:00 21.30 171000 269000 (2009) 37800 (1989) 93600 42400 43400 49700 53300 78100 125000 130000 183000 212000
2026-04-30 02:00 21.48 173000 269000 (2009) 37800 (1989) 93600 42400 43400 49700 53300 78100 125000 130000 183000 212000
2026-04-30 01:00 21.62 174000 269000 (2009) 37800 (1989) 93600 42400 43400 49700 53300 78100 125000 130000 183000 212000
2026-04-30 00:00 21.74 175000 269000 (2009) 37800 (1989) 93600 42400 43400 49700 53300 78100 125000 130000 183000 212000
2026-04-29 23:00 21.82 176000 269000 (2009) 37800 (1989) 93600 42400 43400 49700 53300 78100 125000 130000 183000 212000
2026-04-29 22:00 21.83 176000 250000 (2009) 37900 (1989) 91600 40500 43600 48600 54200 72700 120000 132000 166000 214000
2026-04-29 21:00 21.84 177000 250000 (2009) 37900 (1989) 91600 40500 43600 48600 54200 72700 120000 132000 166000 214000
2026-04-29 20:00 21.77 176000 250000 (2009) 37900 (1989) 91600 40500 43600 48600 54200 72700 120000 132000 166000 214000
2026-04-29 19:00 21.82 176000 250000 (2009) 37900 (1989) 91600 40500 43600 48600 54200 72700 120000 132000 166000 214000
2026-04-29 18:00 21.85 177000 250000 (2009) 37900 (1989) 91600 40500 43600 48600 54200 72700 120000 132000 166000 214000
2026-04-29 17:00 21.87 177000 250000 (2009) 37900 (1989) 91600 40500 43600 48600 54200 72700 120000 132000 166000 214000
2026-04-29 16:00 21.93 178000 250000 (2009) 37900 (1989) 91600 40500 43600 48600 54200 72700 120000 132000 166000 214000
2026-04-29 15:00 21.88 177000 250000 (2009) 37900 (1989) 91600 40500 43600 48600 54200 72700 120000 132000 166000 214000
2026-04-29 14:00 21.91 177000 250000 (2009) 37900 (1989) 91600 40500 43600 48600 54200 72700 120000 132000 166000 214000
2026-04-29 13:00 21.89 177000 250000 (2009) 37900 (1989) 91600 40500 43600 48600 54200 72700 120000 132000 166000 214000
2026-04-29 12:00 21.77 176000 250000 (2009) 37900 (1989) 91600 40500 43600 48600 54200 72700 120000 132000 166000 214000
2026-04-29 11:00 21.68 175000 250000 (2009) 37900 (1989) 91600 40500 43600 48600 54200 72700 120000 132000 166000 214000
2026-04-29 10:00 21.59 174000 250000 (2009) 37900 (1989) 91600 40500 43600 48600 54200 72700 120000 132000 166000 214000
2026-04-29 09:00 21.59 174000 250000 (2009) 37900 (1989) 91600 40500 43600 48600 54200 72700 120000 132000 166000 214000
2026-04-29 08:00 21.60 174000 250000 (2009) 37900 (1989) 91600 40500 43600 48600 54200 72700 120000 132000 166000 214000
2026-04-29 07:00 21.52 173000 250000 (2009) 37900 (1989) 91600 40500 43600 48600 54200 72700 120000 132000 166000 214000
2026-04-29 06:00 21.38 171000 250000 (2009) 37900 (1989) 91600 40500 43600 48600 54200 72700 120000 132000 166000 214000
2026-04-29 05:00 21.28 170000 250000 (2009) 37900 (1989) 91600 40500 43600 48600 54200 72700 120000 132000 166000 214000
2026-04-29 04:00 21.19 169000 250000 (2009) 37900 (1989) 91600 40500 43600 48600 54200 72700 120000 132000 166000 214000
2026-04-29 03:00 21.05 168000 250000 (2009) 37900 (1989) 91600 40500 43600 48600 54200 72700 120000 132000 166000 214000
2026-04-29 02:00 20.95 167000 250000 (2009) 37900 (1989) 91600 40500 43600 48600 54200 72700 120000 132000 166000 214000
2026-04-29 01:00 20.81 165000 250000 (2009) 37900 (1989) 91600 40500 43600 48600 54200 72700 120000 132000 166000 214000
2026-04-29 00:00 20.58 163000 250000 (2009) 37900 (1989) 91600 40500 43600 48600 54200 72700 120000 132000 166000 214000
2026-04-28 23:00 20.41 161000 250000 (2009) 37900 (1989) 91600 40500 43600 48600 54200 72700 120000 132000 166000 214000
2026-04-28 22:00 20.22 159000 213000 (1999) 38100 (1989) 86200 40300 44700 49100 53800 68000 115000 134000 150000 183000
2026-04-28 21:00 20.02 157000 213000 (1999) 38100 (1989) 86200 40300 44700 49100 53800 68000 115000 134000 150000 183000
2026-04-28 20:00 19.82 155000 213000 (1999) 38100 (1989) 86200 40300 44700 49100 53800 68000 115000 134000 150000 183000
2026-04-28 19:00 19.54 152000 213000 (1999) 38100 (1989) 86200 40300 44700 49100 53800 68000 115000 134000 150000 183000
2026-04-28 18:00 19.25 149000 213000 (1999) 38100 (1989) 86200 40300 44700 49100 53800 68000 115000 134000 150000 183000
2026-04-28 17:00 18.99 147000 213000 (1999) 38100 (1989) 86200 40300 44700 49100 53800 68000 115000 134000 150000 183000
2026-04-28 16:00 18.70 143000 213000 (1999) 38100 (1989) 86200 40300 44700 49100 53800 68000 115000 134000 150000 183000
2026-04-28 15:00 18.43 140000 213000 (1999) 38100 (1989) 86200 40300 44700 49100 53800 68000 115000 134000 150000 183000
2026-04-28 14:00 18.10 137000 213000 (1999) 38100 (1989) 86200 40300 44700 49100 53800 68000 115000 134000 150000 183000
2026-04-28 13:00 17.77 133000 213000 (1999) 38100 (1989) 86200 40300 44700 49100 53800 68000 115000 134000 150000 183000
2026-04-28 12:00 17.48 130000 213000 (1999) 38100 (1989) 86200 40300 44700 49100 53800 68000 115000 134000 150000 183000
2026-04-28 11:00 17.18 127000 213000 (1999) 38100 (1989) 86200 40300 44700 49100 53800 68000 115000 134000 150000 183000
2026-04-28 10:00 16.90 124000 213000 (1999) 38100 (1989) 86200 40300 44700 49100 53800 68000 115000 134000 150000 183000
2026-04-28 09:00 16.71 122000 213000 (1999) 38100 (1989) 86200 40300 44700 49100 53800 68000 115000 134000 150000 183000
2026-04-28 08:00 16.50 120000 213000 (1999) 38100 (1989) 86200 40300 44700 49100 53800 68000 115000 134000 150000 183000
2026-04-28 07:00 16.29 118000 213000 (1999) 38100 (1989) 86200 40300 44700 49100 53800 68000 115000 134000 150000 183000
2026-04-28 06:00 16.13 116000 213000 (1999) 38100 (1989) 86200 40300 44700 49100 53800 68000 115000 134000 150000 183000
2026-04-28 05:00 15.98 115000 213000 (1999) 38100 (1989) 86200 40300 44700 49100 53800 68000 115000 134000 150000 183000
2026-04-28 04:00 15.85 114000 213000 (1999) 38100 (1989) 86200 40300 44700 49100 53800 68000 115000 134000 150000 183000
2026-04-28 03:00 15.69 112000 213000 (1999) 38100 (1989) 86200 40300 44700 49100 53800 68000 115000 134000 150000 183000
2026-04-28 02:00 15.56 111000 213000 (1999) 38100 (1989) 86200 40300 44700 49100 53800 68000 115000 134000 150000 183000
2026-04-28 01:00 15.39 109000 213000 (1999) 38100 (1989) 86200 40300 44700 49100 53800 68000 115000 134000 150000 183000
2026-04-28 00:00 15.22 107000 213000 (1999) 38100 (1989) 86200 40300 44700 49100 53800 68000 115000 134000 150000 183000
2026-04-27 23:00 15.00 105000 213000 (1999) 38100 (1989) 86200 40300 44700 49100 53800 68000 115000 134000 150000 183000
2026-04-27 22:00 14.75 102000 215000 (2010) 38000 (1989) 83100 39600 44600 49400 52100 67000 103000 113000 157000 175000
2026-04-27 21:00 14.45 99300 215000 (2010) 38000 (1989) 83100 39600 44600 49400 52100 67000 103000 113000 157000 175000
2026-04-27 20:00 14.13 96100 215000 (2010) 38000 (1989) 83100 39600 44600 49400 52100 67000 103000 113000 157000 175000
2026-04-27 19:00 13.77 92500 215000 (2010) 38000 (1989) 83100 39600 44600 49400 52100 67000 103000 113000 157000 175000
2026-04-27 18:00 13.35 88500 215000 (2010) 38000 (1989) 83100 39600 44600 49400 52100 67000 103000 113000 157000 175000
2026-04-27 17:00 12.89 84200 215000 (2010) 38000 (1989) 83100 39600 44600 49400 52100 67000 103000 113000 157000 175000
2026-04-27 16:00 12.36 79600 215000 (2010) 38000 (1989) 83100 39600 44600 49400 52100 67000 103000 113000 157000 175000
2026-04-27 15:00 11.95 76200 215000 (2010) 38000 (1989) 83100 39600 44600 49400 52100 67000 103000 113000 157000 175000
2026-04-27 14:00 11.55 73000 215000 (2010) 38000 (1989) 83100 39600 44600 49400 52100 67000 103000 113000 157000 175000
2026-04-27 13:00 11.19 70200 215000 (2010) 38000 (1989) 83100 39600 44600 49400 52100 67000 103000 113000 157000 175000
2026-04-27 12:00 10.83 67500 215000 (2010) 38000 (1989) 83100 39600 44600 49400 52100 67000 103000 113000 157000 175000
2026-04-27 11:00 10.51 65200 215000 (2010) 38000 (1989) 83100 39600 44600 49400 52100 67000 103000 113000 157000 175000
2026-04-27 10:00 10.17 62800 215000 (2010) 38000 (1989) 83100 39600 44600 49400 52100 67000 103000 113000 157000 175000
2026-04-27 09:00 9.97 61400 215000 (2010) 38000 (1989) 83100 39600 44600 49400 52100 67000 103000 113000 157000 175000
2026-04-27 08:00 9.81 60300 215000 (2010) 38000 (1989) 83100 39600 44600 49400 52100 67000 103000 113000 157000 175000
2026-04-27 07:00 9.78 60100 215000 (2010) 38000 (1989) 83100 39600 44600 49400 52100 67000 103000 113000 157000 175000
2026-04-27 06:00 9.76 59900 215000 (2010) 38000 (1989) 83100 39600 44600 49400 52100 67000 103000 113000 157000 175000
2026-04-27 05:00 9.76 59900 215000 (2010) 38000 (1989) 83100 39600 44600 49400 52100 67000 103000 113000 157000 175000
2026-04-27 04:00 9.80 60200 215000 (2010) 38000 (1989) 83100 39600 44600 49400 52100 67000 103000 113000 157000 175000
2026-04-27 03:00 9.82 60400 215000 (2010) 38000 (1989) 83100 39600 44600 49400 52100 67000 103000 113000 157000 175000
2026-04-27 02:00 9.89 60800 215000 (2010) 38000 (1989) 83100 39600 44600 49400 52100 67000 103000 113000 157000 175000
2026-04-27 01:00 9.92 61000 215000 (2010) 38000 (1989) 83100 39600 44600 49400 52100 67000 103000 113000 157000 175000
2026-04-27 00:00 9.93 61100 215000 (2010) 38000 (1989) 83100 39600 44600 49400 52100 67000 103000 113000 157000 175000
2026-04-26 23:00 9.95 61200 215000 (2010) 38000 (1989) 83100 39600 44600 49400 52100 67000 103000 113000 157000 175000
2026-04-26 22:00 9.99 61500 241000 (1973) 37900 (1989) 84900 39400 45300 50300 50900 65500 105000 123000 151000 189000
2026-04-26 21:00 10.04 61900 241000 (1973) 37900 (1989) 84900 39400 45300 50300 50900 65500 105000 123000 151000 189000
2026-04-26 20:00 10.11 62300 241000 (1973) 37900 (1989) 84900 39400 45300 50300 50900 65500 105000 123000 151000 189000
2026-04-26 19:00 10.14 62600 241000 (1973) 37900 (1989) 84900 39400 45300 50300 50900 65500 105000 123000 151000 189000
2026-04-26 18:00 10.21 63000 241000 (1973) 37900 (1989) 84900 39400 45300 50300 50900 65500 105000 123000 151000 189000
2026-04-26 17:00 10.24 63300 241000 (1973) 37900 (1989) 84900 39400 45300 50300 50900 65500 105000 123000 151000 189000
2026-04-26 16:00 10.24 63300 241000 (1973) 37900 (1989) 84900 39400 45300 50300 50900 65500 105000 123000 151000 189000
2026-04-26 15:00 10.28 63500 241000 (1973) 37900 (1989) 84900 39400 45300 50300 50900 65500 105000 123000 151000 189000
2026-04-26 14:00 10.31 63700 241000 (1973) 37900 (1989) 84900 39400 45300 50300 50900 65500 105000 123000 151000 189000
2026-04-26 13:00 10.36 64100 241000 (1973) 37900 (1989) 84900 39400 45300 50300 50900 65500 105000 123000 151000 189000
2026-04-26 12:00 10.39 64300 241000 (1973) 37900 (1989) 84900 39400 45300 50300 50900 65500 105000 123000 151000 189000
2026-04-26 11:00 10.41 64500 241000 (1973) 37900 (1989) 84900 39400 45300 50300 50900 65500 105000 123000 151000 189000
2026-04-26 10:00 10.43 64600 241000 (1973) 37900 (1989) 84900 39400 45300 50300 50900 65500 105000 123000 151000 189000
2026-04-26 09:00 10.46 64800 241000 (1973) 37900 (1989) 84900 39400 45300 50300 50900 65500 105000 123000 151000 189000
2026-04-26 08:00 10.43 64600 241000 (1973) 37900 (1989) 84900 39400 45300 50300 50900 65500 105000 123000 151000 189000
2026-04-26 07:00 10.43 64600 241000 (1973) 37900 (1989) 84900 39400 45300 50300 50900 65500 105000 123000 151000 189000
2026-04-26 06:00 10.41 64500 241000 (1973) 37900 (1989) 84900 39400 45300 50300 50900 65500 105000 123000 151000 189000
2026-04-26 05:00 10.44 64700 241000 (1973) 37900 (1989) 84900 39400 45300 50300 50900 65500 105000 123000 151000 189000
2026-04-26 04:00 10.43 64600 241000 (1973) 37900 (1989) 84900 39400 45300 50300 50900 65500 105000 123000 151000 189000
2026-04-26 03:00 10.39 64300 241000 (1973) 37900 (1989) 84900 39400 45300 50300 50900 65500 105000 123000 151000 189000
2026-04-26 02:00 10.37 64200 241000 (1973) 37900 (1989) 84900 39400 45300 50300 50900 65500 105000 123000 151000 189000
2026-04-26 01:00 10.34 64000 241000 (1973) 37900 (1989) 84900 39400 45300 50300 50900 65500 105000 123000 151000 189000
2026-04-26 00:00 10.30 63700 241000 (1973) 37900 (1989) 84900 39400 45300 50300 50900 65500 105000 123000 151000 189000
2026-04-25 23:00 10.25 63300 241000 (1973) 37900 (1989) 84900 39400 45300 50300 50900 65500 105000 123000 151000 189000
2026-04-25 22:00 10.20 63000 274000 (1973) 37400 (1989) 87200 39500 44500 50000 51200 72400 100000 125000 154000 198000
2026-04-25 21:00 10.11 62300 274000 (1973) 37400 (1989) 87200 39500 44500 50000 51200 72400 100000 125000 154000 198000
2026-04-25 20:00 10.07 62100 274000 (1973) 37400 (1989) 87200 39500 44500 50000 51200 72400 100000 125000 154000 198000
2026-04-25 19:00 10.01 61600 274000 (1973) 37400 (1989) 87200 39500 44500 50000 51200 72400 100000 125000 154000 198000
2026-04-25 18:00 9.95 61200 274000 (1973) 37400 (1989) 87200 39500 44500 50000 51200 72400 100000 125000 154000 198000
2026-04-25 17:00 9.84 60500 274000 (1973) 37400 (1989) 87200 39500 44500 50000 51200 72400 100000 125000 154000 198000
2026-04-25 16:00 9.77 60000 274000 (1973) 37400 (1989) 87200 39500 44500 50000 51200 72400 100000 125000 154000 198000
2026-04-25 15:00 9.71 59600 274000 (1973) 37400 (1989) 87200 39500 44500 50000 51200 72400 100000 125000 154000 198000
2026-04-25 14:00 9.65 59200 274000 (1973) 37400 (1989) 87200 39500 44500 50000 51200 72400 100000 125000 154000 198000
2026-04-25 13:00 9.60 58900 274000 (1973) 37400 (1989) 87200 39500 44500 50000 51200 72400 100000 125000 154000 198000
2026-04-25 12:00 9.55 58500 274000 (1973) 37400 (1989) 87200 39500 44500 50000 51200 72400 100000 125000 154000 198000
2026-04-25 11:00 9.50 58200 274000 (1973) 37400 (1989) 87200 39500 44500 50000 51200 72400 100000 125000 154000 198000
2026-04-25 10:00 9.39 57500 274000 (1973) 37400 (1989) 87200 39500 44500 50000 51200 72400 100000 125000 154000 198000
2026-04-25 09:00 9.37 57400 274000 (1973) 37400 (1989) 87200 39500 44500 50000 51200 72400 100000 125000 154000 198000
2026-04-25 08:00 9.32 57000 274000 (1973) 37400 (1989) 87200 39500 44500 50000 51200 72400 100000 125000 154000 198000
2026-04-25 07:00 9.31 57000 274000 (1973) 37400 (1989) 87200 39500 44500 50000 51200 72400 100000 125000 154000 198000
2026-04-25 06:00 9.23 56500 274000 (1973) 37400 (1989) 87200 39500 44500 50000 51200 72400 100000 125000 154000 198000
2026-04-25 05:00 9.22 56400 274000 (1973) 37400 (1989) 87200 39500 44500 50000 51200 72400 100000 125000 154000 198000
2026-04-25 04:00 9.19 56200 274000 (1973) 37400 (1989) 87200 39500 44500 50000 51200 72400 100000 125000 154000 198000
2026-04-25 03:00 9.15 55900 274000 (1973) 37400 (1989) 87200 39500 44500 50000 51200 72400 100000 125000 154000 198000
2026-04-25 02:00 9.13 55800 274000 (1973) 37400 (1989) 87200 39500 44500 50000 51200 72400 100000 125000 154000 198000
2026-04-25 01:00 9.11 55700 274000 (1973) 37400 (1989) 87200 39500 44500 50000 51200 72400 100000 125000 154000 198000
2026-04-25 00:00 9.10 55600 274000 (1973) 37400 (1989) 87200 39500 44500 50000 51200 72400 100000 125000 154000 198000
2026-04-24 23:00 9.09 55600 274000 (1973) 37400 (1989) 87200 39500 44500 50000 51200 72400 100000 125000 154000 198000
2026-04-24 22:00 9.09 55600 300000 (1973) 37900 (1989) 88400 40400 44500 49400 50500 74100 105000 118000 145000 199000
2026-04-24 21:00 9.09 55600 300000 (1973) 37900 (1989) 88400 40400 44500 49400 50500 74100 105000 118000 145000 199000
2026-04-24 20:00 9.09 55600 300000 (1973) 37900 (1989) 88400 40400 44500 49400 50500 74100 105000 118000 145000 199000
2026-04-24 19:00 9.10 55600 300000 (1973) 37900 (1989) 88400 40400 44500 49400 50500 74100 105000 118000 145000 199000
2026-04-24 18:00 9.10 55600 300000 (1973) 37900 (1989) 88400 40400 44500 49400 50500 74100 105000 118000 145000 199000
2026-04-24 17:00 9.09 55600 300000 (1973) 37900 (1989) 88400 40400 44500 49400 50500 74100 105000 118000 145000 199000
2026-04-24 16:00 9.11 55700 300000 (1973) 37900 (1989) 88400 40400 44500 49400 50500 74100 105000 118000 145000 199000
2026-04-24 15:00 9.12 55700 300000 (1973) 37900 (1989) 88400 40400 44500 49400 50500 74100 105000 118000 145000 199000
2026-04-24 14:00 9.12 55700 300000 (1973) 37900 (1989) 88400 40400 44500 49400 50500 74100 105000 118000 145000 199000
2026-04-24 13:00 9.14 55900 300000 (1973) 37900 (1989) 88400 40400 44500 49400 50500 74100 105000 118000 145000 199000
2026-04-24 12:00 9.15 55900 300000 (1973) 37900 (1989) 88400 40400 44500 49400 50500 74100 105000 118000 145000 199000
2026-04-24 11:00 9.14 55900 300000 (1973) 37900 (1989) 88400 40400 44500 49400 50500 74100 105000 118000 145000 199000
2026-04-24 10:00 9.12 55700 300000 (1973) 37900 (1989) 88400 40400 44500 49400 50500 74100 105000 118000 145000 199000
2026-04-24 09:00 9.16 56000 300000 (1973) 37900 (1989) 88400 40400 44500 49400 50500 74100 105000 118000 145000 199000
2026-04-24 08:00 9.18 56100 300000 (1973) 37900 (1989) 88400 40400 44500 49400 50500 74100 105000 118000 145000 199000
2026-04-24 07:00 9.18 56100 300000 (1973) 37900 (1989) 88400 40400 44500 49400 50500 74100 105000 118000 145000 199000
2026-04-24 06:00 9.20 56300 300000 (1973) 37900 (1989) 88400 40400 44500 49400 50500 74100 105000 118000 145000 199000
2026-04-24 05:00 9.20 56300 300000 (1973) 37900 (1989) 88400 40400 44500 49400 50500 74100 105000 118000 145000 199000
2026-04-24 04:00 9.22 56400 300000 (1973) 37900 (1989) 88400 40400 44500 49400 50500 74100 105000 118000 145000 199000
2026-04-24 03:00 9.15 55900 300000 (1973) 37900 (1989) 88400 40400 44500 49400 50500 74100 105000 118000 145000 199000
2026-04-24 02:00 9.21 56300 300000 (1973) 37900 (1989) 88400 40400 44500 49400 50500 74100 105000 118000 145000 199000
2026-04-24 01:00 9.22 56400 300000 (1973) 37900 (1989) 88400 40400 44500 49400 50500 74100 105000 118000 145000 199000
2026-04-24 00:00 9.16 56000 300000 (1973) 37900 (1989) 88400 40400 44500 49400 50500 74100 105000 118000 145000 199000
2026-04-23 23:00 9.20 56300 300000 (1973) 37900 (1989) 88400 40400 44500 49400 50500 74100 105000 118000 145000 199000
2026-04-23 22:00 9.21 56300 313000 (1973) 39200 (1989) 88400 41700 45300 48700 52200 72100 115000 116000 162000 174000
2026-04-23 21:00 9.23 56500 313000 (1973) 39200 (1989) 88400 41700 45300 48700 52200 72100 115000 116000 162000 174000
2026-04-23 20:00 9.24 56500 313000 (1973) 39200 (1989) 88400 41700 45300 48700 52200 72100 115000 116000 162000 174000
2026-04-23 19:00 9.22 56400 313000 (1973) 39200 (1989) 88400 41700 45300 48700 52200 72100 115000 116000 162000 174000
2026-04-23 18:00 9.24 56500 313000 (1973) 39200 (1989) 88400 41700 45300 48700 52200 72100 115000 116000 162000 174000
2026-04-23 17:00 9.26 56600 313000 (1973) 39200 (1989) 88400 41700 45300 48700 52200 72100 115000 116000 162000 174000
2026-04-23 16:00 9.30 56900 313000 (1973) 39200 (1989) 88400 41700 45300 48700 52200 72100 115000 116000 162000 174000
2026-04-23 15:00 9.30 56900 313000 (1973) 39200 (1989) 88400 41700 45300 48700 52200 72100 115000 116000 162000 174000
2026-04-23 14:00 9.35 57200 313000 (1973) 39200 (1989) 88400 41700 45300 48700 52200 72100 115000 116000 162000 174000
2026-04-23 13:00 9.37 57400 313000 (1973) 39200 (1989) 88400 41700 45300 48700 52200 72100 115000 116000 162000 174000
2026-04-23 12:00 9.36 57300 313000 (1973) 39200 (1989) 88400 41700 45300 48700 52200 72100 115000 116000 162000 174000
2026-04-23 11:00 9.38 57400 313000 (1973) 39200 (1989) 88400 41700 45300 48700 52200 72100 115000 116000 162000 174000
2026-04-23 10:00 9.42 57700 313000 (1973) 39200 (1989) 88400 41700 45300 48700 52200 72100 115000 116000 162000 174000
2026-04-23 09:00 9.44 57800 313000 (1973) 39200 (1989) 88400 41700 45300 48700 52200 72100 115000 116000 162000 174000
2026-04-23 08:00 9.47 58000 313000 (1973) 39200 (1989) 88400 41700 45300 48700 52200 72100 115000 116000 162000 174000
2026-04-23 07:00 9.50 58200 313000 (1973) 39200 (1989) 88400 41700 45300 48700 52200 72100 115000 116000 162000 174000
2026-04-23 06:00 9.53 58400 313000 (1973) 39200 (1989) 88400 41700 45300 48700 52200 72100 115000 116000 162000 174000
2026-04-23 05:00 9.54 58500 313000 (1973) 39200 (1989) 88400 41700 45300 48700 52200 72100 115000 116000 162000 174000
2026-04-23 04:00 9.57 58700 313000 (1973) 39200 (1989) 88400 41700 45300 48700 52200 72100 115000 116000 162000 174000
2026-04-23 03:00 9.61 58900 313000 (1973) 39200 (1989) 88400 41700 45300 48700 52200 72100 115000 116000 162000 174000
2026-04-23 02:00 9.63 59100 313000 (1973) 39200 (1989) 88400 41700 45300 48700 52200 72100 115000 116000 162000 174000
2026-04-23 01:00 9.66 59300 313000 (1973) 39200 (1989) 88400 41700 45300 48700 52200 72100 115000 116000 162000 174000
2026-04-23 00:00 9.68 59400 313000 (1973) 39200 (1989) 88400 41700 45300 48700 52200 72100 115000 116000 162000 174000
2026-04-22 23:00 9.72 59700 313000 (1973) 39200 (1989) 88400 41700 45300 48700 52200 72100 115000 116000 162000 174000
2026-04-22 22:00 9.73 59700 320000 (1973) 39100 (1989) 88100 41500 45000 48900 50100 71200 120000 124000 145000 190000
2026-04-22 21:00 9.76 59900 320000 (1973) 39100 (1989) 88100 41500 45000 48900 50100 71200 120000 124000 145000 190000
2026-04-22 20:00 9.79 60100 320000 (1973) 39100 (1989) 88100 41500 45000 48900 50100 71200 120000 124000 145000 190000
2026-04-22 19:00 9.83 60400 320000 (1973) 39100 (1989) 88100 41500 45000 48900 50100 71200 120000 124000 145000 190000
2026-04-22 18:00 9.87 60700 320000 (1973) 39100 (1989) 88100 41500 45000 48900 50100 71200 120000 124000 145000 190000
2026-04-22 17:00 9.91 61000 320000 (1973) 39100 (1989) 88100 41500 45000 48900 50100 71200 120000 124000 145000 190000
2026-04-22 16:00 9.96 61300 320000 (1973) 39100 (1989) 88100 41500 45000 48900 50100 71200 120000 124000 145000 190000
2026-04-22 15:00 9.98 61400 320000 (1973) 39100 (1989) 88100 41500 45000 48900 50100 71200 120000 124000 145000 190000
2026-04-22 14:00 10.02 61700 320000 (1973) 39100 (1989) 88100 41500 45000 48900 50100 71200 120000 124000 145000 190000
2026-04-22 13:00 10.06 62000 320000 (1973) 39100 (1989) 88100 41500 45000 48900 50100 71200 120000 124000 145000 190000
2026-04-22 12:00 10.08 62100 320000 (1973) 39100 (1989) 88100 41500 45000 48900 50100 71200 120000 124000 145000 190000
2026-04-22 11:00 10.12 62400 320000 (1973) 39100 (1989) 88100 41500 45000 48900 50100 71200 120000 124000 145000 190000
2026-04-22 10:00 10.17 62800 320000 (1973) 39100 (1989) 88100 41500 45000 48900 50100 71200 120000 124000 145000 190000
2026-04-22 09:00 10.20 63000 320000 (1973) 39100 (1989) 88100 41500 45000 48900 50100 71200 120000 124000 145000 190000
2026-04-22 08:00 10.25 63300 320000 (1973) 39100 (1989) 88100 41500 45000 48900 50100 71200 120000 124000 145000 190000
2026-04-22 07:00 10.29 63600 320000 (1973) 39100 (1989) 88100 41500 45000 48900 50100 71200 120000 124000 145000 190000
2026-04-22 06:00 10.33 63900 320000 (1973) 39100 (1989) 88100 41500 45000 48900 50100 71200 120000 124000 145000 190000
2026-04-22 05:00 10.39 64300 320000 (1973) 39100 (1989) 88100 41500 45000 48900 50100 71200 120000 124000 145000 190000
2026-04-22 04:00 10.42 64500 320000 (1973) 39100 (1989) 88100 41500 45000 48900 50100 71200 120000 124000 145000 190000
2026-04-22 03:00 10.46 64800 320000 (1973) 39100 (1989) 88100 41500 45000 48900 50100 71200 120000 124000 145000 190000
2026-04-22 02:00 10.51 65200 320000 (1973) 39100 (1989) 88100 41500 45000 48900 50100 71200 120000 124000 145000 190000
2026-04-22 01:00 10.54 65400 320000 (1973) 39100 (1989) 88100 41500 45000 48900 50100 71200 120000 124000 145000 190000
2026-04-22 00:00 10.58 65700 320000 (1973) 39100 (1989) 88100 41500 45000 48900 50100 71200 120000 124000 145000 190000
2026-04-21 23:00 10.62 66000 320000 (1973) 39100 (1989) 88100 41500 45000 48900 50100 71200 120000 124000 145000 190000
2026-04-21 22:00 10.67 66300 292000 (1973) 38200 (2004) 87800 39600 42700 47900 50600 69800 113000 128000 161000 196000
2026-04-21 21:00 10.70 66500 292000 (1973) 38200 (2004) 87800 39600 42700 47900 50600 69800 113000 128000 161000 196000
2026-04-21 20:00 10.78 67100 292000 (1973) 38200 (2004) 87800 39600 42700 47900 50600 69800 113000 128000 161000 196000
2026-04-21 19:00 10.81 67400 292000 (1973) 38200 (2004) 87800 39600 42700 47900 50600 69800 113000 128000 161000 196000
2026-04-21 18:00 10.83 67500 292000 (1973) 38200 (2004) 87800 39600 42700 47900 50600 69800 113000 128000 161000 196000
2026-04-21 17:00 10.89 68000 292000 (1973) 38200 (2004) 87800 39600 42700 47900 50600 69800 113000 128000 161000 196000
2026-04-21 16:00 10.93 68200 292000 (1973) 38200 (2004) 87800 39600 42700 47900 50600 69800 113000 128000 161000 196000
2026-04-21 15:00 10.98 68600 292000 (1973) 38200 (2004) 87800 39600 42700 47900 50600 69800 113000 128000 161000 196000
2026-04-21 14:00 11.07 69300 292000 (1973) 38200 (2004) 87800 39600 42700 47900 50600 69800 113000 128000 161000 196000
2026-04-21 13:00 11.16 70000 292000 (1973) 38200 (2004) 87800 39600 42700 47900 50600 69800 113000 128000 161000 196000
2026-04-21 12:00 11.28 70900 292000 (1973) 38200 (2004) 87800 39600 42700 47900 50600 69800 113000 128000 161000 196000
2026-04-21 11:00 11.31 71100 292000 (1973) 38200 (2004) 87800 39600 42700 47900 50600 69800 113000 128000 161000 196000
2026-04-21 10:00 11.42 72000 292000 (1973) 38200 (2004) 87800 39600 42700 47900 50600 69800 113000 128000 161000 196000
2026-04-21 09:00 11.50 72600 292000 (1973) 38200 (2004) 87800 39600 42700 47900 50600 69800 113000 128000 161000 196000
2026-04-21 08:00 11.59 73300 292000 (1973) 38200 (2004) 87800 39600 42700 47900 50600 69800 113000 128000 161000 196000
2026-04-21 07:00 11.67 73900 292000 (1973) 38200 (2004) 87800 39600 42700 47900 50600 69800 113000 128000 161000 196000
2026-04-21 06:00 11.75 74600 292000 (1973) 38200 (2004) 87800 39600 42700 47900 50600 69800 113000 128000 161000 196000
2026-04-21 05:00 11.84 75300 292000 (1973) 38200 (2004) 87800 39600 42700 47900 50600 69800 113000 128000 161000 196000
2026-04-21 04:00 11.92 75900 292000 (1973) 38200 (2004) 87800 39600 42700 47900 50600 69800 113000 128000 161000 196000
2026-04-21 03:00 12.03 76800 292000 (1973) 38200 (2004) 87800 39600 42700 47900 50600 69800 113000 128000 161000 196000
2026-04-21 02:00 12.14 77700 292000 (1973) 38200 (2004) 87800 39600 42700 47900 50600 69800 113000 128000 161000 196000
2026-04-21 01:00 12.23 78500 292000 (1973) 38200 (2004) 87800 39600 42700 47900 50600 69800 113000 128000 161000 196000
2026-04-21 00:00 12.36 79600 292000 (1973) 38200 (2004) 87800 39600 42700 47900 50600 69800 113000 128000 161000 196000
2026-04-20 23:00 12.47 80500 292000 (1973) 38200 (2004) 87800 39600 42700 47900 50600 69800 113000 128000 161000 196000
2026-04-20 22:00 12.59 81500 228000 (1973) 36900 (2003) 87300 39600 41900 46700 49700 66900 118000 131000 162000 210000
2026-04-20 21:00 12.71 82600 228000 (1973) 36900 (2003) 87300 39600 41900 46700 49700 66900 118000 131000 162000 210000
2026-04-20 20:00 12.84 83800 228000 (1973) 36900 (2003) 87300 39600 41900 46700 49700 66900 118000 131000 162000 210000
2026-04-20 19:00 12.98 85000 228000 (1973) 36900 (2003) 87300 39600 41900 46700 49700 66900 118000 131000 162000 210000
2026-04-20 18:00 13.12 86300 228000 (1973) 36900 (2003) 87300 39600 41900 46700 49700 66900 118000 131000 162000 210000
2026-04-20 17:00 13.31 88100 228000 (1973) 36900 (2003) 87300 39600 41900 46700 49700 66900 118000 131000 162000 210000
2026-04-20 16:00 13.44 89300 228000 (1973) 36900 (2003) 87300 39600 41900 46700 49700 66900 118000 131000 162000 210000
2026-04-20 15:00 13.65 91400 228000 (1973) 36900 (2003) 87300 39600 41900 46700 49700 66900 118000 131000 162000 210000
2026-04-20 14:00 13.81 92900 228000 (1973) 36900 (2003) 87300 39600 41900 46700 49700 66900 118000 131000 162000 210000
2026-04-20 13:00 14.01 94900 228000 (1973) 36900 (2003) 87300 39600 41900 46700 49700 66900 118000 131000 162000 210000
2026-04-20 12:00 14.20 96800 228000 (1973) 36900 (2003) 87300 39600 41900 46700 49700 66900 118000 131000 162000 210000
2026-04-20 11:00 14.37 98500 228000 (1973) 36900 (2003) 87300 39600 41900 46700 49700 66900 118000 131000 162000 210000
2026-04-20 10:00 14.55 100000 228000 (1973) 36900 (2003) 87300 39600 41900 46700 49700 66900 118000 131000 162000 210000
2026-04-20 09:00 14.71 102000 228000 (1973) 36900 (2003) 87300 39600 41900 46700 49700 66900 118000 131000 162000 210000
2026-04-20 08:00 14.86 103000 228000 (1973) 36900 (2003) 87300 39600 41900 46700 49700 66900 118000 131000 162000 210000
2026-04-20 07:00 15.04 105000 228000 (1973) 36900 (2003) 87300 39600 41900 46700 49700 66900 118000 131000 162000 210000
2026-04-20 06:00 15.15 106000 228000 (1973) 36900 (2003) 87300 39600 41900 46700 49700 66900 118000 131000 162000 210000
2026-04-20 05:00 15.24 107000 228000 (1973) 36900 (2003) 87300 39600 41900 46700 49700 66900 118000 131000 162000 210000
2026-04-20 04:00 15.33 108000 228000 (1973) 36900 (2003) 87300 39600 41900 46700 49700 66900 118000 131000 162000 210000
2026-04-20 03:00 15.39 109000 228000 (1973) 36900 (2003) 87300 39600 41900 46700 49700 66900 118000 131000 162000 210000
2026-04-20 02:00 15.41 109000 228000 (1973) 36900 (2003) 87300 39600 41900 46700 49700 66900 118000 131000 162000 210000
2026-04-20 01:00 15.46 110000 228000 (1973) 36900 (2003) 87300 39600 41900 46700 49700 66900 118000 131000 162000 210000
2026-04-20 00:00 15.55 111000 228000 (1973) 36900 (2003) 87300 39600 41900 46700 49700 66900 118000 131000 162000 210000
2026-04-19 23:00 15.60 111000 228000 (1973) 36900 (2003) 87300 39600 41900 46700 49700 66900 118000 131000 162000 210000
2026-04-19 22:00 15.64 112000 249000 (1999) 36500 (2003) 86900 38600 41900 44300 49400 66400 106000 126000 170000 202000
2026-04-19 21:00 15.66 112000 249000 (1999) 36500 (2003) 86900 38600 41900 44300 49400 66400 106000 126000 170000 202000
2026-04-19 20:00 15.66 112000 249000 (1999) 36500 (2003) 86900 38600 41900 44300 49400 66400 106000 126000 170000 202000
2026-04-19 19:00 15.66 112000 249000 (1999) 36500 (2003) 86900 38600 41900 44300 49400 66400 106000 126000 170000 202000
2026-04-19 18:00 15.67 112000 249000 (1999) 36500 (2003) 86900 38600 41900 44300 49400 66400 106000 126000 170000 202000
2026-04-19 17:00 15.64 112000 249000 (1999) 36500 (2003) 86900 38600 41900 44300 49400 66400 106000 126000 170000 202000
2026-04-19 16:00 15.62 111000 249000 (1999) 36500 (2003) 86900 38600 41900 44300 49400 66400 106000 126000 170000 202000
2026-04-19 15:00 15.57 111000 249000 (1999) 36500 (2003) 86900 38600 41900 44300 49400 66400 106000 126000 170000 202000
2026-04-19 14:00 15.53 110000 249000 (1999) 36500 (2003) 86900 38600 41900 44300 49400 66400 106000 126000 170000 202000
2026-04-19 13:00 15.44 110000 249000 (1999) 36500 (2003) 86900 38600 41900 44300 49400 66400 106000 126000 170000 202000
2026-04-19 12:00 15.34 108000 249000 (1999) 36500 (2003) 86900 38600 41900 44300 49400 66400 106000 126000 170000 202000
2026-04-19 11:00 15.30 108000 249000 (1999) 36500 (2003) 86900 38600 41900 44300 49400 66400 106000 126000 170000 202000
2026-04-19 10:00 15.21 107000 249000 (1999) 36500 (2003) 86900 38600 41900 44300 49400 66400 106000 126000 170000 202000
2026-04-19 09:00 15.12 106000 249000 (1999) 36500 (2003) 86900 38600 41900 44300 49400 66400 106000 126000 170000 202000
2026-04-19 08:00 15.00 105000 249000 (1999) 36500 (2003) 86900 38600 41900 44300 49400 66400 106000 126000 170000 202000
2026-04-19 07:00 14.87 104000 249000 (1999) 36500 (2003) 86900 38600 41900 44300 49400 66400 106000 126000 170000 202000
2026-04-19 06:00 14.73 102000 249000 (1999) 36500 (2003) 86900 38600 41900 44300 49400 66400 106000 126000 170000 202000
2026-04-19 05:00 14.59 101000 249000 (1999) 36500 (2003) 86900 38600 41900 44300 49400 66400 106000 126000 170000 202000
2026-04-19 04:00 14.45 99300 249000 (1999) 36500 (2003) 86900 38600 41900 44300 49400 66400 106000 126000 170000 202000
2026-04-19 03:00 14.28 97600 249000 (1999) 36500 (2003) 86900 38600 41900 44300 49400 66400 106000 126000 170000 202000
2026-04-19 02:00 14.12 96000 249000 (1999) 36500 (2003) 86900 38600 41900 44300 49400 66400 106000 126000 170000 202000
2026-04-19 01:00 13.96 94400 249000 (1999) 36500 (2003) 86900 38600 41900 44300 49400 66400 106000 126000 170000 202000
2026-04-19 00:00 13.80 92800 249000 (1999) 36500 (2003) 86900 38600 41900 44300 49400 66400 106000 126000 170000 202000
2026-04-18 23:00 13.62 91100 249000 (1999) 36500 (2003) 86900 38600 41900 44300 49400 66400 106000 126000 170000 202000
2026-04-18 22:00 13.44 89300 262000 (1999) 35600 (2003) 86100 39800 41900 45200 50200 68200 101000 130000 167000 211000
2026-04-18 21:00 13.27 87700 262000 (1999) 35600 (2003) 86100 39800 41900 45200 50200 68200 101000 130000 167000 211000
2026-04-18 20:00 13.08 86000 262000 (1999) 35600 (2003) 86100 39800 41900 45200 50200 68200 101000 130000 167000 211000
2026-04-18 19:00 12.90 84300 262000 (1999) 35600 (2003) 86100 39800 41900 45200 50200 68200 101000 130000 167000 211000
2026-04-18 18:00 12.73 82800 262000 (1999) 35600 (2003) 86100 39800 41900 45200 50200 68200 101000 130000 167000 211000
2026-04-18 17:00 12.58 81400 262000 (1999) 35600 (2003) 86100 39800 41900 45200 50200 68200 101000 130000 167000 211000
2026-04-18 16:00 12.44 80300 262000 (1999) 35600 (2003) 86100 39800 41900 45200 50200 68200 101000 130000 167000 211000
2026-04-18 15:00 12.29 79000 262000 (1999) 35600 (2003) 86100 39800 41900 45200 50200 68200 101000 130000 167000 211000
2026-04-18 14:00 12.13 77700 262000 (1999) 35600 (2003) 86100 39800 41900 45200 50200 68200 101000 130000 167000 211000
2026-04-18 13:00 12.00 76600 262000 (1999) 35600 (2003) 86100 39800 41900 45200 50200 68200 101000 130000 167000 211000
2026-04-18 12:00 11.84 75300 262000 (1999) 35600 (2003) 86100 39800 41900 45200 50200 68200 101000 130000 167000 211000
2026-04-18 11:00 11.71 74300 262000 (1999) 35600 (2003) 86100 39800 41900 45200 50200 68200 101000 130000 167000 211000
2026-04-18 10:00 11.61 73500 262000 (1999) 35600 (2003) 86100 39800 41900 45200 50200 68200 101000 130000 167000 211000
2026-04-18 09:00 11.50 72600 262000 (1999) 35600 (2003) 86100 39800 41900 45200 50200 68200 101000 130000 167000 211000
2026-04-18 08:00 11.42 72000 262000 (1999) 35600 (2003) 86100 39800 41900 45200 50200 68200 101000 130000 167000 211000
2026-04-18 07:00 11.36 71500 262000 (1999) 35600 (2003) 86100 39800 41900 45200 50200 68200 101000 130000 167000 211000
2026-04-18 06:00 11.30 71100 262000 (1999) 35600 (2003) 86100 39800 41900 45200 50200 68200 101000 130000 167000 211000
2026-04-18 05:00 11.26 70700 262000 (1999) 35600 (2003) 86100 39800 41900 45200 50200 68200 101000 130000 167000 211000
2026-04-18 04:00 11.23 70500 262000 (1999) 35600 (2003) 86100 39800 41900 45200 50200 68200 101000 130000 167000 211000
2026-04-18 03:00 11.20 70300 262000 (1999) 35600 (2003) 86100 39800 41900 45200 50200 68200 101000 130000 167000 211000
2026-04-18 02:00 11.17 70100 262000 (1999) 35600 (2003) 86100 39800 41900 45200 50200 68200 101000 130000 167000 211000
2026-04-18 01:00 11.14 69800 262000 (1999) 35600 (2003) 86100 39800 41900 45200 50200 68200 101000 130000 167000 211000
2026-04-18 00:00 11.04 69100 262000 (1999) 35600 (2003) 86100 39800 41900 45200 50200 68200 101000 130000 167000 211000
2026-04-17 23:00 11.07 69300 262000 (1999) 35600 (2003) 86100 39800 41900 45200 50200 68200 101000 130000 167000 211000
2026-04-17 22:00 11.03 69000 248000 (1999) 35200 (2003) 85200 39400 42000 47300 50000 66700 101000 124000 162000 214000
2026-04-17 21:00 10.99 68700 248000 (1999) 35200 (2003) 85200 39400 42000 47300 50000 66700 101000 124000 162000 214000
2026-04-17 20:00 10.99 68700 248000 (1999) 35200 (2003) 85200 39400 42000 47300 50000 66700 101000 124000 162000 214000
2026-04-17 19:00 10.99 68700 248000 (1999) 35200 (2003) 85200 39400 42000 47300 50000 66700 101000 124000 162000 214000
2026-04-17 18:00 11.01 68800 248000 (1999) 35200 (2003) 85200 39400 42000 47300 50000 66700 101000 124000 162000 214000
2026-04-17 17:00 11.00 68800 248000 (1999) 35200 (2003) 85200 39400 42000 47300 50000 66700 101000 124000 162000 214000
2026-04-17 16:00 11.03 69000 248000 (1999) 35200 (2003) 85200 39400 42000 47300 50000 66700 101000 124000 162000 214000
2026-04-17 15:00 11.07 69300 248000 (1999) 35200 (2003) 85200 39400 42000 47300 50000 66700 101000 124000 162000 214000
2026-04-17 14:00 11.05 69100 248000 (1999) 35200 (2003) 85200 39400 42000 47300 50000 66700 101000 124000 162000 214000
2026-04-17 13:00 11.10 69500 248000 (1999) 35200 (2003) 85200 39400 42000 47300 50000 66700 101000 124000 162000 214000
2026-04-17 12:00 11.13 69800 248000 (1999) 35200 (2003) 85200 39400 42000 47300 50000 66700 101000 124000 162000 214000
2026-04-17 11:00 11.16 70000 248000 (1999) 35200 (2003) 85200 39400 42000 47300 50000 66700 101000 124000 162000 214000
2026-04-17 10:00 11.17 70100 248000 (1999) 35200 (2003) 85200 39400 42000 47300 50000 66700 101000 124000 162000 214000
2026-04-17 09:00 11.18 70100 248000 (1999) 35200 (2003) 85200 39400 42000 47300 50000 66700 101000 124000 162000 214000
2026-04-17 08:00 11.20 70300 248000 (1999) 35200 (2003) 85200 39400 42000 47300 50000 66700 101000 124000 162000 214000
2026-04-17 07:00 11.21 70400 248000 (1999) 35200 (2003) 85200 39400 42000 47300 50000 66700 101000 124000 162000 214000
2026-04-17 06:00 11.22 70400 248000 (1999) 35200 (2003) 85200 39400 42000 47300 50000 66700 101000 124000 162000 214000
2026-04-17 05:00 11.23 70500 248000 (1999) 35200 (2003) 85200 39400 42000 47300 50000 66700 101000 124000 162000 214000
2026-04-17 04:00 11.26 70700 248000 (1999) 35200 (2003) 85200 39400 42000 47300 50000 66700 101000 124000 162000 214000
2026-04-17 03:00 11.29 71000 248000 (1999) 35200 (2003) 85200 39400 42000 47300 50000 66700 101000 124000 162000 214000
2026-04-17 02:00 11.33 71300 248000 (1999) 35200 (2003) 85200 39400 42000 47300 50000 66700 101000 124000 162000 214000
2026-04-17 01:00 11.32 71200 248000 (1999) 35200 (2003) 85200 39400 42000 47300 50000 66700 101000 124000 162000 214000
2026-04-17 00:00 11.29 71000 248000 (1999) 35200 (2003) 85200 39400 42000 47300 50000 66700 101000 124000 162000 214000
2026-04-16 23:00 11.42 72000 248000 (1999) 35200 (2003) 85200 39400 42000 47300 50000 66700 101000 124000 162000 214000
2026-04-16 22:00 11.45 72200 235000 (1997) 35200 (2003) 85400 38700 41800 47300 49700 66900 107000 119000 159000 199000
2026-04-16 21:00 11.50 72600 235000 (1997) 35200 (2003) 85400 38700 41800 47300 49700 66900 107000 119000 159000 199000
2026-04-16 20:00 11.54 72900 235000 (1997) 35200 (2003) 85400 38700 41800 47300 49700 66900 107000 119000 159000 199000
2026-04-16 19:00 11.58 73200 235000 (1997) 35200 (2003) 85400 38700 41800 47300 49700 66900 107000 119000 159000 199000
2026-04-16 18:00 11.63 73600 235000 (1997) 35200 (2003) 85400 38700 41800 47300 49700 66900 107000 119000 159000 199000
2026-04-16 17:00 11.69 74100 235000 (1997) 35200 (2003) 85400 38700 41800 47300 49700 66900 107000 119000 159000 199000
2026-04-16 16:00 11.76 74700 235000 (1997) 35200 (2003) 85400 38700 41800 47300 49700 66900 107000 119000 159000 199000
2026-04-16 15:00 11.81 75100 235000 (1997) 35200 (2003) 85400 38700 41800 47300 49700 66900 107000 119000 159000 199000
2026-04-16 14:00 11.87 75500 235000 (1997) 35200 (2003) 85400 38700 41800 47300 49700 66900 107000 119000 159000 199000
2026-04-16 13:00 11.92 75900 235000 (1997) 35200 (2003) 85400 38700 41800 47300 49700 66900 107000 119000 159000 199000
2026-04-16 12:00 12.00 76600 235000 (1997) 35200 (2003) 85400 38700 41800 47300 49700 66900 107000 119000 159000 199000
2026-04-16 11:00 12.04 76900 235000 (1997) 35200 (2003) 85400 38700 41800 47300 49700 66900 107000 119000 159000 199000
2026-04-16 10:00 12.15 77800 235000 (1997) 35200 (2003) 85400 38700 41800 47300 49700 66900 107000 119000 159000 199000
2026-04-16 09:00 12.23 78500 235000 (1997) 35200 (2003) 85400 38700 41800 47300 49700 66900 107000 119000 159000 199000
2026-04-16 08:00 12.31 79200 235000 (1997) 35200 (2003) 85400 38700 41800 47300 49700 66900 107000 119000 159000 199000
2026-04-16 07:00 12.39 79800 235000 (1997) 35200 (2003) 85400 38700 41800 47300 49700 66900 107000 119000 159000 199000
2026-04-16 06:00 12.48 80600 235000 (1997) 35200 (2003) 85400 38700 41800 47300 49700 66900 107000 119000 159000 199000
2026-04-16 05:00 12.56 81300 235000 (1997) 35200 (2003) 85400 38700 41800 47300 49700 66900 107000 119000 159000 199000
2026-04-16 04:00 12.65 82000 235000 (1997) 35200 (2003) 85400 38700 41800 47300 49700 66900 107000 119000 159000 199000
2026-04-16 03:00 12.75 82900 235000 (1997) 35200 (2003) 85400 38700 41800 47300 49700 66900 107000 119000 159000 199000
2026-04-16 02:00 12.83 83700 235000 (1997) 35200 (2003) 85400 38700 41800 47300 49700 66900 107000 119000 159000 199000
2026-04-16 01:00 12.93 84600 235000 (1997) 35200 (2003) 85400 38700 41800 47300 49700 66900 107000 119000 159000 199000
2026-04-16 00:00 13.03 85500 235000 (1997) 35200 (2003) 85400 38700 41800 47300 49700 66900 107000 119000 159000 199000
2026-04-15 23:00 13.13 86400 235000 (1997) 35200 (2003) 85400 38700 41800 47300 49700 66900 107000 119000 159000 199000
2026-04-15 22:00 13.23 87400 257000 (1997) 35200 (2003) 85900 38700 40900 47800 49600 70600 112000 125000 149000 180000
2026-04-15 21:00 13.33 88300 257000 (1997) 35200 (2003) 85900 38700 40900 47800 49600 70600 112000 125000 149000 180000
2026-04-15 20:00 13.43 89200 257000 (1997) 35200 (2003) 85900 38700 40900 47800 49600 70600 112000 125000 149000 180000
2026-04-15 19:00 13.47 89600 257000 (1997) 35200 (2003) 85900 38700 40900 47800 49600 70600 112000 125000 149000 180000
2026-04-15 18:00 13.59 90800 257000 (1997) 35200 (2003) 85900 38700 40900 47800 49600 70600 112000 125000 149000 180000
2026-04-15 17:00 13.69 91800 257000 (1997) 35200 (2003) 85900 38700 40900 47800 49600 70600 112000 125000 149000 180000
2026-04-15 16:00 13.80 92800 257000 (1997) 35200 (2003) 85900 38700 40900 47800 49600 70600 112000 125000 149000 180000
2026-04-15 15:00 13.90 93800 257000 (1997) 35200 (2003) 85900 38700 40900 47800 49600 70600 112000 125000 149000 180000
2026-04-15 14:00 13.97 94500 257000 (1997) 35200 (2003) 85900 38700 40900 47800 49600 70600 112000 125000 149000 180000
2026-04-15 13:00 14.06 95400 257000 (1997) 35200 (2003) 85900 38700 40900 47800 49600 70600 112000 125000 149000 180000
2026-04-15 12:00 14.13 96100 257000 (1997) 35200 (2003) 85900 38700 40900 47800 49600 70600 112000 125000 149000 180000
2026-04-15 11:00 14.20 96800 257000 (1997) 35200 (2003) 85900 38700 40900 47800 49600 70600 112000 125000 149000 180000
2026-04-15 10:00 14.23 97100 257000 (1997) 35200 (2003) 85900 38700 40900 47800 49600 70600 112000 125000 149000 180000
2026-04-15 09:00 14.30 97800 257000 (1997) 35200 (2003) 85900 38700 40900 47800 49600 70600 112000 125000 149000 180000
2026-04-15 08:00 14.32 98000 257000 (1997) 35200 (2003) 85900 38700 40900 47800 49600 70600 112000 125000 149000 180000
2026-04-15 07:00 14.39 98700 257000 (1997) 35200 (2003) 85900 38700 40900 47800 49600 70600 112000 125000 149000 180000
2026-04-15 06:00 14.40 98800 257000 (1997) 35200 (2003) 85900 38700 40900 47800 49600 70600 112000 125000 149000 180000
2026-04-15 05:00 14.43 99100 257000 (1997) 35200 (2003) 85900 38700 40900 47800 49600 70600 112000 125000 149000 180000
2026-04-15 04:00 14.43 99100 257000 (1997) 35200 (2003) 85900 38700 40900 47800 49600 70600 112000 125000 149000 180000
2026-04-15 03:00 14.43 99100 257000 (1997) 35200 (2003) 85900 38700 40900 47800 49600 70600 112000 125000 149000 180000
2026-04-15 02:00 14.41 98900 257000 (1997) 35200 (2003) 85900 38700 40900 47800 49600 70600 112000 125000 149000 180000
2026-04-15 01:00 14.39 98700 257000 (1997) 35200 (2003) 85900 38700 40900 47800 49600 70600 112000 125000 149000 180000
2026-04-15 00:00 14.42 99000 257000 (1997) 35200 (2003) 85900 38700 40900 47800 49600 70600 112000 125000 149000 180000
2026-04-14 23:00 14.36 98400 257000 (1997) 35200 (2003) 85900 38700 40900 47800 49600 70600 112000 125000 149000 180000
2026-04-14 22:00 14.39 98700 277000 (1997) 36000 (2003) 86900 38100 41300 45300 50100 66600 125000 129000 158000 185000
2026-04-14 21:00 14.38 98600 277000 (1997) 36000 (2003) 86900 38100 41300 45300 50100 66600 125000 129000 158000 185000
2026-04-14 20:00 14.34 98200 277000 (1997) 36000 (2003) 86900 38100 41300 45300 50100 66600 125000 129000 158000 185000
2026-04-14 19:00 14.29 97700 277000 (1997) 36000 (2003) 86900 38100 41300 45300 50100 66600 125000 129000 158000 185000
2026-04-14 18:00 14.17 96500 277000 (1997) 36000 (2003) 86900 38100 41300 45300 50100 66600 125000 129000 158000 185000
2026-04-14 17:00 14.15 96300 277000 (1997) 36000 (2003) 86900 38100 41300 45300 50100 66600 125000 129000 158000 185000
2026-04-14 16:00 14.09 93200 277000 (1997) 36000 (2003) 86900 38100 41300 45300 50100 66600 125000 129000 158000 185000
2026-04-14 15:00 13.96 92000 277000 (1997) 36000 (2003) 86900 38100 41300 45300 50100 66600 125000 129000 158000 185000
2026-04-14 14:00 13.87 91100 277000 (1997) 36000 (2003) 86900 38100 41300 45300 50100 66600 125000 129000 158000 185000
2026-04-14 13:00 13.75 89900 277000 (1997) 36000 (2003) 86900 38100 41300 45300 50100 66600 125000 129000 158000 185000
2026-04-14 12:00 13.62 88700 277000 (1997) 36000 (2003) 86900 38100 41300 45300 50100 66600 125000 129000 158000 185000
2026-04-14 10:00 13.46 87200 277000 (1997) 36000 (2003) 86900 38100 41300 45300 50100 66600 125000 129000 158000 185000
2026-04-14 09:00 13.32 85900 277000 (1997) 36000 (2003) 86900 38100 41300 45300 50100 66600 125000 129000 158000 185000
2026-04-14 08:00 13.17 84500 277000 (1997) 36000 (2003) 86900 38100 41300 45300 50100 66600 125000 129000 158000 185000
2026-04-14 07:00 13.03 83200 277000 (1997) 36000 (2003) 86900 38100 41300 45300 50100 66600 125000 129000 158000 185000
2026-04-14 06:00 12.88 81900 277000 (1997) 36000 (2003) 86900 38100 41300 45300 50100 66600 125000 129000 158000 185000
2026-04-14 05:00 12.72 80500 277000 (1997) 36000 (2003) 86900 38100 41300 45300 50100 66600 125000 129000 158000 185000
2026-04-14 04:00 12.57 79200 277000 (1997) 36000 (2003) 86900 38100 41300 45300 50100 66600 125000 129000 158000 185000
2026-04-14 03:00 12.41 77900 277000 (1997) 36000 (2003) 86900 38100 41300 45300 50100 66600 125000 129000 158000 185000
2026-04-14 02:00 12.27 76800 277000 (1997) 36000 (2003) 86900 38100 41300 45300 50100 66600 125000 129000 158000 185000
2026-04-14 01:00 12.10 75400 277000 (1997) 36000 (2003) 86900 38100 41300 45300 50100 66600 125000 129000 158000 185000
2026-04-14 00:00 11.93 74000 277000 (1997) 36000 (2003) 86900 38100 41300 45300 50100 66600 125000 129000 158000 185000
2026-04-13 23:00 11.75 72600 277000 (1997) 36000 (2003) 86900 38100 41300 45300 50100 66600 125000 129000 158000 185000
2026-04-13 22:00 11.58 71300 274000 (1997) 35000 (1964) 87000 38100 39900 44000 47800 62500 121000 137000 169000 190000
2026-04-13 21:00 11.42 70100 274000 (1997) 35000 (1964) 87000 38100 39900 44000 47800 62500 121000 137000 169000 190000
2026-04-13 20:00 11.25 68800 274000 (1997) 35000 (1964) 87000 38100 39900 44000 47800 62500 121000 137000 169000 190000
2026-04-13 19:00 11.13 67900 274000 (1997) 35000 (1964) 87000 38100 39900 44000 47800 62500 121000 137000 169000 190000
2026-04-13 18:00 10.95 66500 274000 (1997) 35000 (1964) 87000 38100 39900 44000 47800 62500 121000 137000 169000 190000
2026-04-13 17:00 10.79 65400 274000 (1997) 35000 (1964) 87000 38100 39900 44000 47800 62500 121000 137000 169000 190000
2026-04-13 16:00 10.66 64500 274000 (1997) 35000 (1964) 87000 38100 39900 44000 47800 62500 121000 137000 169000 190000
2026-04-13 15:00 10.54 63600 274000 (1997) 35000 (1964) 87000 38100 39900 44000 47800 62500 121000 137000 169000 190000
2026-04-13 14:00 10.45 63000 274000 (1997) 35000 (1964) 87000 38100 39900 44000 47800 62500 121000 137000 169000 190000
2026-04-13 13:00 10.35 62300 274000 (1997) 35000 (1964) 87000 38100 39900 44000 47800 62500 121000 137000 169000 190000
2026-04-13 12:00 10.26 61600 274000 (1997) 35000 (1964) 87000 38100 39900 44000 47800 62500 121000 137000 169000 190000
2026-04-13 11:00 10.21 61300 274000 (1997) 35000 (1964) 87000 38100 39900 44000 47800 62500 121000 137000 169000 190000
2026-04-13 10:00 10.13 60800 274000 (1997) 35000 (1964) 87000 38100 39900 44000 47800 62500 121000 137000 169000 190000
2026-04-13 09:00 10.12 60700 274000 (1997) 35000 (1964) 87000 38100 39900 44000 47800 62500 121000 137000 169000 190000
2026-04-13 08:00 10.08 60400 274000 (1997) 35000 (1964) 87000 38100 39900 44000 47800 62500 121000 137000 169000 190000
2026-04-13 07:00 10.04 60100 274000 (1997) 35000 (1964) 87000 38100 39900 44000 47800 62500 121000 137000 169000 190000
2026-04-13 06:00 10.01 59900 274000 (1997) 35000 (1964) 87000 38100 39900 44000 47800 62500 121000 137000 169000 190000
2026-04-13 05:00 1 59900 274000 (1997) 35000 (1964) 87000 38100 39900 44000 47800 62500 121000 137000 169000 190000
2026-04-13 04:00 9.99 59800 274000 (1997) 35000 (1964) 87000 38100 39900 44000 47800 62500 121000 137000 169000 190000
2026-04-13 03:00 1 59900 274000 (1997) 35000 (1964) 87000 38100 39900 44000 47800 62500 121000 137000 169000 190000
2026-04-13 02:00 1 59900 274000 (1997) 35000 (1964) 87000 38100 39900 44000 47800 62500 121000 137000 169000 190000
2026-04-13 01:00 9.99 59800 274000 (1997) 35000 (1964) 87000 38100 39900 44000 47800 62500 121000 137000 169000 190000
2026-04-13 00:00 1 59900 274000 (1997) 35000 (1964) 87000 38100 39900 44000 47800 62500 121000 137000 169000 190000
2026-04-12 23:00 10.02 60000 274000 (1997) 35000 (1964) 87000 38100 39900 44000 47800 62500 121000 137000 169000 190000
2026-04-12 22:00 10.04 60100 234000 (1997) 36300 (2003) 88200 37800 39900 44400 47700 62700 121000 141000 176000 190000
2026-04-12 21:00 10.05 60200 234000 (1997) 36300 (2003) 88200 37800 39900 44400 47700 62700 121000 141000 176000 190000
2026-04-12 20:00 10.06 60300 234000 (1997) 36300 (2003) 88200 37800 39900 44400 47700 62700 121000 141000 176000 190000
2026-04-12 19:00 10.05 60200 234000 (1997) 36300 (2003) 88200 37800 39900 44400 47700 62700 121000 141000 176000 190000
2026-04-12 18:00 10.08 60400 234000 (1997) 36300 (2003) 88200 37800 39900 44400 47700 62700 121000 141000 176000 190000
2026-04-12 17:00 10.07 60400 234000 (1997) 36300 (2003) 88200 37800 39900 44400 47700 62700 121000 141000 176000 190000
2026-04-12 16:00 10.04 60100 234000 (1997) 36300 (2003) 88200 37800 39900 44400 47700 62700 121000 141000 176000 190000
2026-04-12 15:00 10.02 60000 234000 (1997) 36300 (2003) 88200 37800 39900 44400 47700 62700 121000 141000 176000 190000
2026-04-12 14:00 10.05 60200 234000 (1997) 36300 (2003) 88200 37800 39900 44400 47700 62700 121000 141000 176000 190000
2026-04-12 13:00 9.90 59200 234000 (1997) 36300 (2003) 88200 37800 39900 44400 47700 62700 121000 141000 176000 190000
2026-04-12 12:00 10.01 59900 234000 (1997) 36300 (2003) 88200 37800 39900 44400 47700 62700 121000 141000 176000 190000
2026-04-12 11:00 1 59900 234000 (1997) 36300 (2003) 88200 37800 39900 44400 47700 62700 121000 141000 176000 190000
2026-04-12 10:00 9.97 59700 234000 (1997) 36300 (2003) 88200 37800 39900 44400 47700 62700 121000 141000 176000 190000
2026-04-12 09:00 9.94 59500 234000 (1997) 36300 (2003) 88200 37800 39900 44400 47700 62700 121000 141000 176000 190000
2026-04-12 08:00 9.88 59100 234000 (1997) 36300 (2003) 88200 37800 39900 44400 47700 62700 121000 141000 176000 190000
2026-04-12 07:00 9.85 58900 234000 (1997) 36300 (2003) 88200 37800 39900 44400 47700 62700 121000 141000 176000 190000
2026-04-12 06:00 9.82 58700 234000 (1997) 36300 (2003) 88200 37800 39900 44400 47700 62700 121000 141000 176000 190000
2026-04-12 05:00 9.77 58300 234000 (1997) 36300 (2003) 88200 37800 39900 44400 47700 62700 121000 141000 176000 190000
2026-04-12 04:00 9.71 57900 234000 (1997) 36300 (2003) 88200 37800 39900 44400 47700 62700 121000 141000 176000 190000
2026-04-12 03:00 9.65 57600 234000 (1997) 36300 (2003) 88200 37800 39900 44400 47700 62700 121000 141000 176000 190000
2026-04-12 02:00 9.61 57300 234000 (1997) 36300 (2003) 88200 37800 39900 44400 47700 62700 121000 141000 176000 190000
2026-04-12 01:00 9.55 56900 234000 (1997) 36300 (2003) 88200 37800 39900 44400 47700 62700 121000 141000 176000 190000
2026-04-12 00:00 9.50 56600 234000 (1997) 36300 (2003) 88200 37800 39900 44400 47700 62700 121000 141000 176000 190000
2026-04-11 23:00 9.43 56100 234000 (1997) 36300 (2003) 88200 37800 39900 44400 47700 62700 121000 141000 176000 190000
2026-04-11 22:00 9.37 55700 225000 (1960) 35500 (2003) 85800 38000 40500 43700 45200 62300 124000 132000 158000 187000
2026-04-11 21:00 9.30 55300 225000 (1960) 35500 (2003) 85800 38000 40500 43700 45200 62300 124000 132000 158000 187000
2026-04-11 20:00 9.22 54800 225000 (1960) 35500 (2003) 85800 38000 40500 43700 45200 62300 124000 132000 158000 187000
2026-04-11 19:00 9.16 54400 225000 (1960) 35500 (2003) 85800 38000 40500 43700 45200 62300 124000 132000 158000 187000
2026-04-11 18:00 9.10 54000 225000 (1960) 35500 (2003) 85800 38000 40500 43700 45200 62300 124000 132000 158000 187000
2026-04-11 17:00 9.06 53800 225000 (1960) 35500 (2003) 85800 38000 40500 43700 45200 62300 124000 132000 158000 187000
2026-04-11 16:00 9.02 53600 225000 (1960) 35500 (2003) 85800 38000 40500 43700 45200 62300 124000 132000 158000 187000
2026-04-11 15:00 8.92 53000 225000 (1960) 35500 (2003) 85800 38000 40500 43700 45200 62300 124000 132000 158000 187000
2026-04-11 14:00 8.91 52900 225000 (1960) 35500 (2003) 85800 38000 40500 43700 45200 62300 124000 132000 158000 187000
2026-04-11 13:00 8.86 52600 225000 (1960) 35500 (2003) 85800 38000 40500 43700 45200 62300 124000 132000 158000 187000
2026-04-11 12:00 8.83 52400 225000 (1960) 35500 (2003) 85800 38000 40500 43700 45200 62300 124000 132000 158000 187000
2026-04-11 11:00 8.77 52100 225000 (1960) 35500 (2003) 85800 38000 40500 43700 45200 62300 124000 132000 158000 187000
2026-04-11 10:00 8.72 51800 225000 (1960) 35500 (2003) 85800 38000 40500 43700 45200 62300 124000 132000 158000 187000
2026-04-11 09:00 8.66 51400 225000 (1960) 35500 (2003) 85800 38000 40500 43700 45200 62300 124000 132000 158000 187000
2026-04-11 08:00 8.63 51200 225000 (1960) 35500 (2003) 85800 38000 40500 43700 45200 62300 124000 132000 158000 187000
2026-04-11 07:00 8.63 51200 225000 (1960) 35500 (2003) 85800 38000 40500 43700 45200 62300 124000 132000 158000 187000
2026-04-11 06:00 8.57 50900 225000 (1960) 35500 (2003) 85800 38000 40500 43700 45200 62300 124000 132000 158000 187000
2026-04-11 05:00 8.52 50600 225000 (1960) 35500 (2003) 85800 38000 40500 43700 45200 62300 124000 132000 158000 187000
2026-04-11 04:00 8.50 50500 225000 (1960) 35500 (2003) 85800 38000 40500 43700 45200 62300 124000 132000 158000 187000
2026-04-11 03:00 8.49 50400 225000 (1960) 35500 (2003) 85800 38000 40500 43700 45200 62300 124000 132000 158000 187000
2026-04-11 02:00 8.51 50500 225000 (1960) 35500 (2003) 85800 38000 40500 43700 45200 62300 124000 132000 158000 187000
2026-04-11 01:00 8.48 50400 225000 (1960) 35500 (2003) 85800 38000 40500 43700 45200 62300 124000 132000 158000 187000
2026-04-11 00:00 8.50 50500 225000 (1960) 35500 (2003) 85800 38000 40500 43700 45200 62300 124000 132000 158000 187000
2026-04-10 23:00 8.48 50400 225000 (1960) 35500 (2003) 85800 38000 40500 43700 45200 62300 124000 132000 158000 187000
2026-04-10 22:00 8.44 50100 241000 (1983) 34900 (2003) 82200 38100 40200 44300 45500 61400 103000 122000 157000 187000
2026-04-10 21:00 8.40 49900 241000 (1983) 34900 (2003) 82200 38100 40200 44300 45500 61400 103000 122000 157000 187000
2026-04-10 20:00 8.43 50100 241000 (1983) 34900 (2003) 82200 38100 40200 44300 45500 61400 103000 122000 157000 187000
2026-04-10 19:00 8.44 50100 241000 (1983) 34900 (2003) 82200 38100 40200 44300 45500 61400 103000 122000 157000 187000
2026-04-10 18:00 8.41 50000 241000 (1983) 34900 (2003) 82200 38100 40200 44300 45500 61400 103000 122000 157000 187000
2026-04-10 17:00 8.45 50200 241000 (1983) 34900 (2003) 82200 38100 40200 44300 45500 61400 103000 122000 157000 187000
2026-04-10 16:00 8.42 50000 241000 (1983) 34900 (2003) 82200 38100 40200 44300 45500 61400 103000 122000 157000 187000
2026-04-10 15:00 8.44 50100 241000 (1983) 34900 (2003) 82200 38100 40200 44300 45500 61400 103000 122000 157000 187000
2026-04-10 14:00 8.42 50000 241000 (1983) 34900 (2003) 82200 38100 40200 44300 45500 61400 103000 122000 157000 187000
2026-04-10 13:00 8.44 50100 241000 (1983) 34900 (2003) 82200 38100 40200 44300 45500 61400 103000 122000 157000 187000
2026-04-10 12:00 8.46 50200 241000 (1983) 34900 (2003) 82200 38100 40200 44300 45500 61400 103000 122000 157000 187000
2026-04-10 11:00 8.44 50100 241000 (1983) 34900 (2003) 82200 38100 40200 44300 45500 61400 103000 122000 157000 187000
2026-04-10 10:00 8.42 50000 241000 (1983) 34900 (2003) 82200 38100 40200 44300 45500 61400 103000 122000 157000 187000
2026-04-10 09:00 8.46 50200 241000 (1983) 34900 (2003) 82200 38100 40200 44300 45500 61400 103000 122000 157000 187000
2026-04-10 08:00 8.42 50000 241000 (1983) 34900 (2003) 82200 38100 40200 44300 45500 61400 103000 122000 157000 187000
2026-04-10 07:00 8.48 50400 241000 (1983) 34900 (2003) 82200 38100 40200 44300 45500 61400 103000 122000 157000 187000
2026-04-10 06:00 8.48 50400 241000 (1983) 34900 (2003) 82200 38100 40200 44300 45500 61400 103000 122000 157000 187000
2026-04-10 05:00 8.45 50200 241000 (1983) 34900 (2003) 82200 38100 40200 44300 45500 61400 103000 122000 157000 187000
2026-04-10 04:00 8.46 50200 241000 (1983) 34900 (2003) 82200 38100 40200 44300 45500 61400 103000 122000 157000 187000
2026-04-10 03:00 8.46 50200 241000 (1983) 34900 (2003) 82200 38100 40200 44300 45500 61400 103000 122000 157000 187000
2026-04-10 02:00 8.46 50200 241000 (1983) 34900 (2003) 82200 38100 40200 44300 45500 61400 103000 122000 157000 187000
2026-04-10 01:00 8.46 50200 241000 (1983) 34900 (2003) 82200 38100 40200 44300 45500 61400 103000 122000 157000 187000
2026-04-10 00:00 8.46 50200 241000 (1983) 34900 (2003) 82200 38100 40200 44300 45500 61400 103000 122000 157000 187000
2026-04-09 23:00 8.46 50200 241000 (1983) 34900 (2003) 82200 38100 40200 44300 45500 61400 103000 122000 157000 187000
2026-04-09 22:00 8.45 50200 270000 (1983) 34700 (2003) 82400 39000 40800 45400 49800 59900 106000 121000 154000 188000
2026-04-09 21:00 8.46 50200 270000 (1983) 34700 (2003) 82400 39000 40800 45400 49800 59900 106000 121000 154000 188000
2026-04-09 20:00 8.48 50400 270000 (1983) 34700 (2003) 82400 39000 40800 45400 49800 59900 106000 121000 154000 188000
2026-04-09 19:00 8.49 50400 270000 (1983) 34700 (2003) 82400 39000 40800 45400 49800 59900 106000 121000 154000 188000
2026-04-09 18:00 8.49 50400 270000 (1983) 34700 (2003) 82400 39000 40800 45400 49800 59900 106000 121000 154000 188000
2026-04-09 17:00 8.48 50400 270000 (1983) 34700 (2003) 82400 39000 40800 45400 49800 59900 106000 121000 154000 188000
2026-04-09 16:00 8.49 50400 270000 (1983) 34700 (2003) 82400 39000 40800 45400 49800 59900 106000 121000 154000 188000
2026-04-09 15:00 8.47 50300 270000 (1983) 34700 (2003) 82400 39000 40800 45400 49800 59900 106000 121000 154000 188000
2026-04-09 14:00 8.50 50500 270000 (1983) 34700 (2003) 82400 39000 40800 45400 49800 59900 106000 121000 154000 188000
2026-04-09 13:00 8.46 50200 270000 (1983) 34700 (2003) 82400 39000 40800 45400 49800 59900 106000 121000 154000 188000
2026-04-09 12:00 8.50 50500 270000 (1983) 34700 (2003) 82400 39000 40800 45400 49800 59900 106000 121000 154000 188000
2026-04-09 11:00 8.48 50400 270000 (1983) 34700 (2003) 82400 39000 40800 45400 49800 59900 106000 121000 154000 188000
2026-04-09 10:00 8.52 50600 270000 (1983) 34700 (2003) 82400 39000 40800 45400 49800 59900 106000 121000 154000 188000
2026-04-09 09:00 8.52 50600 270000 (1983) 34700 (2003) 82400 39000 40800 45400 49800 59900 106000 121000 154000 188000
2026-04-09 08:00 8.53 50700 270000 (1983) 34700 (2003) 82400 39000 40800 45400 49800 59900 106000 121000 154000 188000
2026-04-09 07:00 8.55 50800 270000 (1983) 34700 (2003) 82400 39000 40800 45400 49800 59900 106000 121000 154000 188000
2026-04-09 06:00 8.56 50800 270000 (1983) 34700 (2003) 82400 39000 40800 45400 49800 59900 106000 121000 154000 188000
2026-04-09 05:00 8.57 50900 270000 (1983) 34700 (2003) 82400 39000 40800 45400 49800 59900 106000 121000 154000 188000
2026-04-09 04:00 8.58 50900 270000 (1983) 34700 (2003) 82400 39000 40800 45400 49800 59900 106000 121000 154000 188000
2026-04-09 03:00 8.59 51000 270000 (1983) 34700 (2003) 82400 39000 40800 45400 49800 59900 106000 121000 154000 188000
2026-04-09 02:00 8.60 51100 270000 (1983) 34700 (2003) 82400 39000 40800 45400 49800 59900 106000 121000 154000 188000
2026-04-09 01:00 8.60 51100 270000 (1983) 34700 (2003) 82400 39000 40800 45400 49800 59900 106000 121000 154000 188000
2026-04-09 00:00 8.61 51100 270000 (1983) 34700 (2003) 82400 39000 40800 45400 49800 59900 106000 121000 154000 188000
2026-04-08 23:00 8.62 51200 270000 (1983) 34700 (2003) 82400 39000 40800 45400 49800 59900 106000 121000 154000 188000
2026-04-08 22:00 8.63 51200 297000 (1983) 33800 (2003) 84600 39700 41100 46900 48500 61000 114000 126000 157000 191000
2026-04-08 21:00 8.64 51300 297000 (1983) 33800 (2003) 84600 39700 41100 46900 48500 61000 114000 126000 157000 191000
2026-04-08 20:00 8.65 51400 297000 (1983) 33800 (2003) 84600 39700 41100 46900 48500 61000 114000 126000 157000 191000
2026-04-08 19:00 8.67 51500 297000 (1983) 33800 (2003) 84600 39700 41100 46900 48500 61000 114000 126000 157000 191000
2026-04-08 18:00 8.69 51600 297000 (1983) 33800 (2003) 84600 39700 41100 46900 48500 61000 114000 126000 157000 191000
2026-04-08 17:00 8.69 51600 297000 (1983) 33800 (2003) 84600 39700 41100 46900 48500 61000 114000 126000 157000 191000
2026-04-08 16:00 8.74 51900 297000 (1983) 33800 (2003) 84600 39700 41100 46900 48500 61000 114000 126000 157000 191000
2026-04-08 15:00 8.77 52100 297000 (1983) 33800 (2003) 84600 39700 41100 46900 48500 61000 114000 126000 157000 191000
2026-04-08 14:00 8.78 52100 297000 (1983) 33800 (2003) 84600 39700 41100 46900 48500 61000 114000 126000 157000 191000
2026-04-08 13:00 8.83 52400 297000 (1983) 33800 (2003) 84600 39700 41100 46900 48500 61000 114000 126000 157000 191000
2026-04-08 12:00 8.88 52700 297000 (1983) 33800 (2003) 84600 39700 41100 46900 48500 61000 114000 126000 157000 191000
2026-04-08 11:00 8.96 53200 297000 (1983) 33800 (2003) 84600 39700 41100 46900 48500 61000 114000 126000 157000 191000
2026-04-08 10:00 9.02 53600 297000 (1983) 33800 (2003) 84600 39700 41100 46900 48500 61000 114000 126000 157000 191000
2026-04-08 09:00 9.10 54000 297000 (1983) 33800 (2003) 84600 39700 41100 46900 48500 61000 114000 126000 157000 191000
2026-04-08 08:00 9.18 54500 297000 (1983) 33800 (2003) 84600 39700 41100 46900 48500 61000 114000 126000 157000 191000
2026-04-08 07:00 9.23 54900 297000 (1983) 33800 (2003) 84600 39700 41100 46900 48500 61000 114000 126000 157000 191000
2026-04-08 06:00 9.32 55400 297000 (1983) 33800 (2003) 84600 39700 41100 46900 48500 61000 114000 126000 157000 191000
2026-04-08 05:00 9.40 55900 297000 (1983) 33800 (2003) 84600 39700 41100 46900 48500 61000 114000 126000 157000 191000
2026-04-08 04:00 9.49 56500 297000 (1983) 33800 (2003) 84600 39700 41100 46900 48500 61000 114000 126000 157000 191000
2026-04-08 03:00 9.57 57000 297000 (1983) 33800 (2003) 84600 39700 41100 46900 48500 61000 114000 126000 157000 191000
2026-04-08 02:00 9.63 57400 297000 (1983) 33800 (2003) 84600 39700 41100 46900 48500 61000 114000 126000 157000 191000
2026-04-08 01:00 9.71 57900 297000 (1983) 33800 (2003) 84600 39700 41100 46900 48500 61000 114000 126000 157000 191000
2026-04-08 00:00 9.77 58300 297000 (1983) 33800 (2003) 84600 39700 41100 46900 48500 61000 114000 126000 157000 191000
2026-04-07 23:00 9.85 58900 297000 (1983) 33800 (2003) 84600 39700 41100 46900 48500 61000 114000 126000 157000 191000
2026-04-07 22:00 9.92 59300 314000 (1983) 33300 (2003) 87800 38700 41800 48000 49700 61900 115000 135000 166000 208000
2026-04-07 21:00 9.96 59600 314000 (1983) 33300 (2003) 87800 38700 41800 48000 49700 61900 115000 135000 166000 208000
2026-04-07 20:00 10.01 59900 314000 (1983) 33300 (2003) 87800 38700 41800 48000 49700 61900 115000 135000 166000 208000
2026-04-07 19:00 10.07 60400 314000 (1983) 33300 (2003) 87800 38700 41800 48000 49700 61900 115000 135000 166000 208000
2026-04-07 18:00 10.13 60800 314000 (1983) 33300 (2003) 87800 38700 41800 48000 49700 61900 115000 135000 166000 208000
2026-04-07 17:00 10.20 61200 314000 (1983) 33300 (2003) 87800 38700 41800 48000 49700 61900 115000 135000 166000 208000
2026-04-07 16:00 10.22 61400 314000 (1983) 33300 (2003) 87800 38700 41800 48000 49700 61900 115000 135000 166000 208000
2026-04-07 15:00 10.28 61800 314000 (1983) 33300 (2003) 87800 38700 41800 48000 49700 61900 115000 135000 166000 208000
2026-04-07 14:00 10.32 62100 314000 (1983) 33300 (2003) 87800 38700 41800 48000 49700 61900 115000 135000 166000 208000
2026-04-07 13:00 10.36 62300 314000 (1983) 33300 (2003) 87800 38700 41800 48000 49700 61900 115000 135000 166000 208000
2026-04-07 12:00 10.38 62500 314000 (1983) 33300 (2003) 87800 38700 41800 48000 49700 61900 115000 135000 166000 208000
2026-04-07 11:00 10.43 62800 314000 (1983) 33300 (2003) 87800 38700 41800 48000 49700 61900 115000 135000 166000 208000
2026-04-07 10:00 10.46 63000 314000 (1983) 33300 (2003) 87800 38700 41800 48000 49700 61900 115000 135000 166000 208000
2026-04-07 09:00 10.46 63000 314000 (1983) 33300 (2003) 87800 38700 41800 48000 49700 61900 115000 135000 166000 208000
2026-04-07 08:00 10.54 63600 314000 (1983) 33300 (2003) 87800 38700 41800 48000 49700 61900 115000 135000 166000 208000
2026-04-07 07:00 10.57 63800 314000 (1983) 33300 (2003) 87800 38700 41800 48000 49700 61900 115000 135000 166000 208000
2026-04-07 06:00 10.61 64100 314000 (1983) 33300 (2003) 87800 38700 41800 48000 49700 61900 115000 135000 166000 208000
2026-04-07 05:00 10.64 64300 314000 (1983) 33300 (2003) 87800 38700 41800 48000 49700 61900 115000 135000 166000 208000
2026-04-07 04:00 10.66 64500 314000 (1983) 33300 (2003) 87800 38700 41800 48000 49700 61900 115000 135000 166000 208000
2026-04-07 03:00 10.70 64700 314000 (1983) 33300 (2003) 87800 38700 41800 48000 49700 61900 115000 135000 166000 208000
2026-04-07 02:00 10.74 65000 314000 (1983) 33300 (2003) 87800 38700 41800 48000 49700 61900 115000 135000 166000 208000
2026-04-07 01:00 10.82 65600 314000 (1983) 33300 (2003) 87800 38700 41800 48000 49700 61900 115000 135000 166000 208000
2026-04-07 00:00 10.88 66000 314000 (1983) 33300 (2003) 87800 38700 41800 48000 49700 61900 115000 135000 166000 208000
2026-04-06 23:00 10.90 66200 314000 (1983) 33300 (2003) 87800 38700 41800 48000 49700 61900 115000 135000 166000 208000
2026-04-06 22:00 10.91 66300 327000 (1960) 33200 (2003) 90600 38800 43100 48000 50700 64500 117000 131000 179000 218000
2026-04-06 21:00 10.98 66800 327000 (1960) 33200 (2003) 90600 38800 43100 48000 50700 64500 117000 131000 179000 218000
2026-04-06 20:00 11.04 67200 327000 (1960) 33200 (2003) 90600 38800 43100 48000 50700 64500 117000 131000 179000 218000
2026-04-06 19:00 11.07 67400 327000 (1960) 33200 (2003) 90600 38800 43100 48000 50700 64500 117000 131000 179000 218000
2026-04-06 18:00 11.11 67700 327000 (1960) 33200 (2003) 90600 38800 43100 48000 50700 64500 117000 131000 179000 218000
2026-04-06 17:00 11.14 68000 327000 (1960) 33200 (2003) 90600 38800 43100 48000 50700 64500 117000 131000 179000 218000
2026-04-06 16:00 11.19 68300 327000 (1960) 33200 (2003) 90600 38800 43100 48000 50700 64500 117000 131000 179000 218000
2026-04-06 15:00 11.23 68600 327000 (1960) 33200 (2003) 90600 38800 43100 48000 50700 64500 117000 131000 179000 218000
2026-04-06 14:00 11.26 68800 327000 (1960) 33200 (2003) 90600 38800 43100 48000 50700 64500 117000 131000 179000 218000
2026-04-06 13:00 11.31 69200 327000 (1960) 33200 (2003) 90600 38800 43100 48000 50700 64500 117000 131000 179000 218000
2026-04-06 12:00 11.34 69400 327000 (1960) 33200 (2003) 90600 38800 43100 48000 50700 64500 117000 131000 179000 218000
2026-04-06 11:00 11.41 70000 327000 (1960) 33200 (2003) 90600 38800 43100 48000 50700 64500 117000 131000 179000 218000
2026-04-06 10:00 11.43 70100 327000 (1960) 33200 (2003) 90600 38800 43100 48000 50700 64500 117000 131000 179000 218000
2026-04-06 09:00 11.51 70700 327000 (1960) 33200 (2003) 90600 38800 43100 48000 50700 64500 117000 131000 179000 218000
2026-04-06 08:00 11.57 71200 327000 (1960) 33200 (2003) 90600 38800 43100 48000 50700 64500 117000 131000 179000 218000
2026-04-06 07:00 11.62 71600 327000 (1960) 33200 (2003) 90600 38800 43100 48000 50700 64500 117000 131000 179000 218000
2026-04-06 06:00 11.67 72000 327000 (1960) 33200 (2003) 90600 38800 43100 48000 50700 64500 117000 131000 179000 218000
2026-04-06 05:00 11.75 72600 327000 (1960) 33200 (2003) 90600 38800 43100 48000 50700 64500 117000 131000 179000 218000
2026-04-06 04:00 11.82 73200 327000 (1960) 33200 (2003) 90600 38800 43100 48000 50700 64500 117000 131000 179000 218000
2026-04-06 03:00 11.91 73900 327000 (1960) 33200 (2003) 90600 38800 43100 48000 50700 64500 117000 131000 179000 218000
2026-04-06 02:00 11.99 74500 327000 (1960) 33200 (2003) 90600 38800 43100 48000 50700 64500 117000 131000 179000 218000
2026-04-06 01:00 12.07 75100 327000 (1960) 33200 (2003) 90600 38800 43100 48000 50700 64500 117000 131000 179000 218000
2026-04-06 00:00 12.18 76000 327000 (1960) 33200 (2003) 90600 38800 43100 48000 50700 64500 117000 131000 179000 218000
2026-04-05 23:00 12.27 76800 327000 (1960) 33200 (2003) 90600 38800 43100 48000 50700 64500 117000 131000 179000 218000
2026-04-05 22:00 12.40 77800 329000 (1960) 33500 (2003) 90300 39000 43900 50400 52900 66600 113000 128000 193000 238000
2026-04-05 21:00 12.50 78700 329000 (1960) 33500 (2003) 90300 39000 43900 50400 52900 66600 113000 128000 193000 238000
2026-04-05 20:00 12.62 79700 329000 (1960) 33500 (2003) 90300 39000 43900 50400 52900 66600 113000 128000 193000 238000
2026-04-05 19:00 12.73 80600 329000 (1960) 33500 (2003) 90300 39000 43900 50400 52900 66600 113000 128000 193000 238000
2026-04-05 18:00 12.85 81600 329000 (1960) 33500 (2003) 90300 39000 43900 50400 52900 66600 113000 128000 193000 238000
2026-04-05 17:00 12.98 82800 329000 (1960) 33500 (2003) 90300 39000 43900 50400 52900 66600 113000 128000 193000 238000
2026-04-05 16:00 13.13 84100 329000 (1960) 33500 (2003) 90300 39000 43900 50400 52900 66600 113000 128000 193000 238000
2026-04-05 15:00 13.27 85400 329000 (1960) 33500 (2003) 90300 39000 43900 50400 52900 66600 113000 128000 193000 238000
2026-04-05 14:00 13.41 86700 329000 (1960) 33500 (2003) 90300 39000 43900 50400 52900 66600 113000 128000 193000 238000
2026-04-05 13:00 13.56 88100 329000 (1960) 33500 (2003) 90300 39000 43900 50400 52900 66600 113000 128000 193000 238000
2026-04-05 12:00 13.68 89200 329000 (1960) 33500 (2003) 90300 39000 43900 50400 52900 66600 113000 128000 193000 238000
2026-04-05 11:00 13.81 90500 329000 (1960) 33500 (2003) 90300 39000 43900 50400 52900 66600 113000 128000 193000 238000
2026-04-05 10:00 13.95 91900 329000 (1960) 33500 (2003) 90300 39000 43900 50400 52900 66600 113000 128000 193000 238000
2026-04-05 09:00 14.08 93100 329000 (1960) 33500 (2003) 90300 39000 43900 50400 52900 66600 113000 128000 193000 238000
2026-04-05 08:00 14.20 94300 329000 (1960) 33500 (2003) 90300 39000 43900 50400 52900 66600 113000 128000 193000 238000
2026-04-05 07:00 14.35 95800 329000 (1960) 33500 (2003) 90300 39000 43900 50400 52900 66600 113000 128000 193000 238000
2026-04-05 06:00 14.48 97100 329000 (1960) 33500 (2003) 90300 39000 43900 50400 52900 66600 113000 128000 193000 238000
2026-04-05 05:00 14.57 98000 329000 (1960) 33500 (2003) 90300 39000 43900 50400 52900 66600 113000 128000 193000 238000
2026-04-05 04:00 14.72 99500 329000 (1960) 33500 (2003) 90300 39000 43900 50400 52900 66600 113000 128000 193000 238000
2026-04-05 03:00 14.84 101000 329000 (1960) 33500 (2003) 90300 39000 43900 50400 52900 66600 113000 128000 193000 238000
2026-04-05 02:00 14.95 102000 329000 (1960) 33500 (2003) 90300 39000 43900 50400 52900 66600 113000 128000 193000 238000
2026-04-05 01:00 15.04 103000 329000 (1960) 33500 (2003) 90300 39000 43900 50400 52900 66600 113000 128000 193000 238000
2026-04-05 00:00 15.15 104000 329000 (1960) 33500 (2003) 90300 39000 43900 50400 52900 66600 113000 128000 193000 238000
2026-04-04 23:00 15.21 104000 329000 (1960) 33500 (2003) 90300 39000 43900 50400 52900 66600 113000 128000 193000 238000
2026-04-04 22:00 15.27 105000 324000 (1960) 34200 (2003) 88400 37900 43600 46000 50500 68700 99500 116000 176000 254000
2026-04-04 21:00 15.31 105000 324000 (1960) 34200 (2003) 88400 37900 43600 46000 50500 68700 99500 116000 176000 254000
2026-04-04 20:00 15.36 106000 324000 (1960) 34200 (2003) 88400 37900 43600 46000 50500 68700 99500 116000 176000 254000
2026-04-04 19:00 15.37 106000 324000 (1960) 34200 (2003) 88400 37900 43600 46000 50500 68700 99500 116000 176000 254000
2026-04-04 18:00 15.45 107000 324000 (1960) 34200 (2003) 88400 37900 43600 46000 50500 68700 99500 116000 176000 254000
2026-04-04 17:00 15.51 108000 324000 (1960) 34200 (2003) 88400 37900 43600 46000 50500 68700 99500 116000 176000 254000
2026-04-04 16:00 15.57 108000 324000 (1960) 34200 (2003) 88400 37900 43600 46000 50500 68700 99500 116000 176000 254000
2026-04-04 15:00 15.58 108000 324000 (1960) 34200 (2003) 88400 37900 43600 46000 50500 68700 99500 116000 176000 254000
2026-04-04 14:00 15.60 109000 324000 (1960) 34200 (2003) 88400 37900 43600 46000 50500 68700 99500 116000 176000 254000
2026-04-04 13:00 15.64 109000 324000 (1960) 34200 (2003) 88400 37900 43600 46000 50500 68700 99500 116000 176000 254000
2026-04-04 12:00 15.61 109000 324000 (1960) 34200 (2003) 88400 37900 43600 46000 50500 68700 99500 116000 176000 254000
2026-04-04 11:00 15.63 109000 324000 (1960) 34200 (2003) 88400 37900 43600 46000 50500 68700 99500 116000 176000 254000
2026-04-04 10:00 15.66 109000 324000 (1960) 34200 (2003) 88400 37900 43600 46000 50500 68700 99500 116000 176000 254000
2026-04-04 09:00 15.66 109000 324000 (1960) 34200 (2003) 88400 37900 43600 46000 50500 68700 99500 116000 176000 254000
2026-04-04 08:00 15.66 109000 324000 (1960) 34200 (2003) 88400 37900 43600 46000 50500 68700 99500 116000 176000 254000
2026-04-04 07:00 15.66 109000 324000 (1960) 34200 (2003) 88400 37900 43600 46000 50500 68700 99500 116000 176000 254000
2026-04-04 06:00 15.70 110000 324000 (1960) 34200 (2003) 88400 37900 43600 46000 50500 68700 99500 116000 176000 254000
2026-04-04 05:00 15.71 110000 324000 (1960) 34200 (2003) 88400 37900 43600 46000 50500 68700 99500 116000 176000 254000
2026-04-04 04:00 15.69 110000 324000 (1960) 34200 (2003) 88400 37900 43600 46000 50500 68700 99500 116000 176000 254000
2026-04-04 03:00 15.69 110000 324000 (1960) 34200 (2003) 88400 37900 43600 46000 50500 68700 99500 116000 176000 254000
2026-04-04 02:00 15.69 110000 324000 (1960) 34200 (2003) 88400 37900 43600 46000 50500 68700 99500 116000 176000 254000
2026-04-04 01:00 15.66 109000 324000 (1960) 34200 (2003) 88400 37900 43600 46000 50500 68700 99500 116000 176000 254000
2026-04-04 00:00 15.67 109000 324000 (1960) 34200 (2003) 88400 37900 43600 46000 50500 68700 99500 116000 176000 254000
2026-04-03 23:00 15.65 109000 324000 (1960) 34200 (2003) 88400 37900 43600 46000 50500 68700 99500 116000 176000 254000
2026-04-03 22:00 15.64 109000 315000 (1960) 33800 (2003) 88000 36000 39100 46600 49200 67300 94100 113000 167000 269000
2026-04-03 21:00 15.64 109000 315000 (1960) 33800 (2003) 88000 36000 39100 46600 49200 67300 94100 113000 167000 269000
2026-04-03 20:00 15.58 108000 315000 (1960) 33800 (2003) 88000 36000 39100 46600 49200 67300 94100 113000 167000 269000
2026-04-03 19:00 15.52 108000 315000 (1960) 33800 (2003) 88000 36000 39100 46600 49200 67300 94100 113000 167000 269000
2026-04-03 18:00 15.47 107000 315000 (1960) 33800 (2003) 88000 36000 39100 46600 49200 67300 94100 113000 167000 269000
2026-04-03 17:00 15.42 107000 315000 (1960) 33800 (2003) 88000 36000 39100 46600 49200 67300 94100 113000 167000 269000
2026-04-03 16:00 15.42 107000 315000 (1960) 33800 (2003) 88000 36000 39100 46600 49200 67300 94100 113000 167000 269000
2026-04-03 15:00 15.38 106000 315000 (1960) 33800 (2003) 88000 36000 39100 46600 49200 67300 94100 113000 167000 269000
2026-04-03 14:00 15.26 105000 315000 (1960) 33800 (2003) 88000 36000 39100 46600 49200 67300 94100 113000 167000 269000
2026-04-03 13:00 15.21 104000 315000 (1960) 33800 (2003) 88000 36000 39100 46600 49200 67300 94100 113000 167000 269000
2026-04-03 12:00 15.12 104000 315000 (1960) 33800 (2003) 88000 36000 39100 46600 49200 67300 94100 113000 167000 269000
2026-04-03 11:00 15.05 103000 315000 (1960) 33800 (2003) 88000 36000 39100 46600 49200 67300 94100 113000 167000 269000
2026-04-03 10:00 14.96 102000 315000 (1960) 33800 (2003) 88000 36000 39100 46600 49200 67300 94100 113000 167000 269000
2026-04-03 09:00 14.84 101000 315000 (1960) 33800 (2003) 88000 36000 39100 46600 49200 67300 94100 113000 167000 269000
2026-04-03 08:00 14.74 99700 315000 (1960) 33800 (2003) 88000 36000 39100 46600 49200 67300 94100 113000 167000 269000
2026-04-03 07:00 14.65 98800 315000 (1960) 33800 (2003) 88000 36000 39100 46600 49200 67300 94100 113000 167000 269000
2026-04-03 06:00 14.56 97900 315000 (1960) 33800 (2003) 88000 36000 39100 46600 49200 67300 94100 113000 167000 269000
2026-04-03 05:00 14.48 97100 315000 (1960) 33800 (2003) 88000 36000 39100 46600 49200 67300 94100 113000 167000 269000
2026-04-03 04:00 14.37 96000 315000 (1960) 33800 (2003) 88000 36000 39100 46600 49200 67300 94100 113000 167000 269000
2026-04-03 03:00 14.23 94600 315000 (1960) 33800 (2003) 88000 36000 39100 46600 49200 67300 94100 113000 167000 269000
2026-04-03 02:00 14.10 93300 315000 (1960) 33800 (2003) 88000 36000 39100 46600 49200 67300 94100 113000 167000 269000
2026-04-03 01:00 13.96 92000 315000 (1960) 33800 (2003) 88000 36000 39100 46600 49200 67300 94100 113000 167000 269000
2026-04-03 00:00 13.80 90400 315000 (1960) 33800 (2003) 88000 36000 39100 46600 49200 67300 94100 113000 167000 269000
2026-04-02 23:00 13.62 88700 315000 (1960) 33800 (2003) 88000 36000 39100 46600 49200 67300 94100 113000 167000 269000
2026-04-02 22:00 13.43 86900 302000 (1960) 30400 (1989) 87700 33500 39200 45600 49600 68000 96300 112000 171000 257000
2026-04-02 21:00 13.21 84900 302000 (1960) 30400 (1989) 87700 33500 39200 45600 49600 68000 96300 112000 171000 257000
2026-04-02 20:00 12.98 82800 302000 (1960) 30400 (1989) 87700 33500 39200 45600 49600 68000 96300 112000 171000 257000
2026-04-02 19:00 12.72 80500 302000 (1960) 30400 (1989) 87700 33500 39200 45600 49600 68000 96300 112000 171000 257000
2026-04-02 18:00 12.46 78300 302000 (1960) 30400 (1989) 87700 33500 39200 45600 49600 68000 96300 112000 171000 257000
2026-04-02 17:00 12.19 76100 302000 (1960) 30400 (1989) 87700 33500 39200 45600 49600 68000 96300 112000 171000 257000
2026-04-02 16:00 11.92 73900 302000 (1960) 30400 (1989) 87700 33500 39200 45600 49600 68000 96300 112000 171000 257000
2026-04-02 15:00 11.68 72100 302000 (1960) 30400 (1989) 87700 33500 39200 45600 49600 68000 96300 112000 171000 257000
2026-04-02 14:00 11.39 69800 302000 (1960) 30400 (1989) 87700 33500 39200 45600 49600 68000 96300 112000 171000 257000
2026-04-02 13:00 11.13 67900 302000 (1960) 30400 (1989) 87700 33500 39200 45600 49600 68000 96300 112000 171000 257000
2026-04-02 12:00 10.92 66300 302000 (1960) 30400 (1989) 87700 33500 39200 45600 49600 68000 96300 112000 171000 257000
2026-04-02 11:00 10.60 64000 302000 (1960) 30400 (1989) 87700 33500 39200 45600 49600 68000 96300 112000 171000 257000
2026-04-02 09:00 9.79 58500 302000 (1960) 30400 (1989) 87700 33500 39200 45600 49600 68000 96300 112000 171000 257000
2026-04-02 08:00 9.23 54900 302000 (1960) 30400 (1989) 87700 33500 39200 45600 49600 68000 96300 112000 171000 257000
2026-04-02 07:00 8.77 52100 302000 (1960) 30400 (1989) 87700 33500 39200 45600 49600 68000 96300 112000 171000 257000
2026-04-02 06:00 8.27 49200 302000 (1960) 30400 (1989) 87700 33500 39200 45600 49600 68000 96300 112000 171000 257000
2026-04-02 05:00 7.83 46700 302000 (1960) 30400 (1989) 87700 33500 39200 45600 49600 68000 96300 112000 171000 257000
2026-04-02 04:00 7.42 44500 302000 (1960) 30400 (1989) 87700 33500 39200 45600 49600 68000 96300 112000 171000 257000
2026-04-02 03:00 7.09 42800 302000 (1960) 30400 (1989) 87700 33500 39200 45600 49600 68000 96300 112000 171000 257000
2026-04-02 02:00 6.82 41400 302000 (1960) 30400 (1989) 87700 33500 39200 45600 49600 68000 96300 112000 171000 257000
2026-04-02 01:00 6.62 40500 302000 (1960) 30400 (1989) 87700 33500 39200 45600 49600 68000 96300 112000 171000 257000
2026-04-02 00:00 6.47 39700 302000 (1960) 30400 (1989) 87700 33500 39200 45600 49600 68000 96300 112000 171000 257000
2026-04-01 23:00 6.40 39400 302000 (1960) 30400 (1989) 87700 33500 39200 45600 49600 68000 96300 112000 171000 257000
2026-04-01 22:00 6.36 39200 292000 (2019) 26800 (1989) 86700 34400 39900 45100 48400 65700 97400 117000 169000 237000
2026-04-01 21:00 6.34 39100 292000 (2019) 26800 (1989) 86700 34400 39900 45100 48400 65700 97400 117000 169000 237000
2026-04-01 20:00 6.27 38800 292000 (2019) 26800 (1989) 86700 34400 39900 45100 48400 65700 97400 117000 169000 237000
2026-04-01 19:00 6.28 38800 292000 (2019) 26800 (1989) 86700 34400 39900 45100 48400 65700 97400 117000 169000 237000
2026-04-01 18:00 6.27 38800 292000 (2019) 26800 (1989) 86700 34400 39900 45100 48400 65700 97400 117000 169000 237000
2026-04-01 17:00 6.25 38700 292000 (2019) 26800 (1989) 86700 34400 39900 45100 48400 65700 97400 117000 169000 237000
2026-04-01 16:00 6.25 38700 292000 (2019) 26800 (1989) 86700 34400 39900 45100 48400 65700 97400 117000 169000 237000
2026-04-01 15:00 6.23 38600 292000 (2019) 26800 (1989) 86700 34400 39900 45100 48400 65700 97400 117000 169000 237000
2026-04-01 14:00 6.24 38600 292000 (2019) 26800 (1989) 86700 34400 39900 45100 48400 65700 97400 117000 169000 237000
2026-04-01 13:00 6.20 38500 292000 (2019) 26800 (1989) 86700 34400 39900 45100 48400 65700 97400 117000 169000 237000
2026-04-01 12:00 6.18 38400 292000 (2019) 26800 (1989) 86700 34400 39900 45100 48400 65700 97400 117000 169000 237000
2026-04-01 11:00 6.19 38400 292000 (2019) 26800 (1989) 86700 34400 39900 45100 48400 65700 97400 117000 169000 237000
2026-04-01 10:00 6.15 38200 292000 (2019) 26800 (1989) 86700 34400 39900 45100 48400 65700 97400 117000 169000 237000
2026-04-01 09:00 6.13 38100 292000 (2019) 26800 (1989) 86700 34400 39900 45100 48400 65700 97400 117000 169000 237000
2026-04-01 08:00 6.11 38000 292000 (2019) 26800 (1989) 86700 34400 39900 45100 48400 65700 97400 117000 169000 237000
2026-04-01 07:00 6.11 38000 292000 (2019) 26800 (1989) 86700 34400 39900 45100 48400 65700 97400 117000 169000 237000
2026-04-01 06:00 6.09 37900 292000 (2019) 26800 (1989) 86700 34400 39900 45100 48400 65700 97400 117000 169000 237000
2026-04-01 05:00 6.11 38000 292000 (2019) 26800 (1989) 86700 34400 39900 45100 48400 65700 97400 117000 169000 237000
2026-04-01 04:00 6.09 37900 292000 (2019) 26800 (1989) 86700 34400 39900 45100 48400 65700 97400 117000 169000 237000
2026-04-01 03:00 6.09 37900 292000 (2019) 26800 (1989) 86700 34400 39900 45100 48400 65700 97400 117000 169000 237000
2026-04-01 02:00 6.18 38400 292000 (2019) 26800 (1989) 86700 34400 39900 45100 48400 65700 97400 117000 169000 237000
2026-04-01 01:00 6.16 38300 292000 (2019) 26800 (1989) 86700 34400 39900 45100 48400 65700 97400 117000 169000 237000
2026-04-01 00:00 6.14 38200 292000 (2019) 26800 (1989) 86700 34400 39900 45100 48400 65700 97400 117000 169000 237000
2026-03-31 23:00 6.05 37800 292000 (2019) 26800 (1989) 86700 34400 39900 45100 48400 65700 97400 117000 169000 237000
2026-03-31 22:00 6.09 37900 285000 (2019) 28000 (1989) 84500 35500 38900 44700 46300 64600 107000 125000 150000 209000
2026-03-31 21:00 6.12 38100 285000 (2019) 28000 (1989) 84500 35500 38900 44700 46300 64600 107000 125000 150000 209000
2026-03-31 20:00 6.13 38100 285000 (2019) 28000 (1989) 84500 35500 38900 44700 46300 64600 107000 125000 150000 209000
2026-03-31 19:00 6.12 38100 285000 (2019) 28000 (1989) 84500 35500 38900 44700 46300 64600 107000 125000 150000 209000
2026-03-31 18:00 6.06 37800 285000 (2019) 28000 (1989) 84500 35500 38900 44700 46300 64600 107000 125000 150000 209000
2026-03-31 17:00 6.10 38000 285000 (2019) 28000 (1989) 84500 35500 38900 44700 46300 64600 107000 125000 150000 209000
2026-03-31 16:00 6.08 37900 285000 (2019) 28000 (1989) 84500 35500 38900 44700 46300 64600 107000 125000 150000 209000
2026-03-31 15:00 6.07 37800 285000 (2019) 28000 (1989) 84500 35500 38900 44700 46300 64600 107000 125000 150000 209000
2026-03-31 14:00 6.07 37800 285000 (2019) 28000 (1989) 84500 35500 38900 44700 46300 64600 107000 125000 150000 209000
2026-03-31 13:00 6.08 37900 285000 (2019) 28000 (1989) 84500 35500 38900 44700 46300 64600 107000 125000 150000 209000
2026-03-31 12:00 6.08 37900 285000 (2019) 28000 (1989) 84500 35500 38900 44700 46300 64600 107000 125000 150000 209000
2026-03-31 11:00 6.09 37900 285000 (2019) 28000 (1989) 84500 35500 38900 44700 46300 64600 107000 125000 150000 209000
2026-03-31 10:00 6.12 38100 285000 (2019) 28000 (1989) 84500 35500 38900 44700 46300 64600 107000 125000 150000 209000
2026-03-31 09:00 6.15 38200 285000 (2019) 28000 (1989) 84500 35500 38900 44700 46300 64600 107000 125000 150000 209000
2026-03-31 08:00 6.10 38000 285000 (2019) 28000 (1989) 84500 35500 38900 44700 46300 64600 107000 125000 150000 209000
2026-03-31 07:00 6.11 38000 285000 (2019) 28000 (1989) 84500 35500 38900 44700 46300 64600 107000 125000 150000 209000
2026-03-31 06:00 6.13 38100 285000 (2019) 28000 (1989) 84500 35500 38900 44700 46300 64600 107000 125000 150000 209000
2026-03-31 05:00 6.12 38100 285000 (2019) 28000 (1989) 84500 35500 38900 44700 46300 64600 107000 125000 150000 209000
2026-03-31 04:00 6.14 38200 285000 (2019) 28000 (1989) 84500 35500 38900 44700 46300 64600 107000 125000 150000 209000
2026-03-31 03:00 6.12 38100 285000 (2019) 28000 (1989) 84500 35500 38900 44700 46300 64600 107000 125000 150000 209000
2026-03-31 02:00 6.11 38000 285000 (2019) 28000 (1989) 84500 35500 38900 44700 46300 64600 107000 125000 150000 209000
2026-03-31 01:00 6.09 37900 285000 (2019) 28000 (1989) 84500 35500 38900 44700 46300 64600 107000 125000 150000 209000
2026-03-31 00:00 6.04 37700 285000 (2019) 28000 (1989) 84500 35500 38900 44700 46300 64600 107000 125000 150000 209000
2026-03-30 23:00 6.09 37900 285000 (2019) 28000 (1989) 84500 35500 38900 44700 46300 64600 107000 125000 150000 209000
2026-03-30 22:00 6.09 37900 256000 (2019) 26400 (1989) 83100 34300 39300 44800 49700 62200 100000 119000 165000 213000
2026-03-30 21:00 6.08 37900 256000 (2019) 26400 (1989) 83100 34300 39300 44800 49700 62200 100000 119000 165000 213000
2026-03-30 20:00 6.06 37800 256000 (2019) 26400 (1989) 83100 34300 39300 44800 49700 62200 100000 119000 165000 213000
2026-03-30 19:00 6.05 37800 256000 (2019) 26400 (1989) 83100 34300 39300 44800 49700 62200 100000 119000 165000 213000
2026-03-30 18:00 5.97 37400 256000 (2019) 26400 (1989) 83100 34300 39300 44800 49700 62200 100000 119000 165000 213000
2026-03-30 17:00 5.97 37400 256000 (2019) 26400 (1989) 83100 34300 39300 44800 49700 62200 100000 119000 165000 213000
2026-03-30 16:00 5.96 37300 256000 (2019) 26400 (1989) 83100 34300 39300 44800 49700 62200 100000 119000 165000 213000
2026-03-30 15:00 5.95 37300 256000 (2019) 26400 (1989) 83100 34300 39300 44800 49700 62200 100000 119000 165000 213000
2026-03-30 14:00 5.96 37300 256000 (2019) 26400 (1989) 83100 34300 39300 44800 49700 62200 100000 119000 165000 213000
2026-03-30 13:00 5.92 37200 256000 (2019) 26400 (1989) 83100 34300 39300 44800 49700 62200 100000 119000 165000 213000
2026-03-30 12:00 5.92 37200 256000 (2019) 26400 (1989) 83100 34300 39300 44800 49700 62200 100000 119000 165000 213000
2026-03-30 11:00 5.92 37200 256000 (2019) 26400 (1989) 83100 34300 39300 44800 49700 62200 100000 119000 165000 213000
2026-03-30 10:00 5.91 37100 256000 (2019) 26400 (1989) 83100 34300 39300 44800 49700 62200 100000 119000 165000 213000
2026-03-30 09:00 5.92 37200 256000 (2019) 26400 (1989) 83100 34300 39300 44800 49700 62200 100000 119000 165000 213000
2026-03-30 08:00 5.96 37300 256000 (2019) 26400 (1989) 83100 34300 39300 44800 49700 62200 100000 119000 165000 213000
2026-03-30 07:00 5.94 37200 256000 (2019) 26400 (1989) 83100 34300 39300 44800 49700 62200 100000 119000 165000 213000
2026-03-30 06:00 5.91 37100 256000 (2019) 26400 (1989) 83100 34300 39300 44800 49700 62200 100000 119000 165000 213000
2026-03-30 05:00 5.90 37100 256000 (2019) 26400 (1989) 83100 34300 39300 44800 49700 62200 100000 119000 165000 213000
2026-03-30 04:00 5.85 36800 256000 (2019) 26400 (1989) 83100 34300 39300 44800 49700 62200 100000 119000 165000 213000
2026-03-30 03:00 5.85 36800 256000 (2019) 26400 (1989) 83100 34300 39300 44800 49700 62200 100000 119000 165000 213000
2026-03-30 02:00 5.83 36700 256000 (2019) 26400 (1989) 83100 34300 39300 44800 49700 62200 100000 119000 165000 213000
2026-03-30 01:00 5.81 36700 256000 (2019) 26400 (1989) 83100 34300 39300 44800 49700 62200 100000 119000 165000 213000
2026-03-30 00:00 5.79 36600 256000 (2019) 26400 (1989) 83100 34300 39300 44800 49700 62200 100000 119000 165000 213000
2026-03-29 23:00 5.80 36600 256000 (2019) 26400 (1989) 83100 34300 39300 44800 49700 62200 100000 119000 165000 213000
2026-03-29 22:00 5.79 36600 260000 (1973) 24200 (1989) 84300 33800 37300 44400 50100 61300 95800 124000 174000 204000
2026-03-29 21:00 5.76 36400 260000 (1973) 24200 (1989) 84300 33800 37300 44400 50100 61300 95800 124000 174000 204000
2026-03-29 20:00 5.75 36400 260000 (1973) 24200 (1989) 84300 33800 37300 44400 50100 61300 95800 124000 174000 204000
2026-03-29 19:00 5.73 36300 260000 (1973) 24200 (1989) 84300 33800 37300 44400 50100 61300 95800 124000 174000 204000
2026-03-29 18:00 5.63 35800 260000 (1973) 24200 (1989) 84300 33800 37300 44400 50100 61300 95800 124000 174000 204000
2026-03-29 17:00 5.65 35900 260000 (1973) 24200 (1989) 84300 33800 37300 44400 50100 61300 95800 124000 174000 204000
2026-03-29 16:00 5.61 35800 260000 (1973) 24200 (1989) 84300 33800 37300 44400 50100 61300 95800 124000 174000 204000
2026-03-29 15:00 5.59 35700 260000 (1973) 24200 (1989) 84300 33800 37300 44400 50100 61300 95800 124000 174000 204000
2026-03-29 14:00 5.57 35600 260000 (1973) 24200 (1989) 84300 33800 37300 44400 50100 61300 95800 124000 174000 204000
2026-03-29 13:00 5.55 35500 260000 (1973) 24200 (1989) 84300 33800 37300 44400 50100 61300 95800 124000 174000 204000
2026-03-29 12:00 5.53 35400 260000 (1973) 24200 (1989) 84300 33800 37300 44400 50100 61300 95800 124000 174000 204000
2026-03-29 11:00 5.52 35400 260000 (1973) 24200 (1989) 84300 33800 37300 44400 50100 61300 95800 124000 174000 204000
2026-03-29 10:00 5.51 35300 260000 (1973) 24200 (1989) 84300 33800 37300 44400 50100 61300 95800 124000 174000 204000
2026-03-29 09:00 5.52 35400 260000 (1973) 24200 (1989) 84300 33800 37300 44400 50100 61300 95800 124000 174000 204000
2026-03-29 08:00 5.49 35200 260000 (1973) 24200 (1989) 84300 33800 37300 44400 50100 61300 95800 124000 174000 204000
2026-03-29 07:00 5.45 35100 260000 (1973) 24200 (1989) 84300 33800 37300 44400 50100 61300 95800 124000 174000 204000
2026-03-29 06:00 5.42 34900 260000 (1973) 24200 (1989) 84300 33800 37300 44400 50100 61300 95800 124000 174000 204000
2026-03-29 05:00 5.44 35000 260000 (1973) 24200 (1989) 84300 33800 37300 44400 50100 61300 95800 124000 174000 204000
2026-03-29 04:00 5.39 34800 260000 (1973) 24200 (1989) 84300 33800 37300 44400 50100 61300 95800 124000 174000 204000
2026-03-29 03:00 5.35 34600 260000 (1973) 24200 (1989) 84300 33800 37300 44400 50100 61300 95800 124000 174000 204000
2026-03-29 02:00 5.35 34600 260000 (1973) 24200 (1989) 84300 33800 37300 44400 50100 61300 95800 124000 174000 204000
2026-03-29 01:00 5.33 34500 260000 (1973) 24200 (1989) 84300 33800 37300 44400 50100 61300 95800 124000 174000 204000
2026-03-29 00:00 5.30 34400 260000 (1973) 24200 (1989) 84300 33800 37300 44400 50100 61300 95800 124000 174000 204000
2026-03-28 23:00 5.28 34300 260000 (1973) 24200 (1989) 84300 33800 37300 44400 50100 61300 95800 124000 174000 204000
2026-03-28 22:00 5.25 34200 274000 (2019) 24300 (1989) 82800 32400 37200 41500 44100 60300 96900 118000 175000 228000
2026-03-28 21:00 5.22 34100 274000 (2019) 24300 (1989) 82800 32400 37200 41500 44100 60300 96900 118000 175000 228000
2026-03-28 20:00 5.18 33900 274000 (2019) 24300 (1989) 82800 32400 37200 41500 44100 60300 96900 118000 175000 228000
2026-03-28 19:00 5.13 33700 274000 (2019) 24300 (1989) 82800 32400 37200 41500 44100 60300 96900 118000 175000 228000
2026-03-28 18:00 5.08 33500 274000 (2019) 24300 (1989) 82800 32400 37200 41500 44100 60300 96900 118000 175000 228000
2026-03-28 17:00 5.04 33300 274000 (2019) 24300 (1989) 82800 32400 37200 41500 44100 60300 96900 118000 175000 228000
2026-03-28 16:00 5.03 33300 274000 (2019) 24300 (1989) 82800 32400 37200 41500 44100 60300 96900 118000 175000 228000
2026-03-28 15:00 5.03 33300 274000 (2019) 24300 (1989) 82800 32400 37200 41500 44100 60300 96900 118000 175000 228000
2026-03-28 14:00 4.98 33000 274000 (2019) 24300 (1989) 82800 32400 37200 41500 44100 60300 96900 118000 175000 228000
2026-03-28 13:00 4.97 33000 274000 (2019) 24300 (1989) 82800 32400 37200 41500 44100 60300 96900 118000 175000 228000
2026-03-28 12:00 4.96 33000 274000 (2019) 24300 (1989) 82800 32400 37200 41500 44100 60300 96900 118000 175000 228000
2026-03-28 11:00 4.97 33000 274000 (2019) 24300 (1989) 82800 32400 37200 41500 44100 60300 96900 118000 175000 228000
2026-03-28 10:00 4.91 32800 274000 (2019) 24300 (1989) 82800 32400 37200 41500 44100 60300 96900 118000 175000 228000
2026-03-28 09:00 4.86 32600 274000 (2019) 24300 (1989) 82800 32400 37200 41500 44100 60300 96900 118000 175000 228000
2026-03-28 08:00 4.85 32500 274000 (2019) 24300 (1989) 82800 32400 37200 41500 44100 60300 96900 118000 175000 228000
2026-03-28 07:00 4.87 32600 274000 (2019) 24300 (1989) 82800 32400 37200 41500 44100 60300 96900 118000 175000 228000
2026-03-28 06:00 4.83 32400 274000 (2019) 24300 (1989) 82800 32400 37200 41500 44100 60300 96900 118000 175000 228000
2026-03-28 05:00 4.83 32400 274000 (2019) 24300 (1989) 82800 32400 37200 41500 44100 60300 96900 118000 175000 228000
2026-03-28 04:00 4.77 32200 274000 (2019) 24300 (1989) 82800 32400 37200 41500 44100 60300 96900 118000 175000 228000
2026-03-28 03:00 4.77 32200 274000 (2019) 24300 (1989) 82800 32400 37200 41500 44100 60300 96900 118000 175000 228000
2026-03-28 02:00 4.75 32100 274000 (2019) 24300 (1989) 82800 32400 37200 41500 44100 60300 96900 118000 175000 228000
2026-03-28 01:00 4.73 32000 274000 (2019) 24300 (1989) 82800 32400 37200 41500 44100 60300 96900 118000 175000 228000
2026-03-28 00:00 4.71 31900 274000 (2019) 24300 (1989) 82800 32400 37200 41500 44100 60300 96900 118000 175000 228000
2026-03-27 23:00 4.69 31900 274000 (2019) 24300 (1989) 82800 32400 37200 41500 44100 60300 96900 118000 175000 228000
2026-03-27 22:00 4.67 31800 281000 (2019) 24500 (1989) 79600 28600 33800 40600 44100 59200 89900 107000 178000 241000
2026-03-27 21:00 4.64 31700 281000 (2019) 24500 (1989) 79600 28600 33800 40600 44100 59200 89900 107000 178000 241000
2026-03-27 20:00 4.62 31600 281000 (2019) 24500 (1989) 79600 28600 33800 40600 44100 59200 89900 107000 178000 241000
2026-03-27 19:00 4.58 31400 281000 (2019) 24500 (1989) 79600 28600 33800 40600 44100 59200 89900 107000 178000 241000
2026-03-27 18:00 4.57 31400 281000 (2019) 24500 (1989) 79600 28600 33800 40600 44100 59200 89900 107000 178000 241000
2026-03-27 17:00 4.54 31300 281000 (2019) 24500 (1989) 79600 28600 33800 40600 44100 59200 89900 107000 178000 241000
2026-03-27 16:00 4.49 31100 281000 (2019) 24500 (1989) 79600 28600 33800 40600 44100 59200 89900 107000 178000 241000
2026-03-27 15:00 4.51 31100 281000 (2019) 24500 (1989) 79600 28600 33800 40600 44100 59200 89900 107000 178000 241000
2026-03-27 14:00 4.46 30900 281000 (2019) 24500 (1989) 79600 28600 33800 40600 44100 59200 89900 107000 178000 241000
2026-03-27 13:00 4.46 30900 281000 (2019) 24500 (1989) 79600 28600 33800 40600 44100 59200 89900 107000 178000 241000
2026-03-27 12:00 4.45 30900 281000 (2019) 24500 (1989) 79600 28600 33800 40600 44100 59200 89900 107000 178000 241000
2026-03-27 11:00 4.43 30800 281000 (2019) 24500 (1989) 79600 28600 33800 40600 44100 59200 89900 107000 178000 241000
2026-03-27 10:00 4.37 30600 281000 (2019) 24500 (1989) 79600 28600 33800 40600 44100 59200 89900 107000 178000 241000
2026-03-27 09:00 4.35 30500 281000 (2019) 24500 (1989) 79600 28600 33800 40600 44100 59200 89900 107000 178000 241000
2026-03-27 08:00 4.33 30400 281000 (2019) 24500 (1989) 79600 28600 33800 40600 44100 59200 89900 107000 178000 241000
2026-03-27 07:00 4.30 30300 281000 (2019) 24500 (1989) 79600 28600 33800 40600 44100 59200 89900 107000 178000 241000
2026-03-27 06:00 4.29 30300 281000 (2019) 24500 (1989) 79600 28600 33800 40600 44100 59200 89900 107000 178000 241000
2026-03-27 05:00 4.24 30100 281000 (2019) 24500 (1989) 79600 28600 33800 40600 44100 59200 89900 107000 178000 241000
2026-03-27 04:00 4.31 30300 281000 (2019) 24500 (1989) 79600 28600 33800 40600 44100 59200 89900 107000 178000 241000
2026-03-27 03:00 4.22 30000 281000 (2019) 24500 (1989) 79600 28600 33800 40600 44100 59200 89900 107000 178000 241000
2026-03-27 02:00 4.18 29800 281000 (2019) 24500 (1989) 79600 28600 33800 40600 44100 59200 89900 107000 178000 241000
2026-03-27 01:00 4.15 29700 281000 (2019) 24500 (1989) 79600 28600 33800 40600 44100 59200 89900 107000 178000 241000
2026-03-27 00:00 4.14 29700 281000 (2019) 24500 (1989) 79600 28600 33800 40600 44100 59200 89900 107000 178000 241000
2026-03-26 23:00 4.11 29600 281000 (2019) 24500 (1989) 79600 28600 33800 40600 44100 59200 89900 107000 178000 241000
2026-03-26 22:00 4.08 29500 278000 (2019) 20000 (1964) 77100 28200 31600 38800 42600 56600 91200 99400 163000 234000
2026-03-26 21:00 4.05 29300 278000 (2019) 20000 (1964) 77100 28200 31600 38800 42600 56600 91200 99400 163000 234000
2026-03-26 20:00 4.03 29300 278000 (2019) 20000 (1964) 77100 28200 31600 38800 42600 56600 91200 99400 163000 234000
2026-03-26 19:00 4.11 29600 278000 (2019) 20000 (1964) 77100 28200 31600 38800 42600 56600 91200 99400 163000 234000
2026-03-26 18:00 4.04 29300 278000 (2019) 20000 (1964) 77100 28200 31600 38800 42600 56600 91200 99400 163000 234000
2026-03-26 17:00 4.01 29200 278000 (2019) 20000 (1964) 77100 28200 31600 38800 42600 56600 91200 99400 163000 234000
2026-03-26 16:00 3.97 29000 278000 (2019) 20000 (1964) 77100 28200 31600 38800 42600 56600 91200 99400 163000 234000
2026-03-26 15:00 3.96 29000 278000 (2019) 20000 (1964) 77100 28200 31600 38800 42600 56600 91200 99400 163000 234000
2026-03-26 14:00 3.95 29000 278000 (2019) 20000 (1964) 77100 28200 31600 38800 42600 56600 91200 99400 163000 234000
2026-03-26 13:00 3.95 29000 278000 (2019) 20000 (1964) 77100 28200 31600 38800 42600 56600 91200 99400 163000 234000
2026-03-26 12:00 3.94 28900 278000 (2019) 20000 (1964) 77100 28200 31600 38800 42600 56600 91200 99400 163000 234000
2026-03-26 11:00 3.91 28800 278000 (2019) 20000 (1964) 77100 28200 31600 38800 42600 56600 91200 99400 163000 234000
2026-03-26 10:00 3.90 28800 278000 (2019) 20000 (1964) 77100 28200 31600 38800 42600 56600 91200 99400 163000 234000
2026-03-26 09:00 3.88 28700 278000 (2019) 20000 (1964) 77100 28200 31600 38800 42600 56600 91200 99400 163000 234000
2026-03-26 08:00 3.95 29000 278000 (2019) 20000 (1964) 77100 28200 31600 38800 42600 56600 91200 99400 163000 234000
2026-03-26 07:00 3.91 28800 278000 (2019) 20000 (1964) 77100 28200 31600 38800 42600 56600 91200 99400 163000 234000
2026-03-26 06:00 3.84 28500 278000 (2019) 20000 (1964) 77100 28200 31600 38800 42600 56600 91200 99400 163000 234000
2026-03-26 05:00 3.82 28500 278000 (2019) 20000 (1964) 77100 28200 31600 38800 42600 56600 91200 99400 163000 234000
2026-03-26 04:00 3.80 28400 278000 (2019) 20000 (1964) 77100 28200 31600 38800 42600 56600 91200 99400 163000 234000
2026-03-26 03:00 3.77 28300 278000 (2019) 20000 (1964) 77100 28200 31600 38800 42600 56600 91200 99400 163000 234000
2026-03-26 02:00 3.77 28300 278000 (2019) 20000 (1964) 77100 28200 31600 38800 42600 56600 91200 99400 163000 234000
2026-03-26 01:00 3.76 28300 278000 (2019) 20000 (1964) 77100 28200 31600 38800 42600 56600 91200 99400 163000 234000
2026-03-26 00:00 3.79 28400 278000 (2019) 20000 (1964) 77100 28200 31600 38800 42600 56600 91200 99400 163000 234000
2026-03-25 23:00 3.83 28500 278000 (2019) 20000 (1964) 77100 28200 31600 38800 42600 56600 91200 99400 163000 234000
2026-03-25 22:00 3.81 28400 269000 (2019) 17300 (1964) 74100 26400 31200 38100 39800 57600 83500 108000 150000 204000
2026-03-25 21:00 3.80 28400 269000 (2019) 17300 (1964) 74100 26400 31200 38100 39800 57600 83500 108000 150000 204000
2026-03-25 20:00 3.79 28400 269000 (2019) 17300 (1964) 74100 26400 31200 38100 39800 57600 83500 108000 150000 204000
2026-03-25 19:00 3.77 28300 269000 (2019) 17300 (1964) 74100 26400 31200 38100 39800 57600 83500 108000 150000 204000
2026-03-25 18:00 3.70 28000 269000 (2019) 17300 (1964) 74100 26400 31200 38100 39800 57600 83500 108000 150000 204000
2026-03-25 17:00 3.69 28000 269000 (2019) 17300 (1964) 74100 26400 31200 38100 39800 57600 83500 108000 150000 204000
2026-03-25 16:00 3.70 28000 269000 (2019) 17300 (1964) 74100 26400 31200 38100 39800 57600 83500 108000 150000 204000
2026-03-25 15:00 3.69 28000 269000 (2019) 17300 (1964) 74100 26400 31200 38100 39800 57600 83500 108000 150000 204000
2026-03-25 14:00 3.69 28000 269000 (2019) 17300 (1964) 74100 26400 31200 38100 39800 57600 83500 108000 150000 204000
2026-03-25 13:00 3.68 28000 269000 (2019) 17300 (1964) 74100 26400 31200 38100 39800 57600 83500 108000 150000 204000
2026-03-25 12:00 3.72 28100 269000 (2019) 17300 (1964) 74100 26400 31200 38100 39800 57600 83500 108000 150000 204000
2026-03-25 11:00 3.66 27900 269000 (2019) 17300 (1964) 74100 26400 31200 38100 39800 57600 83500 108000 150000 204000
2026-03-25 10:00 3.74 28200 269000 (2019) 17300 (1964) 74100 26400 31200 38100 39800 57600 83500 108000 150000 204000
2026-03-25 09:00 3.74 28200 269000 (2019) 17300 (1964) 74100 26400 31200 38100 39800 57600 83500 108000 150000 204000
2026-03-25 08:00 3.73 28100 269000 (2019) 17300 (1964) 74100 26400 31200 38100 39800 57600 83500 108000 150000 204000
2026-03-25 07:00 3.74 28200 269000 (2019) 17300 (1964) 74100 26400 31200 38100 39800 57600 83500 108000 150000 204000
2026-03-25 06:00 3.73 28100 269000 (2019) 17300 (1964) 74100 26400 31200 38100 39800 57600 83500 108000 150000 204000
2026-03-25 05:00 3.73 28100 269000 (2019) 17300 (1964) 74100 26400 31200 38100 39800 57600 83500 108000 150000 204000
2026-03-25 04:00 3.74 28200 269000 (2019) 17300 (1964) 74100 26400 31200 38100 39800 57600 83500 108000 150000 204000
2026-03-25 03:00 3.73 28100 269000 (2019) 17300 (1964) 74100 26400 31200 38100 39800 57600 83500 108000 150000 204000
2026-03-25 02:00 3.72 28100 269000 (2019) 17300 (1964) 74100 26400 31200 38100 39800 57600 83500 108000 150000 204000
2026-03-25 01:00 3.73 28100 269000 (2019) 17300 (1964) 74100 26400 31200 38100 39800 57600 83500 108000 150000 204000
2026-03-25 00:00 3.73 28100 269000 (2019) 17300 (1964) 74100 26400 31200 38100 39800 57600 83500 108000 150000 204000
2026-03-24 23:00 3.73 28100 269000 (2019) 17300 (1964) 74100 26400 31200 38100 39800 57600 83500 108000 150000 204000
2026-03-24 22:00 3.73 28100 255000 (2019) 17300 (1964) 72500 27000 30800 35600 39000 56600 90000 111000 143000 196000
2026-03-24 21:00 3.73 28100 255000 (2019) 17300 (1964) 72500 27000 30800 35600 39000 56600 90000 111000 143000 196000
2026-03-24 20:00 3.73 28100 255000 (2019) 17300 (1964) 72500 27000 30800 35600 39000 56600 90000 111000 143000 196000
2026-03-24 19:00 3.73 28100 255000 (2019) 17300 (1964) 72500 27000 30800 35600 39000 56600 90000 111000 143000 196000
2026-03-24 18:00 3.69 28000 255000 (2019) 17300 (1964) 72500 27000 30800 35600 39000 56600 90000 111000 143000 196000
2026-03-24 17:00 3.73 28100 255000 (2019) 17300 (1964) 72500 27000 30800 35600 39000 56600 90000 111000 143000 196000
2026-03-24 16:00 3.69 28000 255000 (2019) 17300 (1964) 72500 27000 30800 35600 39000 56600 90000 111000 143000 196000
2026-03-24 15:00 3.68 28000 255000 (2019) 17300 (1964) 72500 27000 30800 35600 39000 56600 90000 111000 143000 196000
2026-03-24 14:00 3.71 28100 255000 (2019) 17300 (1964) 72500 27000 30800 35600 39000 56600 90000 111000 143000 196000
2026-03-24 13:00 3.69 28000 255000 (2019) 17300 (1964) 72500 27000 30800 35600 39000 56600 90000 111000 143000 196000
2026-03-24 12:00 3.70 28000 255000 (2019) 17300 (1964) 72500 27000 30800 35600 39000 56600 90000 111000 143000 196000
2026-03-24 11:00 3.70 28000 255000 (2019) 17300 (1964) 72500 27000 30800 35600 39000 56600 90000 111000 143000 196000
2026-03-24 10:00 3.70 28000 255000 (2019) 17300 (1964) 72500 27000 30800 35600 39000 56600 90000 111000 143000 196000
2026-03-24 09:00 3.71 29000 255000 (2019) 17300 (1964) 72500 27000 30800 35600 39000 56600 90000 111000 143000 196000
2026-03-24 08:00 3.76 29200 255000 (2019) 17300 (1964) 72500 27000 30800 35600 39000 56600 90000 111000 143000 196000
2026-03-24 07:00 3.80 29300 255000 (2019) 17300 (1964) 72500 27000 30800 35600 39000 56600 90000 111000 143000 196000
2026-03-24 06:00 3.80 29300 255000 (2019) 17300 (1964) 72500 27000 30800 35600 39000 56600 90000 111000 143000 196000
2026-03-24 05:00 3.76 29200 255000 (2019) 17300 (1964) 72500 27000 30800 35600 39000 56600 90000 111000 143000 196000
2026-03-24 04:00 3.83 29500 255000 (2019) 17300 (1964) 72500 27000 30800 35600 39000 56600 90000 111000 143000 196000
2026-03-24 03:00 3.77 29200 255000 (2019) 17300 (1964) 72500 27000 30800 35600 39000 56600 90000 111000 143000 196000
2026-03-24 02:00 3.78 29300 255000 (2019) 17300 (1964) 72500 27000 30800 35600 39000 56600 90000 111000 143000 196000
2026-03-24 01:00 3.78 29300 255000 (2019) 17300 (1964) 72500 27000 30800 35600 39000 56600 90000 111000 143000 196000
2026-03-24 00:00 3.80 29300 255000 (2019) 17300 (1964) 72500 27000 30800 35600 39000 56600 90000 111000 143000 196000
2026-03-23 23:00 3.82 29400 255000 (2019) 17300 (1964) 72500 27000 30800 35600 39000 56600 90000 111000 143000 196000
2026-03-23 22:00 3.85 29500 246000 (2019) 17800 (1964) 73200 24900 29600 33500 37100 54800 89000 109000 144000 198000
2026-03-23 21:00 3.83 29500 246000 (2019) 17800 (1964) 73200 24900 29600 33500 37100 54800 89000 109000 144000 198000
2026-03-23 20:00 3.89 29700 246000 (2019) 17800 (1964) 73200 24900 29600 33500 37100 54800 89000 109000 144000 198000
2026-03-23 19:00 3.85 29500 246000 (2019) 17800 (1964) 73200 24900 29600 33500 37100 54800 89000 109000 144000 198000
2026-03-23 18:00 3.84 29500 246000 (2019) 17800 (1964) 73200 24900 29600 33500 37100 54800 89000 109000 144000 198000
2026-03-23 17:00 3.83 29500 246000 (2019) 17800 (1964) 73200 24900 29600 33500 37100 54800 89000 109000 144000 198000
2026-03-23 16:00 3.85 29500 246000 (2019) 17800 (1964) 73200 24900 29600 33500 37100 54800 89000 109000 144000 198000
2026-03-23 15:00 3.89 29700 246000 (2019) 17800 (1964) 73200 24900 29600 33500 37100 54800 89000 109000 144000 198000
2026-03-23 14:00 3.88 29600 246000 (2019) 17800 (1964) 73200 24900 29600 33500 37100 54800 89000 109000 144000 198000
2026-03-23 13:00 3.91 29800 246000 (2019) 17800 (1964) 73200 24900 29600 33500 37100 54800 89000 109000 144000 198000
2026-03-23 12:00 3.91 29800 246000 (2019) 17800 (1964) 73200 24900 29600 33500 37100 54800 89000 109000 144000 198000
2026-03-23 11:00 3.88 29600 246000 (2019) 17800 (1964) 73200 24900 29600 33500 37100 54800 89000 109000 144000 198000
2026-03-23 10:00 3.89 29700 246000 (2019) 17800 (1964) 73200 24900 29600 33500 37100 54800 89000 109000 144000 198000
2026-03-23 09:00 3.90 29700 246000 (2019) 17800 (1964) 73200 24900 29600 33500 37100 54800 89000 109000 144000 198000
2026-03-23 08:00 3.91 29800 246000 (2019) 17800 (1964) 73200 24900 29600 33500 37100 54800 89000 109000 144000 198000
2026-03-23 07:00 3.99 30100 246000 (2019) 17800 (1964) 73200 24900 29600 33500 37100 54800 89000 109000 144000 198000
2026-03-23 06:00 3.97 30000 246000 (2019) 17800 (1964) 73200 24900 29600 33500 37100 54800 89000 109000 144000 198000
2026-03-23 05:00 3.93 29800 246000 (2019) 17800 (1964) 73200 24900 29600 33500 37100 54800 89000 109000 144000 198000
2026-03-23 04:00 4.00 30100 246000 (2019) 17800 (1964) 73200 24900 29600 33500 37100 54800 89000 109000 144000 198000
2026-03-23 03:00 4.00 30100 246000 (2019) 17800 (1964) 73200 24900 29600 33500 37100 54800 89000 109000 144000 198000
2026-03-23 02:00 4.01 30100 246000 (2019) 17800 (1964) 73200 24900 29600 33500 37100 54800 89000 109000 144000 198000
2026-03-23 01:00 4.02 30200 246000 (2019) 17800 (1964) 73200 24900 29600 33500 37100 54800 89000 109000 144000 198000
2026-03-23 00:00 4.02 30200 246000 (2019) 17800 (1964) 73200 24900 29600 33500 37100 54800 89000 109000 144000 198000
2026-03-22 23:00 4.02 30200 246000 (2019) 17800 (1964) 73200 24900 29600 33500 37100 54800 89000 109000 144000 198000
2026-03-22 22:00 4.03 30200 240000 (2019) 18000 (1964) 75700 23600 28400 34300 36000 56600 96300 116000 152000 195000
2026-03-22 21:00 4.00 30100 240000 (2019) 18000 (1964) 75700 23600 28400 34300 36000 56600 96300 116000 152000 195000
2026-03-22 20:00 4.03 30200 240000 (2019) 18000 (1964) 75700 23600 28400 34300 36000 56600 96300 116000 152000 195000
2026-03-22 19:00 3.99 30100 240000 (2019) 18000 (1964) 75700 23600 28400 34300 36000 56600 96300 116000 152000 195000
2026-03-22 18:00 4.00 30100 240000 (2019) 18000 (1964) 75700 23600 28400 34300 36000 56600 96300 116000 152000 195000
2026-03-22 17:00 3.98 30000 240000 (2019) 18000 (1964) 75700 23600 28400 34300 36000 56600 96300 116000 152000 195000
2026-03-22 16:00 3.99 30100 240000 (2019) 18000 (1964) 75700 23600 28400 34300 36000 56600 96300 116000 152000 195000
2026-03-22 15:00 3.94 29900 240000 (2019) 18000 (1964) 75700 23600 28400 34300 36000 56600 96300 116000 152000 195000
2026-03-22 14:00 4.00 30100 240000 (2019) 18000 (1964) 75700 23600 28400 34300 36000 56600 96300 116000 152000 195000
2026-03-22 13:00 4.02 30200 240000 (2019) 18000 (1964) 75700 23600 28400 34300 36000 56600 96300 116000 152000 195000
2026-03-22 12:00 4.04 30300 240000 (2019) 18000 (1964) 75700 23600 28400 34300 36000 56600 96300 116000 152000 195000
2026-03-22 11:00 4.01 30100 240000 (2019) 18000 (1964) 75700 23600 28400 34300 36000 56600 96300 116000 152000 195000
2026-03-22 10:00 4.05 30300 240000 (2019) 18000 (1964) 75700 23600 28400 34300 36000 56600 96300 116000 152000 195000
2026-03-22 09:00 4.05 30300 240000 (2019) 18000 (1964) 75700 23600 28400 34300 36000 56600 96300 116000 152000 195000
2026-03-22 08:00 4.04 30300 240000 (2019) 18000 (1964) 75700 23600 28400 34300 36000 56600 96300 116000 152000 195000
2026-03-22 07:00 4.05 30300 240000 (2019) 18000 (1964) 75700 23600 28400 34300 36000 56600 96300 116000 152000 195000
2026-03-22 06:00 4.04 30300 240000 (2019) 18000 (1964) 75700 23600 28400 34300 36000 56600 96300 116000 152000 195000
2026-03-22 05:00 3.98 30000 240000 (2019) 18000 (1964) 75700 23600 28400 34300 36000 56600 96300 116000 152000 195000
2026-03-22 04:00 4.00 30100 240000 (2019) 18000 (1964) 75700 23600 28400 34300 36000 56600 96300 116000 152000 195000
2026-03-22 03:00 4.01 30100 240000 (2019) 18000 (1964) 75700 23600 28400 34300 36000 56600 96300 116000 152000 195000
2026-03-22 02:00 4.05 30300 240000 (2019) 18000 (1964) 75700 23600 28400 34300 36000 56600 96300 116000 152000 195000
2026-03-22 01:00 4.06 30300 240000 (2019) 18000 (1964) 75700 23600 28400 34300 36000 56600 96300 116000 152000 195000
2026-03-22 00:00 4.07 30400 240000 (2019) 18000 (1964) 75700 23600 28400 34300 36000 56600 96300 116000 152000 195000
2026-03-21 23:00 4.07 30400 240000 (2019) 18000 (1964) 75700 23600 28400 34300 36000 56600 96300 116000 152000 195000
2026-03-21 22:00 4.07 30400 239000 (2019) 17100 (1964) 76700 23400 28800 34900 37300 59400 107000 120000 156000 192000
2026-03-21 21:00 4.07 30400 239000 (2019) 17100 (1964) 76700 23400 28800 34900 37300 59400 107000 120000 156000 192000
2026-03-21 20:00 4.07 30400 239000 (2019) 17100 (1964) 76700 23400 28800 34900 37300 59400 107000 120000 156000 192000
2026-03-21 19:00 4.09 30500 239000 (2019) 17100 (1964) 76700 23400 28800 34900 37300 59400 107000 120000 156000 192000
2026-03-21 18:00 4.10 30500 239000 (2019) 17100 (1964) 76700 23400 28800 34900 37300 59400 107000 120000 156000 192000
2026-03-21 17:00 4.10 30500 239000 (2019) 17100 (1964) 76700 23400 28800 34900 37300 59400 107000 120000 156000 192000
2026-03-21 16:00 4.11 30500 239000 (2019) 17100 (1964) 76700 23400 28800 34900 37300 59400 107000 120000 156000 192000
2026-03-21 15:00 4.14 30700 239000 (2019) 17100 (1964) 76700 23400 28800 34900 37300 59400 107000 120000 156000 192000
2026-03-21 14:00 4.14 30700 239000 (2019) 17100 (1964) 76700 23400 28800 34900 37300 59400 107000 120000 156000 192000
2026-03-21 13:00 4.15 30700 239000 (2019) 17100 (1964) 76700 23400 28800 34900 37300 59400 107000 120000 156000 192000
2026-03-21 12:00 4.16 30700 239000 (2019) 17100 (1964) 76700 23400 28800 34900 37300 59400 107000 120000 156000 192000
2026-03-21 11:00 4.16 30700 239000 (2019) 17100 (1964) 76700 23400 28800 34900 37300 59400 107000 120000 156000 192000
2026-03-21 10:00 4.16 30700 239000 (2019) 17100 (1964) 76700 23400 28800 34900 37300 59400 107000 120000 156000 192000
2026-03-21 09:00 4.17 30800 239000 (2019) 17100 (1964) 76700 23400 28800 34900 37300 59400 107000 120000 156000 192000
2026-03-21 08:00 4.17 30800 239000 (2019) 17100 (1964) 76700 23400 28800 34900 37300 59400 107000 120000 156000 192000
2026-03-21 07:00 4.18 30800 239000 (2019) 17100 (1964) 76700 23400 28800 34900 37300 59400 107000 120000 156000 192000
2026-03-21 06:00 4.18 30800 239000 (2019) 17100 (1964) 76700 23400 28800 34900 37300 59400 107000 120000 156000 192000
2026-03-21 05:00 4.19 30900 239000 (2019) 17100 (1964) 76700 23400 28800 34900 37300 59400 107000 120000 156000 192000
2026-03-21 04:00 4.20 30900 239000 (2019) 17100 (1964) 76700 23400 28800 34900 37300 59400 107000 120000 156000 192000
2026-03-21 03:00 4.20 30900 239000 (2019) 17100 (1964) 76700 23400 28800 34900 37300 59400 107000 120000 156000 192000
2026-03-21 02:00 4.21 30900 239000 (2019) 17100 (1964) 76700 23400 28800 34900 37300 59400 107000 120000 156000 192000
2026-03-21 01:00 4.21 30900 239000 (2019) 17100 (1964) 76700 23400 28800 34900 37300 59400 107000 120000 156000 192000
2026-03-21 00:00 4.22 31000 239000 (2019) 17100 (1964) 76700 23400 28800 34900 37300 59400 107000 120000 156000 192000
2026-03-20 23:00 4.23 31000 239000 (2019) 17100 (1964) 76700 23400 28800 34900 37300 59400 107000 120000 156000 192000
2026-03-20 22:00 4.23 31000 243000 (2019) 16600 (1964) 75500 23100 29800 36000 38200 58100 94600 119000 171000 186000
2026-03-20 21:00 4.24 31100 243000 (2019) 16600 (1964) 75500 23100 29800 36000 38200 58100 94600 119000 171000 186000
2026-03-20 20:00 4.24 31100 243000 (2019) 16600 (1964) 75500 23100 29800 36000 38200 58100 94600 119000 171000 186000
2026-03-20 19:00 4.26 31100 243000 (2019) 16600 (1964) 75500 23100 29800 36000 38200 58100 94600 119000 171000 186000
2026-03-20 18:00 4.26 31100 243000 (2019) 16600 (1964) 75500 23100 29800 36000 38200 58100 94600 119000 171000 186000
2026-03-20 17:00 4.23 31000 243000 (2019) 16600 (1964) 75500 23100 29800 36000 38200 58100 94600 119000 171000 186000
2026-03-20 16:00 4.21 30900 243000 (2019) 16600 (1964) 75500 23100 29800 36000 38200 58100 94600 119000 171000 186000
2026-03-20 15:00 4.29 31300 243000 (2019) 16600 (1964) 75500 23100 29800 36000 38200 58100 94600 119000 171000 186000
2026-03-20 14:00 4.24 31100 243000 (2019) 16600 (1964) 75500 23100 29800 36000 38200 58100 94600 119000 171000 186000
2026-03-20 13:00 4.30 31300 243000 (2019) 16600 (1964) 75500 23100 29800 36000 38200 58100 94600 119000 171000 186000
2026-03-20 12:00 4.29 31300 243000 (2019) 16600 (1964) 75500 23100 29800 36000 38200 58100 94600 119000 171000 186000
2026-03-20 11:00 4.30 31300 243000 (2019) 16600 (1964) 75500 23100 29800 36000 38200 58100 94600 119000 171000 186000
2026-03-20 10:00 4.30 31300 243000 (2019) 16600 (1964) 75500 23100 29800 36000 38200 58100 94600 119000 171000 186000
2026-03-20 09:00 4.30 31300 243000 (2019) 16600 (1964) 75500 23100 29800 36000 38200 58100 94600 119000 171000 186000
2026-03-20 08:00 4.30 31300 243000 (2019) 16600 (1964) 75500 23100 29800 36000 38200 58100 94600 119000 171000 186000
2026-03-20 07:00 4.30 31300 243000 (2019) 16600 (1964) 75500 23100 29800 36000 38200 58100 94600 119000 171000 186000
2026-03-20 06:00 4.30 31300 243000 (2019) 16600 (1964) 75500 23100 29800 36000 38200 58100 94600 119000 171000 186000
2026-03-20 05:00 4.31 31300 243000 (2019) 16600 (1964) 75500 23100 29800 36000 38200 58100 94600 119000 171000 186000
2026-03-20 04:00 4.30 31300 243000 (2019) 16600 (1964) 75500 23100 29800 36000 38200 58100 94600 119000 171000 186000
2026-03-20 03:00 4.30 31300 243000 (2019) 16600 (1964) 75500 23100 29800 36000 38200 58100 94600 119000 171000 186000
2026-03-20 02:00 4.31 31300 243000 (2019) 16600 (1964) 75500 23100 29800 36000 38200 58100 94600 119000 171000 186000
2026-03-20 01:00 4.29 31300 243000 (2019) 16600 (1964) 75500 23100 29800 36000 38200 58100 94600 119000 171000 186000
2026-03-20 00:00 4.29 31300 243000 (2019) 16600 (1964) 75500 23100 29800 36000 38200 58100 94600 119000 171000 186000
2026-03-19 23:00 4.30 31300 243000 (2019) 16600 (1964) 75500 23100 29800 36000 38200 58100 94600 119000 171000 186000
2026-03-19 22:00 4.31 31300 249000 (2019) 16000 (1964) 73600 23300 27200 35800 38500 53800 94500 108000 157000 183000
2026-03-19 21:00 4.32 31400 249000 (2019) 16000 (1964) 73600 23300 27200 35800 38500 53800 94500 108000 157000 183000
2026-03-19 20:00 4.31 31300 249000 (2019) 16000 (1964) 73600 23300 27200 35800 38500 53800 94500 108000 157000 183000
2026-03-19 19:00 4.32 31400 249000 (2019) 16000 (1964) 73600 23300 27200 35800 38500 53800 94500 108000 157000 183000
2026-03-19 18:00 4.33 31400 249000 (2019) 16000 (1964) 73600 23300 27200 35800 38500 53800 94500 108000 157000 183000
2026-03-19 17:00 4.33 31400 249000 (2019) 16000 (1964) 73600 23300 27200 35800 38500 53800 94500 108000 157000 183000
2026-03-19 16:00 4.35 31500 249000 (2019) 16000 (1964) 73600 23300 27200 35800 38500 53800 94500 108000 157000 183000
2026-03-19 15:00 4.35 31500 249000 (2019) 16000 (1964) 73600 23300 27200 35800 38500 53800 94500 108000 157000 183000
2026-03-19 14:00 4.34 31500 249000 (2019) 16000 (1964) 73600 23300 27200 35800 38500 53800 94500 108000 157000 183000
2026-03-19 13:00 4.35 31500 249000 (2019) 16000 (1964) 73600 23300 27200 35800 38500 53800 94500 108000 157000 183000
2026-03-19 12:00 4.35 31500 249000 (2019) 16000 (1964) 73600 23300 27200 35800 38500 53800 94500 108000 157000 183000
2026-03-19 11:00 4.36 31500 249000 (2019) 16000 (1964) 73600 23300 27200 35800 38500 53800 94500 108000 157000 183000
2026-03-19 10:00 4.36 31500 249000 (2019) 16000 (1964) 73600 23300 27200 35800 38500 53800 94500 108000 157000 183000
2026-03-19 09:00 4.38 31600 249000 (2019) 16000 (1964) 73600 23300 27200 35800 38500 53800 94500 108000 157000 183000
2026-03-19 08:00 4.37 31600 249000 (2019) 16000 (1964) 73600 23300 27200 35800 38500 53800 94500 108000 157000 183000
2026-03-19 07:00 4.40 31700 249000 (2019) 16000 (1964) 73600 23300 27200 35800 38500 53800 94500 108000 157000 183000
2026-03-19 06:00 4.38 31600 249000 (2019) 16000 (1964) 73600 23300 27200 35800 38500 53800 94500 108000 157000 183000
2026-03-19 05:00 4.37 31600 249000 (2019) 16000 (1964) 73600 23300 27200 35800 38500 53800 94500 108000 157000 183000
2026-03-19 04:00 4.42 31800 249000 (2019) 16000 (1964) 73600 23300 27200 35800 38500 53800 94500 108000 157000 183000
2026-03-19 03:00 4.40 31700 249000 (2019) 16000 (1964) 73600 23300 27200 35800 38500 53800 94500 108000 157000 183000
2026-03-19 02:00 4.44 31900 249000 (2019) 16000 (1964) 73600 23300 27200 35800 38500 53800 94500 108000 157000 183000
2026-03-19 01:00 4.44 31900 249000 (2019) 16000 (1964) 73600 23300 27200 35800 38500 53800 94500 108000 157000 183000
2026-03-19 00:00 4.45 31900 249000 (2019) 16000 (1964) 73600 23300 27200 35800 38500 53800 94500 108000 157000 183000
2026-03-18 23:00 4.46 31900 249000 (2019) 16000 (1964) 73600 23300 27200 35800 38500 53800 94500 108000 157000 183000
2026-03-18 22:00 4.46 31900 259000 (2019) 15800 (1964) 73000 23700 27200 37100 40100 56500 94300 111000 157000 191000
2026-03-18 21:00 4.48 32000 259000 (2019) 15800 (1964) 73000 23700 27200 37100 40100 56500 94300 111000 157000 191000
2026-03-18 20:00 4.49 32100 259000 (2019) 15800 (1964) 73000 23700 27200 37100 40100 56500 94300 111000 157000 191000
2026-03-18 19:00 4.51 32100 259000 (2019) 15800 (1964) 73000 23700 27200 37100 40100 56500 94300 111000 157000 191000
2026-03-18 18:00 4.52 32200 259000 (2019) 15800 (1964) 73000 23700 27200 37100 40100 56500 94300 111000 157000 191000
2026-03-18 17:00 4.55 32300 259000 (2019) 15800 (1964) 73000 23700 27200 37100 40100 56500 94300 111000 157000 191000
2026-03-18 16:00 4.55 32300 259000 (2019) 15800 (1964) 73000 23700 27200 37100 40100 56500 94300 111000 157000 191000
2026-03-18 15:00 4.57 32400 259000 (2019) 15800 (1964) 73000 23700 27200 37100 40100 56500 94300 111000 157000 191000
2026-03-18 14:00 4.58 32400 259000 (2019) 15800 (1964) 73000 23700 27200 37100 40100 56500 94300 111000 157000 191000
2026-03-18 13:00 4.59 32500 259000 (2019) 15800 (1964) 73000 23700 27200 37100 40100 56500 94300 111000 157000 191000
2026-03-18 12:00 4.57 32400 259000 (2019) 15800 (1964) 73000 23700 27200 37100 40100 56500 94300 111000 157000 191000
2026-03-18 11:00 4.61 32600 259000 (2019) 15800 (1964) 73000 23700 27200 37100 40100 56500 94300 111000 157000 191000
2026-03-18 10:00 4.63 32600 259000 (2019) 15800 (1964) 73000 23700 27200 37100 40100 56500 94300 111000 157000 191000
2026-03-18 09:00 4.65 32700 259000 (2019) 15800 (1964) 73000 23700 27200 37100 40100 56500 94300 111000 157000 191000
2026-03-18 08:00 4.66 32800 259000 (2019) 15800 (1964) 73000 23700 27200 37100 40100 56500 94300 111000 157000 191000
2026-03-18 07:00 4.67 32800 259000 (2019) 15800 (1964) 73000 23700 27200 37100 40100 56500 94300 111000 157000 191000
2026-03-18 06:00 4.68 32800 259000 (2019) 15800 (1964) 73000 23700 27200 37100 40100 56500 94300 111000 157000 191000
2026-03-18 05:00 4.71 33000 259000 (2019) 15800 (1964) 73000 23700 27200 37100 40100 56500 94300 111000 157000 191000
2026-03-18 04:00 4.73 33000 259000 (2019) 15800 (1964) 73000 23700 27200 37100 40100 56500 94300 111000 157000 191000
2026-03-18 03:00 4.71 33000 259000 (2019) 15800 (1964) 73000 23700 27200 37100 40100 56500 94300 111000 157000 191000
2026-03-18 02:00 4.74 33100 259000 (2019) 15800 (1964) 73000 23700 27200 37100 40100 56500 94300 111000 157000 191000
2026-03-18 01:00 4.72 33000 259000 (2019) 15800 (1964) 73000 23700 27200 37100 40100 56500 94300 111000 157000 191000
2026-03-18 00:00 4.73 33000 259000 (2019) 15800 (1964) 73000 23700 27200 37100 40100 56500 94300 111000 157000 191000
2026-03-17 23:00 4.74 33100 259000 (2019) 15800 (1964) 73000 23700 27200 37100 40100 56500 94300 111000 157000 191000
2026-03-17 22:00 4.77 33200 259000 (2019) 15800 (1964) 73000 24100 27400 40300 42200 57700 87800 108000 131000 195000
2026-03-17 21:00 4.78 33300 259000 (2019) 15800 (1964) 73000 24100 27400 40300 42200 57700 87800 108000 131000 195000
2026-03-17 20:00 4.82 33400 259000 (2019) 15800 (1964) 73000 24100 27400 40300 42200 57700 87800 108000 131000 195000
2026-03-17 19:00 4.86 33600 259000 (2019) 15800 (1964) 73000 24100 27400 40300 42200 57700 87800 108000 131000 195000
2026-03-17 18:00 4.85 33600 259000 (2019) 15800 (1964) 73000 24100 27400 40300 42200 57700 87800 108000 131000 195000
2026-03-17 17:00 4.82 33400 259000 (2019) 15800 (1964) 73000 24100 27400 40300 42200 57700 87800 108000 131000 195000
2026-03-17 16:00 4.86 33600 259000 (2019) 15800 (1964) 73000 24100 27400 40300 42200 57700 87800 108000 131000 195000
2026-03-17 15:00 4.91 33800 259000 (2019) 15800 (1964) 73000 24100 27400 40300 42200 57700 87800 108000 131000 195000
2026-03-17 14:00 4.95 34000 259000 (2019) 15800 (1964) 73000 24100 27400 40300 42200 57700 87800 108000 131000 195000
2026-03-17 13:00 4.96 34000 259000 (2019) 15800 (1964) 73000 24100 27400 40300 42200 57700 87800 108000 131000 195000
2026-03-17 12:00 4.99 34100 259000 (2019) 15800 (1964) 73000 24100 27400 40300 42200 57700 87800 108000 131000 195000
2026-03-17 11:00 5.04 34400 259000 (2019) 15800 (1964) 73000 24100 27400 40300 42200 57700 87800 108000 131000 195000
2026-03-17 10:00 5.05 34400 259000 (2019) 15800 (1964) 73000 24100 27400 40300 42200 57700 87800 108000 131000 195000
2026-03-17 09:00 5.08 34500 259000 (2019) 15800 (1964) 73000 24100 27400 40300 42200 57700 87800 108000 131000 195000
2026-03-17 08:00 5.10 34600 259000 (2019) 15800 (1964) 73000 24100 27400 40300 42200 57700 87800 108000 131000 195000
2026-03-17 07:00 5.13 34800 259000 (2019) 15800 (1964) 73000 24100 27400 40300 42200 57700 87800 108000 131000 195000
2026-03-17 06:00 5.15 34800 259000 (2019) 15800 (1964) 73000 24100 27400 40300 42200 57700 87800 108000 131000 195000
2026-03-17 05:00 5.18 35000 259000 (2019) 15800 (1964) 73000 24100 27400 40300 42200 57700 87800 108000 131000 195000
2026-03-17 04:00 5.20 35100 259000 (2019) 15800 (1964) 73000 24100 27400 40300 42200 57700 87800 108000 131000 195000
2026-03-17 03:00 5.23 35200 259000 (2019) 15800 (1964) 73000 24100 27400 40300 42200 57700 87800 108000 131000 195000
2026-03-17 02:00 5.25 35300 259000 (2019) 15800 (1964) 73000 24100 27400 40300 42200 57700 87800 108000 131000 195000
2026-03-17 01:00 5.27 35400 259000 (2019) 15800 (1964) 73000 24100 27400 40300 42200 57700 87800 108000 131000 195000
2026-03-17 00:00 5.30 35500 259000 (2019) 15800 (1964) 73000 24100 27400 40300 42200 57700 87800 108000 131000 195000
2026-03-16 23:00 5.32 35600 259000 (2019) 15800 (1964) 73000 24100 27400 40300 42200 57700 87800 108000 131000 195000
2026-03-16 22:00 5.35 35700 247000 (2019) 16000 (1964) 72600 24400 27700 38700 41600 59000 91100 99100 134000 195000
2026-03-16 21:00 5.37 35800 247000 (2019) 16000 (1964) 72600 24400 27700 38700 41600 59000 91100 99100 134000 195000
2026-03-16 20:00 5.40 35900 247000 (2019) 16000 (1964) 72600 24400 27700 38700 41600 59000 91100 99100 134000 195000
2026-03-16 19:00 5.42 36000 247000 (2019) 16000 (1964) 72600 24400 27700 38700 41600 59000 91100 99100 134000 195000
2026-03-16 18:00 5.40 35900 247000 (2019) 16000 (1964) 72600 24400 27700 38700 41600 59000 91100 99100 134000 195000
2026-03-16 17:00 5.39 35900 247000 (2019) 16000 (1964) 72600 24400 27700 38700 41600 59000 91100 99100 134000 195000
2026-03-16 16:00 5.43 36100 247000 (2019) 16000 (1964) 72600 24400 27700 38700 41600 59000 91100 99100 134000 195000
2026-03-16 15:00 5.49 36300 247000 (2019) 16000 (1964) 72600 24400 27700 38700 41600 59000 91100 99100 134000 195000
2026-03-16 14:00 5.49 36300 247000 (2019) 16000 (1964) 72600 24400 27700 38700 41600 59000 91100 99100 134000 195000
2026-03-16 13:00 5.51 36400 247000 (2019) 16000 (1964) 72600 24400 27700 38700 41600 59000 91100 99100 134000 195000
2026-03-16 12:00 5.55 36600 247000 (2019) 16000 (1964) 72600 24400 27700 38700 41600 59000 91100 99100 134000 195000
2026-03-16 11:00 5.58 36700 247000 (2019) 16000 (1964) 72600 24400 27700 38700 41600 59000 91100 99100 134000 195000
2026-03-16 10:00 5.61 36900 247000 (2019) 16000 (1964) 72600 24400 27700 38700 41600 59000 91100 99100 134000 195000
2026-03-16 09:00 5.65 37100 247000 (2019) 16000 (1964) 72600 24400 27700 38700 41600 59000 91100 99100 134000 195000
2026-03-16 08:00 5.71 37300 247000 (2019) 16000 (1964) 72600 24400 27700 38700 41600 59000 91100 99100 134000 195000
2026-03-16 07:00 5.77 37600 247000 (2019) 16000 (1964) 72600 24400 27700 38700 41600 59000 91100 99100 134000 195000
2026-03-16 06:00 5.80 37800 247000 (2019) 16000 (1964) 72600 24400 27700 38700 41600 59000 91100 99100 134000 195000
2026-03-16 05:00 5.81 37800 247000 (2019) 16000 (1964) 72600 24400 27700 38700 41600 59000 91100 99100 134000 195000
2026-03-16 04:00 5.83 37900 247000 (2019) 16000 (1964) 72600 24400 27700 38700 41600 59000 91100 99100 134000 195000
2026-03-16 03:00 5.86 38000 247000 (2019) 16000 (1964) 72600 24400 27700 38700 41600 59000 91100 99100 134000 195000
2026-03-16 02:00 5.90 38200 247000 (2019) 16000 (1964) 72600 24400 27700 38700 41600 59000 91100 99100 134000 195000
2026-03-16 01:00 5.92 38300 247000 (2019) 16000 (1964) 72600 24400 27700 38700 41600 59000 91100 99100 134000 195000
2026-03-16 00:00 5.96 38500 247000 (2019) 16000 (1964) 72600 24400 27700 38700 41600 59000 91100 99100 134000 195000
2026-03-15 23:00 6.02 38800 247000 (2019) 16000 (1964) 72600 24400 27700 38700 41600 59000 91100 99100 134000 195000
2026-03-15 22:00 6.03 38800 238000 (2010) 16400 (1964) 70200 24200 27600 37300 41100 57600 84200 96100 129000 193000
2026-03-15 21:00 6.06 39000 238000 (2010) 16400 (1964) 70200 24200 27600 37300 41100 57600 84200 96100 129000 193000
2026-03-15 20:00 6.11 39200 238000 (2010) 16400 (1964) 70200 24200 27600 37300 41100 57600 84200 96100 129000 193000
2026-03-15 19:00 6.16 39400 238000 (2010) 16400 (1964) 70200 24200 27600 37300 41100 57600 84200 96100 129000 193000
2026-03-15 18:00 6.20 39600 238000 (2010) 16400 (1964) 70200 24200 27600 37300 41100 57600 84200 96100 129000 193000
2026-03-15 17:00 6.24 39800 238000 (2010) 16400 (1964) 70200 24200 27600 37300 41100 57600 84200 96100 129000 193000
2026-03-15 16:00 6.27 40000 238000 (2010) 16400 (1964) 70200 24200 27600 37300 41100 57600 84200 96100 129000 193000
2026-03-15 15:00 6.36 40400 238000 (2010) 16400 (1964) 70200 24200 27600 37300 41100 57600 84200 96100 129000 193000
2026-03-15 14:00 6.36 40400 238000 (2010) 16400 (1964) 70200 24200 27600 37300 41100 57600 84200 96100 129000 193000
2026-03-15 13:00 6.45 40900 238000 (2010) 16400 (1964) 70200 24200 27600 37300 41100 57600 84200 96100 129000 193000
2026-03-15 12:00 6.55 41300 238000 (2010) 16400 (1964) 70200 24200 27600 37300 41100 57600 84200 96100 129000 193000
2026-03-15 11:00 6.61 41600 238000 (2010) 16400 (1964) 70200 24200 27600 37300 41100 57600 84200 96100 129000 193000
2026-03-15 10:00 6.62 41700 238000 (2010) 16400 (1964) 70200 24200 27600 37300 41100 57600 84200 96100 129000 193000
2026-03-15 09:00 6.66 41900 238000 (2010) 16400 (1964) 70200 24200 27600 37300 41100 57600 84200 96100 129000 193000
2026-03-15 08:00 6.78 42500 238000 (2010) 16400 (1964) 70200 24200 27600 37300 41100 57600 84200 96100 129000 193000
2026-03-15 07:00 6.83 42800 238000 (2010) 16400 (1964) 70200 24200 27600 37300 41100 57600 84200 96100 129000 193000
2026-03-15 06:00 6.87 43000 238000 (2010) 16400 (1964) 70200 24200 27600 37300 41100 57600 84200 96100 129000 193000
2026-03-15 05:00 6.92 43200 238000 (2010) 16400 (1964) 70200 24200 27600 37300 41100 57600 84200 96100 129000 193000
2026-03-15 04:00 7.01 43700 238000 (2010) 16400 (1964) 70200 24200 27600 37300 41100 57600 84200 96100 129000 193000
2026-03-15 03:00 7.09 44100 238000 (2010) 16400 (1964) 70200 24200 27600 37300 41100 57600 84200 96100 129000 193000
2026-03-15 02:00 7.18 44600 238000 (2010) 16400 (1964) 70200 24200 27600 37300 41100 57600 84200 96100 129000 193000
2026-03-15 01:00 7.25 44900 238000 (2010) 16400 (1964) 70200 24200 27600 37300 41100 57600 84200 96100 129000 193000
2026-03-15 00:00 7.35 45500 238000 (2010) 16400 (1964) 70200 24200 27600 37300 41100 57600 84200 96100 129000 193000
2026-03-14 23:00 7.43 45900 238000 (2010) 16400 (1964) 70200 24200 27600 37300 41100 57600 84200 96100 129000 193000
2026-03-14 22:00 7.52 46400 241000 (2010) 17100 (1964) 67700 23600 27800 34500 40400 56100 81500 94000 124000 173000
2026-03-14 21:00 7.60 46800 241000 (2010) 17100 (1964) 67700 23600 27800 34500 40400 56100 81500 94000 124000 173000
2026-03-14 20:00 7.71 47400 241000 (2010) 17100 (1964) 67700 23600 27800 34500 40400 56100 81500 94000 124000 173000
2026-03-14 19:00 7.80 47900 241000 (2010) 17100 (1964) 67700 23600 27800 34500 40400 56100 81500 94000 124000 173000
2026-03-14 18:00 7.84 48100 241000 (2010) 17100 (1964) 67700 23600 27800 34500 40400 56100 81500 94000 124000 173000
2026-03-14 17:00 7.93 48700 241000 (2010) 17100 (1964) 67700 23600 27800 34500 40400 56100 81500 94000 124000 173000
2026-03-14 16:00 8.11 49700 241000 (2010) 17100 (1964) 67700 23600 27800 34500 40400 56100 81500 94000 124000 173000
2026-03-14 15:00 8.19 50100 241000 (2010) 17100 (1964) 67700 23600 27800 34500 40400 56100 81500 94000 124000 173000
2026-03-14 14:00 8.32 50900 241000 (2010) 17100 (1964) 67700 23600 27800 34500 40400 56100 81500 94000 124000 173000
2026-03-14 13:00 8.47 51800 241000 (2010) 17100 (1964) 67700 23600 27800 34500 40400 56100 81500 94000 124000 173000
2026-03-14 12:00 8.55 52200 241000 (2010) 17100 (1964) 67700 23600 27800 34500 40400 56100 81500 94000 124000 173000
2026-03-14 11:00 8.68 53000 241000 (2010) 17100 (1964) 67700 23600 27800 34500 40400 56100 81500 94000 124000 173000
2026-03-14 10:00 8.81 53800 241000 (2010) 17100 (1964) 67700 23600 27800 34500 40400 56100 81500 94000 124000 173000
2026-03-14 09:00 8.90 54400 241000 (2010) 17100 (1964) 67700 23600 27800 34500 40400 56100 81500 94000 124000 173000
2026-03-14 08:00 9.05 55300 241000 (2010) 17100 (1964) 67700 23600 27800 34500 40400 56100 81500 94000 124000 173000
2026-03-14 07:00 9.16 56000 241000 (2010) 17100 (1964) 67700 23600 27800 34500 40400 56100 81500 94000 124000 173000
2026-03-14 06:00 9.28 56800 241000 (2010) 17100 (1964) 67700 23600 27800 34500 40400 56100 81500 94000 124000 173000
2026-03-14 05:00 9.41 57600 241000 (2010) 17100 (1964) 67700 23600 27800 34500 40400 56100 81500 94000 124000 173000
2026-03-14 04:00 9.55 58500 241000 (2010) 17100 (1964) 67700 23600 27800 34500 40400 56100 81500 94000 124000 173000
2026-03-14 03:00 9.66 59300 241000 (2010) 17100 (1964) 67700 23600 27800 34500 40400 56100 81500 94000 124000 173000
2026-03-14 02:00 9.77 60000 241000 (2010) 17100 (1964) 67700 23600 27800 34500 40400 56100 81500 94000 124000 173000
2026-03-14 01:00 9.95 61200 241000 (2010) 17100 (1964) 67700 23600 27800 34500 40400 56100 81500 94000 124000 173000
2026-03-14 00:00 10.11 62300 241000 (2010) 17100 (1964) 67700 23600 27800 34500 40400 56100 81500 94000 124000 173000
2026-03-13 23:00 10.24 63300 241000 (2010) 17100 (1964) 67700 23600 27800 34500 40400 56100 81500 94000 124000 173000
2026-03-13 22:00 10.34 64000 224000 (1973) 17300 (1964) 65500 23400 26400 32100 36700 53400 76600 87100 125000 165000
2026-03-13 21:00 10.45 64700 224000 (1973) 17300 (1964) 65500 23400 26400 32100 36700 53400 76600 87100 125000 165000
2026-03-13 20:00 10.57 65600 224000 (1973) 17300 (1964) 65500 23400 26400 32100 36700 53400 76600 87100 125000 165000
2026-03-13 19:00 10.67 66300 224000 (1973) 17300 (1964) 65500 23400 26400 32100 36700 53400 76600 87100 125000 165000
2026-03-13 18:00 10.75 66900 224000 (1973) 17300 (1964) 65500 23400 26400 32100 36700 53400 76600 87100 125000 165000
2026-03-13 17:00 10.85 67700 224000 (1973) 17300 (1964) 65500 23400 26400 32100 36700 53400 76600 87100 125000 165000
2026-03-13 16:00 10.95 68400 224000 (1973) 17300 (1964) 65500 23400 26400 32100 36700 53400 76600 87100 125000 165000
2026-03-13 15:00 11.03 69000 224000 (1973) 17300 (1964) 65500 23400 26400 32100 36700 53400 76600 87100 125000 165000
2026-03-13 14:00 11.11 69600 224000 (1973) 17300 (1964) 65500 23400 26400 32100 36700 53400 76600 87100 125000 165000
2026-03-13 13:00 11.12 69700 224000 (1973) 17300 (1964) 65500 23400 26400 32100 36700 53400 76600 87100 125000 165000
2026-03-13 12:00 11.24 70600 224000 (1973) 17300 (1964) 65500 23400 26400 32100 36700 53400 76600 87100 125000 165000
2026-03-13 11:00 11.28 70900 224000 (1973) 17300 (1964) 65500 23400 26400 32100 36700 53400 76600 87100 125000 165000
2026-03-13 10:00 11.32 71200 224000 (1973) 17300 (1964) 65500 23400 26400 32100 36700 53400 76600 87100 125000 165000
2026-03-13 09:00 11.36 71500 224000 (1973) 17300 (1964) 65500 23400 26400 32100 36700 53400 76600 87100 125000 165000
2026-03-13 08:00 11.39 71700 224000 (1973) 17300 (1964) 65500 23400 26400 32100 36700 53400 76600 87100 125000 165000
2026-03-13 07:00 11.37 71600 224000 (1973) 17300 (1964) 65500 23400 26400 32100 36700 53400 76600 87100 125000 165000
2026-03-13 06:00 11.40 71800 224000 (1973) 17300 (1964) 65500 23400 26400 32100 36700 53400 76600 87100 125000 165000
2026-03-13 05:00 11.40 71800 224000 (1973) 17300 (1964) 65500 23400 26400 32100 36700 53400 76600 87100 125000 165000
2026-03-13 04:00 11.35 71400 224000 (1973) 17300 (1964) 65500 23400 26400 32100 36700 53400 76600 87100 125000 165000
2026-03-13 03:00 11.35 71400 224000 (1973) 17300 (1964) 65500 23400 26400 32100 36700 53400 76600 87100 125000 165000
2026-03-13 02:00 11.31 71100 224000 (1973) 17300 (1964) 65500 23400 26400 32100 36700 53400 76600 87100 125000 165000
2026-03-13 01:00 11.29 71000 224000 (1973) 17300 (1964) 65500 23400 26400 32100 36700 53400 76600 87100 125000 165000
2026-03-13 00:00 11.25 70700 224000 (1973) 17300 (1964) 65500 23400 26400 32100 36700 53400 76600 87100 125000 165000
2026-03-12 23:00 11.23 70500 224000 (1973) 17300 (1964) 65500 23400 26400 32100 36700 53400 76600 87100 125000 165000
2026-03-12 22:00 11.22 70400 219000 (1973) 18500 (1964) 65300 22500 26800 31700 36400 49000 85500 92700 137000 167000
2026-03-12 21:00 11.18 70100 219000 (1973) 18500 (1964) 65300 22500 26800 31700 36400 49000 85500 92700 137000 167000
2026-03-12 20:00 11.12 69700 219000 (1973) 18500 (1964) 65300 22500 26800 31700 36400 49000 85500 92700 137000 167000
2026-03-12 19:00 11.07 69300 219000 (1973) 18500 (1964) 65300 22500 26800 31700 36400 49000 85500 92700 137000 167000
2026-03-12 18:00 10.94 68300 219000 (1973) 18500 (1964) 65300 22500 26800 31700 36400 49000 85500 92700 137000 167000
2026-03-12 17:00 10.92 68200 219000 (1973) 18500 (1964) 65300 22500 26800 31700 36400 49000 85500 92700 137000 167000
2026-03-12 16:00 10.85 67700 219000 (1973) 18500 (1964) 65300 22500 26800 31700 36400 49000 85500 92700 137000 167000
2026-03-12 15:00 10.78 67100 219000 (1973) 18500 (1964) 65300 22500 26800 31700 36400 49000 85500 92700 137000 167000
2026-03-12 14:00 10.74 66800 219000 (1973) 18500 (1964) 65300 22500 26800 31700 36400 49000 85500 92700 137000 167000
2026-03-12 13:00 10.66 66300 219000 (1973) 18500 (1964) 65300 22500 26800 31700 36400 49000 85500 92700 137000 167000
2026-03-12 12:00 10.60 65800 219000 (1973) 18500 (1964) 65300 22500 26800 31700 36400 49000 85500 92700 137000 167000
2026-03-12 11:00 10.54 65400 219000 (1973) 18500 (1964) 65300 22500 26800 31700 36400 49000 85500 92700 137000 167000
2026-03-12 10:00 10.45 64700 219000 (1973) 18500 (1964) 65300 22500 26800 31700 36400 49000 85500 92700 137000 167000
2026-03-12 09:00 10.34 64000 219000 (1973) 18500 (1964) 65300 22500 26800 31700 36400 49000 85500 92700 137000 167000
2026-03-12 08:00 10.21 63000 219000 (1973) 18500 (1964) 65300 22500 26800 31700 36400 49000 85500 92700 137000 167000
2026-03-12 07:00 10.06 62000 219000 (1973) 18500 (1964) 65300 22500 26800 31700 36400 49000 85500 92700 137000 167000
2026-03-12 06:00 9.92 61000 219000 (1973) 18500 (1964) 65300 22500 26800 31700 36400 49000 85500 92700 137000 167000
2026-03-12 05:00 9.73 59700 219000 (1973) 18500 (1964) 65300 22500 26800 31700 36400 49000 85500 92700 137000 167000
2026-03-12 04:00 9.56 58600 219000 (1973) 18500 (1964) 65300 22500 26800 31700 36400 49000 85500 92700 137000 167000
2026-03-12 03:00 9.36 57300 219000 (1973) 18500 (1964) 65300 22500 26800 31700 36400 49000 85500 92700 137000 167000
2026-03-12 02:00 9.16 56000 219000 (1973) 18500 (1964) 65300 22500 26800 31700 36400 49000 85500 92700 137000 167000
2026-03-12 01:00 8.93 54500 219000 (1973) 18500 (1964) 65300 22500 26800 31700 36400 49000 85500 92700 137000 167000
2026-03-12 00:00 8.66 52900 219000 (1973) 18500 (1964) 65300 22500 26800 31700 36400 49000 85500 92700 137000 167000
2026-03-11 23:00 8.39 51300 219000 (1973) 18500 (1964) 65300 22500 26800 31700 36400 49000 85500 92700 137000 167000
2026-03-11 22:00 8.10 49600 208000 (1973) 19100 (1964) 65500 23700 27200 31400 34200 50000 73100 99700 148000 161000
2026-03-11 21:00 7.81 48000 208000 (1973) 19100 (1964) 65500 23700 27200 31400 34200 50000 73100 99700 148000 161000
2026-03-11 20:00 7.51 46300 208000 (1973) 19100 (1964) 65500 23700 27200 31400 34200 50000 73100 99700 148000 161000
2026-03-11 19:00 7.22 44800 208000 (1973) 19100 (1964) 65500 23700 27200 31400 34200 50000 73100 99700 148000 161000
2026-03-11 18:00 6.96 43400 208000 (1973) 19100 (1964) 65500 23700 27200 31400 34200 50000 73100 99700 148000 161000
2026-03-11 17:00 6.71 42100 208000 (1973) 19100 (1964) 65500 23700 27200 31400 34200 50000 73100 99700 148000 161000
2026-03-11 16:00 6.49 41100 208000 (1973) 19100 (1964) 65500 23700 27200 31400 34200 50000 73100 99700 148000 161000
2026-03-11 15:00 6.35 40400 208000 (1973) 19100 (1964) 65500 23700 27200 31400 34200 50000 73100 99700 148000 161000
2026-03-11 14:00 6.23 39800 208000 (1973) 19100 (1964) 65500 23700 27200 31400 34200 50000 73100 99700 148000 161000
2026-03-11 13:00 6.11 39200 208000 (1973) 19100 (1964) 65500 23700 27200 31400 34200 50000 73100 99700 148000 161000
2026-03-11 12:00 6.04 38900 208000 (1973) 19100 (1964) 65500 23700 27200 31400 34200 50000 73100 99700 148000 161000
2026-03-11 11:00 5.97 38500 208000 (1973) 19100 (1964) 65500 23700 27200 31400 34200 50000 73100 99700 148000 161000
2026-03-11 10:00 5.93 38400 208000 (1973) 19100 (1964) 65500 23700 27200 31400 34200 50000 73100 99700 148000 161000
2026-03-11 09:00 5.90 38200 208000 (1973) 19100 (1964) 65500 23700 27200 31400 34200 50000 73100 99700 148000 161000
2026-03-11 08:00 5.89 38200 208000 (1973) 19100 (1964) 65500 23700 27200 31400 34200 50000 73100 99700 148000 161000
2026-03-11 07:00 5.88 38100 208000 (1973) 19100 (1964) 65500 23700 27200 31400 34200 50000 73100 99700 148000 161000
2026-03-11 06:00 5.90 38200 208000 (1973) 19100 (1964) 65500 23700 27200 31400 34200 50000 73100 99700 148000 161000
2026-03-11 05:00 5.91 38300 208000 (1973) 19100 (1964) 65500 23700 27200 31400 34200 50000 73100 99700 148000 161000
2026-03-11 04:00 5.93 38400 208000 (1973) 19100 (1964) 65500 23700 27200 31400 34200 50000 73100 99700 148000 161000
2026-03-11 03:00 5.95 38500 208000 (1973) 19100 (1964) 65500 23700 27200 31400 34200 50000 73100 99700 148000 161000
2026-03-11 02:00 5.97 38500 208000 (1973) 19100 (1964) 65500 23700 27200 31400 34200 50000 73100 99700 148000 161000
2026-03-11 01:00 5.93 38400 208000 (1973) 19100 (1964) 65500 23700 27200 31400 34200 50000 73100 99700 148000 161000
2026-03-11 00:00 6.02 38800 208000 (1973) 19100 (1964) 65500 23700 27200 31400 34200 50000 73100 99700 148000 161000
2026-03-10 23:00 6.01 38700 208000 (1973) 19100 (1964) 65500 23700 27200 31400 34200 50000 73100 99700 148000 161000
2026-03-10 22:00 6.04 38900 189000 (1973) 18700 (1964) 63500 24700 27400 29800 34400 49600 78800 92000 129000 141000
2026-03-10 21:00 6.13 39300 189000 (1973) 18700 (1964) 63500 24700 27400 29800 34400 49600 78800 92000 129000 141000
2026-03-10 20:00 6.13 39300 189000 (1973) 18700 (1964) 63500 24700 27400 29800 34400 49600 78800 92000 129000 141000
2026-03-10 19:00 6.15 39400 189000 (1973) 18700 (1964) 63500 24700 27400 29800 34400 49600 78800 92000 129000 141000
2026-03-10 18:00 6.19 39600 189000 (1973) 18700 (1964) 63500 24700 27400 29800 34400 49600 78800 92000 129000 141000
2026-03-10 17:00 6.22 39700 189000 (1973) 18700 (1964) 63500 24700 27400 29800 34400 49600 78800 92000 129000 141000
2026-03-10 16:00 6.27 40000 189000 (1973) 18700 (1964) 63500 24700 27400 29800 34400 49600 78800 92000 129000 141000
2026-03-10 15:00 6.34 40300 189000 (1973) 18700 (1964) 63500 24700 27400 29800 34400 49600 78800 92000 129000 141000
2026-03-10 14:00 6.38 40500 189000 (1973) 18700 (1964) 63500 24700 27400 29800 34400 49600 78800 92000 129000 141000
2026-03-10 13:00 6.43 40800 189000 (1973) 18700 (1964) 63500 24700 27400 29800 34400 49600 78800 92000 129000 141000
2026-03-10 12:00 6.50 41100 189000 (1973) 18700 (1964) 63500 24700 27400 29800 34400 49600 78800 92000 129000 141000
2026-03-10 11:00 6.57 41400 189000 (1973) 18700 (1964) 63500 24700 27400 29800 34400 49600 78800 92000 129000 141000
2026-03-10 10:00 6.69 42000 189000 (1973) 18700 (1964) 63500 24700 27400 29800 34400 49600 78800 92000 129000 141000
2026-03-10 09:00 6.74 42300 189000 (1973) 18700 (1964) 63500 24700 27400 29800 34400 49600 78800 92000 129000 141000
2026-03-10 08:00 6.81 42700 189000 (1973) 18700 (1964) 63500 24700 27400 29800 34400 49600 78800 92000 129000 141000
2026-03-10 07:00 6.87 43000 189000 (1973) 18700 (1964) 63500 24700 27400 29800 34400 49600 78800 92000 129000 141000
2026-03-10 06:00 6.92 43200 189000 (1973) 18700 (1964) 63500 24700 27400 29800 34400 49600 78800 92000 129000 141000
2026-03-10 05:00 6.97 43500 189000 (1973) 18700 (1964) 63500 24700 27400 29800 34400 49600 78800 92000 129000 141000
2026-03-10 04:00 7.03 43800 189000 (1973) 18700 (1964) 63500 24700 27400 29800 34400 49600 78800 92000 129000 141000
2026-03-10 03:00 7.08 44000 189000 (1973) 18700 (1964) 63500 24700 27400 29800 34400 49600 78800 92000 129000 141000
2026-03-10 02:00 7.14 44400 189000 (1973) 18700 (1964) 63500 24700 27400 29800 34400 49600 78800 92000 129000 141000
2026-03-10 01:00 7.20 44700 189000 (1973) 18700 (1964) 63500 24700 27400 29800 34400 49600 78800 92000 129000 141000
2026-03-10 00:00 7.26 45000 189000 (1973) 18700 (1964) 63500 24700 27400 29800 34400 49600 78800 92000 129000 141000
2026-03-09 23:00 7.31 45300 189000 (1973) 18700 (1964) 63500 24700 27400 29800 34400 49600 78800 92000 129000 141000
2026-03-09 22:00 7.36 45500 200000 (1979) 17300 (1964) 62100 25300 27000 32600 34000 50900 76800 86200 115000 149000
2026-03-09 21:00 7.43 45900 200000 (1979) 17300 (1964) 62100 25300 27000 32600 34000 50900 76800 86200 115000 149000
2026-03-09 20:00 7.47 46100 200000 (1979) 17300 (1964) 62100 25300 27000 32600 34000 50900 76800 86200 115000 149000
2026-03-09 19:00 7.53 46400 200000 (1979) 17300 (1964) 62100 25300 27000 32600 34000 50900 76800 86200 115000 149000
2026-03-09 18:00 7.58 46700 200000 (1979) 17300 (1964) 62100 25300 27000 32600 34000 50900 76800 86200 115000 149000
2026-03-09 17:00 7.60 46800 200000 (1979) 17300 (1964) 62100 25300 27000 32600 34000 50900 76800 86200 115000 149000
2026-03-09 16:00 7.62 46900 200000 (1979) 17300 (1964) 62100 25300 27000 32600 34000 50900 76800 86200 115000 149000
2026-03-09 15:00 7.71 47400 200000 (1979) 17300 (1964) 62100 25300 27000 32600 34000 50900 76800 86200 115000 149000
2026-03-09 14:00 7.75 47600 200000 (1979) 17300 (1964) 62100 25300 27000 32600 34000 50900 76800 86200 115000 149000
2026-03-09 13:00 7.84 48100 200000 (1979) 17300 (1964) 62100 25300 27000 32600 34000 50900 76800 86200 115000 149000
2026-03-09 12:00 7.86 48300 200000 (1979) 17300 (1964) 62100 25300 27000 32600 34000 50900 76800 86200 115000 149000
2026-03-09 11:00 7.93 48700 200000 (1979) 17300 (1964) 62100 25300 27000 32600 34000 50900 76800 86200 115000 149000
2026-03-09 10:00 8.04 49300 200000 (1979) 17300 (1964) 62100 25300 27000 32600 34000 50900 76800 86200 115000 149000
2026-03-09 09:00 8.09 49600 200000 (1979) 17300 (1964) 62100 25300 27000 32600 34000 50900 76800 86200 115000 149000
2026-03-09 08:00 8.12 49700 200000 (1979) 17300 (1964) 62100 25300 27000 32600 34000 50900 76800 86200 115000 149000
2026-03-09 07:00 8.16 50000 200000 (1979) 17300 (1964) 62100 25300 27000 32600 34000 50900 76800 86200 115000 149000
2026-03-09 06:00 8.22 50300 200000 (1979) 17300 (1964) 62100 25300 27000 32600 34000 50900 76800 86200 115000 149000
2026-03-09 05:00 8.28 50700 200000 (1979) 17300 (1964) 62100 25300 27000 32600 34000 50900 76800 86200 115000 149000
2026-03-09 04:00 8.32 50900 200000 (1979) 17300 (1964) 62100 25300 27000 32600 34000 50900 76800 86200 115000 149000
2026-03-09 03:00 8.35 51100 200000 (1979) 17300 (1964) 62100 25300 27000 32600 34000 50900 76800 86200 115000 149000
2026-03-09 02:00 8.39 51300 200000 (1979) 17300 (1964) 62100 25300 27000 32600 34000 50900 76800 86200 115000 149000
2026-03-09 01:00 8.43 51500 200000 (1979) 17300 (1964) 62100 25300 27000 32600 34000 50900 76800 86200 115000 149000
2026-03-09 00:00 8.46 51700 200000 (1979) 17300 (1964) 62100 25300 27000 32600 34000 50900 76800 86200 115000 149000
2026-03-08 23:00 8.48 51800 200000 (1979) 17300 (1964) 62100 25300 27000 32600 34000 50900 76800 86200 115000 149000
2026-03-08 22:00 8.49 51900 203000 (1973) 16900 (1964) 62000 24600 27300 31300 33800 51300 77200 79500 124000 166000
2026-03-08 21:00 8.51 52000 203000 (1973) 16900 (1964) 62000 24600 27300 31300 33800 51300 77200 79500 124000 166000
2026-03-08 20:00 8.51 52000 203000 (1973) 16900 (1964) 62000 24600 27300 31300 33800 51300 77200 79500 124000 166000
2026-03-08 19:00 8.50 51900 203000 (1973) 16900 (1964) 62000 24600 27300 31300 33800 51300 77200 79500 124000 166000
2026-03-08 18:00 8.50 51900 203000 (1973) 16900 (1964) 62000 24600 27300 31300 33800 51300 77200 79500 124000 166000
2026-03-08 17:00 8.46 51700 203000 (1973) 16900 (1964) 62000 24600 27300 31300 33800 51300 77200 79500 124000 166000
2026-03-08 16:00 8.45 51600 203000 (1973) 16900 (1964) 62000 24600 27300 31300 33800 51300 77200 79500 124000 166000
2026-03-08 15:00 8.42 51500 203000 (1973) 16900 (1964) 62000 24600 27300 31300 33800 51300 77200 79500 124000 166000
2026-03-08 14:00 8.39 51300 203000 (1973) 16900 (1964) 62000 24600 27300 31300 33800 51300 77200 79500 124000 166000
2026-03-08 13:00 8.30 50800 203000 (1973) 16900 (1964) 62000 24600 27300 31300 33800 51300 77200 79500 124000 166000
2026-03-08 12:00 8.31 50800 203000 (1973) 16900 (1964) 62000 24600 27300 31300 33800 51300 77200 79500 124000 166000
2026-03-08 11:00 8.22 50300 203000 (1973) 16900 (1964) 62000 24600 27300 31300 33800 51300 77200 79500 124000 166000
2026-03-08 10:00 8.20 50200 203000 (1973) 16900 (1964) 62000 24600 27300 31300 33800 51300 77200 79500 124000 166000
2026-03-08 09:00 8.13 49800 203000 (1973) 16900 (1964) 62000 24600 27300 31300 33800 51300 77200 79500 124000 166000
2026-03-08 08:00 8.05 49300 203000 (1973) 16900 (1964) 62000 24600 27300 31300 33800 51300 77200 79500 124000 166000
2026-03-08 07:00 7.97 48900 203000 (1973) 16900 (1964) 62000 24600 27300 31300 33800 51300 77200 79500 124000 166000
2026-03-08 06:00 7.88 48400 203000 (1973) 16900 (1964) 62000 24600 27300 31300 33800 51300 77200 79500 124000 166000
2026-03-08 05:00 7.78 47800 203000 (1973) 16900 (1964) 62000 24600 27300 31300 33800 51300 77200 79500 124000 166000
2026-03-08 04:00 7.68 47300 203000 (1973) 16900 (1964) 62000 24600 27300 31300 33800 51300 77200 79500 124000 166000
2026-03-08 03:00 7.57 46700 203000 (1973) 16900 (1964) 62000 24600 27300 31300 33800 51300 77200 79500 124000 166000
2026-03-08 01:00 7.45 46000 203000 (1973) 16900 (1964) 62000 24600 27300 31300 33800 51300 77200 79500 124000 166000
2026-03-08 00:00 7.32 45300 203000 (1973) 16900 (1964) 62000 24600 27300 31300 33800 51300 77200 79500 124000 166000
2026-03-07 23:00 7.20 44700 203000 (1973) 16900 (1964) 62000 24600 27300 31300 33800 51300 77200 79500 124000 166000
2026-03-07 22:00 7.06 43900 195000 (1979) 16000 (1964) 63000 22000 27200 30200 33500 52500 72100 82300 133000 184000
2026-03-07 21:00 6.92 43200 195000 (1979) 16000 (1964) 63000 22000 27200 30200 33500 52500 72100 82300 133000 184000
2026-03-07 20:00 6.77 42500 195000 (1979) 16000 (1964) 63000 22000 27200 30200 33500 52500 72100 82300 133000 184000
2026-03-07 19:00 6.62 41700 195000 (1979) 16000 (1964) 63000 22000 27200 30200 33500 52500 72100 82300 133000 184000
2026-03-07 18:00 6.46 40900 195000 (1979) 16000 (1964) 63000 22000 27200 30200 33500 52500 72100 82300 133000 184000
2026-03-07 17:00 6.28 40000 195000 (1979) 16000 (1964) 63000 22000 27200 30200 33500 52500 72100 82300 133000 184000
2026-03-07 16:00 6.07 39000 195000 (1979) 16000 (1964) 63000 22000 27200 30200 33500 52500 72100 82300 133000 184000
2026-03-07 15:00 5.91 38300 195000 (1979) 16000 (1964) 63000 22000 27200 30200 33500 52500 72100 82300 133000 184000
2026-03-07 14:00 5.71 37300 195000 (1979) 16000 (1964) 63000 22000 27200 30200 33500 52500 72100 82300 133000 184000
2026-03-07 13:00 5.50 36400 195000 (1979) 16000 (1964) 63000 22000 27200 30200 33500 52500 72100 82300 133000 184000
2026-03-07 12:00 5.31 35500 195000 (1979) 16000 (1964) 63000 22000 27200 30200 33500 52500 72100 82300 133000 184000
2026-03-07 11:00 5.17 34900 195000 (1979) 16000 (1964) 63000 22000 27200 30200 33500 52500 72100 82300 133000 184000
2026-03-07 10:00 5.02 34300 195000 (1979) 16000 (1964) 63000 22000 27200 30200 33500 52500 72100 82300 133000 184000
2026-03-07 09:00 4.85 33600 195000 (1979) 16000 (1964) 63000 22000 27200 30200 33500 52500 72100 82300 133000 184000
2026-03-07 08:00 4.79 33300 195000 (1979) 16000 (1964) 63000 22000 27200 30200 33500 52500 72100 82300 133000 184000
2026-03-07 07:00 4.66 32800 195000 (1979) 16000 (1964) 63000 22000 27200 30200 33500 52500 72100 82300 133000 184000
2026-03-07 06:00 4.52 32200 195000 (1979) 16000 (1964) 63000 22000 27200 30200 33500 52500 72100 82300 133000 184000
2026-03-07 05:00 4.45 31900 195000 (1979) 16000 (1964) 63000 22000 27200 30200 33500 52500 72100 82300 133000 184000
2026-03-07 04:00 4.44 31900 195000 (1979) 16000 (1964) 63000 22000 27200 30200 33500 52500 72100 82300 133000 184000
2026-03-07 03:00 4.39 31700 195000 (1979) 16000 (1964) 63000 22000 27200 30200 33500 52500 72100 82300 133000 184000
2026-03-07 02:00 4.28 31200 195000 (1979) 16000 (1964) 63000 22000 27200 30200 33500 52500 72100 82300 133000 184000
2026-03-07 01:00 4.24 31100 195000 (1979) 16000 (1964) 63000 22000 27200 30200 33500 52500 72100 82300 133000 184000
2026-03-07 00:00 4.22 31000 195000 (1979) 16000 (1964) 63000 22000 27200 30200 33500 52500 72100 82300 133000 184000
2026-03-06 23:00 4.23 31000 195000 (1979) 16000 (1964) 63000 22000 27200 30200 33500 52500 72100 82300 133000 184000
2026-03-06 22:00 4.25 31100 228000 (1979) 15500 (1964) 63500 21600 27300 29700 33300 53700 75200 82300 118000 177000
2026-03-06 21:00 4.30 31300 228000 (1979) 15500 (1964) 63500 21600 27300 29700 33300 53700 75200 82300 118000 177000
2026-03-06 20:00 4.31 31300 228000 (1979) 15500 (1964) 63500 21600 27300 29700 33300 53700 75200 82300 118000 177000
2026-03-06 19:00 4.30 31300 228000 (1979) 15500 (1964) 63500 21600 27300 29700 33300 53700 75200 82300 118000 177000
2026-03-06 18:00 4.30 31300 228000 (1979) 15500 (1964) 63500 21600 27300 29700 33300 53700 75200 82300 118000 177000
2026-03-06 17:00 4.31 31300 228000 (1979) 15500 (1964) 63500 21600 27300 29700 33300 53700 75200 82300 118000 177000
2026-03-06 16:00 4.27 31200 228000 (1979) 15500 (1964) 63500 21600 27300 29700 33300 53700 75200 82300 118000 177000
2026-03-06 15:00 4.33 31400 228000 (1979) 15500 (1964) 63500 21600 27300 29700 33300 53700 75200 82300 118000 177000
2026-03-06 14:00 4.29 31300 228000 (1979) 15500 (1964) 63500 21600 27300 29700 33300 53700 75200 82300 118000 177000
2026-03-06 13:00 4.34 31500 228000 (1979) 15500 (1964) 63500 21600 27300 29700 33300 53700 75200 82300 118000 177000
2026-03-06 12:00 4.31 31300 228000 (1979) 15500 (1964) 63500 21600 27300 29700 33300 53700 75200 82300 118000 177000
2026-03-06 11:00 4.31 31300 228000 (1979) 15500 (1964) 63500 21600 27300 29700 33300 53700 75200 82300 118000 177000
2026-03-06 10:00 4.40 31700 228000 (1979) 15500 (1964) 63500 21600 27300 29700 33300 53700 75200 82300 118000 177000
2026-03-06 09:00 4.40 31700 228000 (1979) 15500 (1964) 63500 21600 27300 29700 33300 53700 75200 82300 118000 177000
2026-03-06 08:00 4.41 31700 228000 (1979) 15500 (1964) 63500 21600 27300 29700 33300 53700 75200 82300 118000 177000
2026-03-06 07:00 4.42 31800 228000 (1979) 15500 (1964) 63500 21600 27300 29700 33300 53700 75200 82300 118000 177000
2026-03-06 06:00 4.44 31900 228000 (1979) 15500 (1964) 63500 21600 27300 29700 33300 53700 75200 82300 118000 177000
2026-03-06 05:00 4.44 31900 228000 (1979) 15500 (1964) 63500 21600 27300 29700 33300 53700 75200 82300 118000 177000
2026-03-06 04:00 4.41 31700 228000 (1979) 15500 (1964) 63500 21600 27300 29700 33300 53700 75200 82300 118000 177000
2026-03-06 03:00 4.45 31900 228000 (1979) 15500 (1964) 63500 21600 27300 29700 33300 53700 75200 82300 118000 177000
2026-03-06 02:00 4.43 31800 228000 (1979) 15500 (1964) 63500 21600 27300 29700 33300 53700 75200 82300 118000 177000
2026-03-06 01:00 4.50 32100 228000 (1979) 15500 (1964) 63500 21600 27300 29700 33300 53700 75200 82300 118000 177000
2026-03-06 00:00 4.51 32100 228000 (1979) 15500 (1964) 63500 21600 27300 29700 33300 53700 75200 82300 118000 177000
2026-03-05 23:00 4.53 32200 228000 (1979) 15500 (1964) 63500 21600 27300 29700 33300 53700 75200 82300 118000 177000
2026-03-05 22:00 4.49 32100 220000 (1979) 15300 (1964) 61600 22100 27300 29900 32500 47700 77100 79700 103000 175000
2026-03-05 21:00 4.55 32300 220000 (1979) 15300 (1964) 61600 22100 27300 29900 32500 47700 77100 79700 103000 175000
2026-03-05 20:00 4.57 32400 220000 (1979) 15300 (1964) 61600 22100 27300 29900 32500 47700 77100 79700 103000 175000
2026-03-05 19:00 4.58 32400 220000 (1979) 15300 (1964) 61600 22100 27300 29900 32500 47700 77100 79700 103000 175000
2026-03-05 18:00 4.59 32500 220000 (1979) 15300 (1964) 61600 22100 27300 29900 32500 47700 77100 79700 103000 175000
2026-03-05 17:00 4.60 32500 220000 (1979) 15300 (1964) 61600 22100 27300 29900 32500 47700 77100 79700 103000 175000
2026-03-05 16:00 4.61 32600 220000 (1979) 15300 (1964) 61600 22100 27300 29900 32500 47700 77100 79700 103000 175000
2026-03-05 15:00 4.62 32600 220000 (1979) 15300 (1964) 61600 22100 27300 29900 32500 47700 77100 79700 103000 175000
2026-03-05 14:00 4.63 32600 220000 (1979) 15300 (1964) 61600 22100 27300 29900 32500 47700 77100 79700 103000 175000
2026-03-05 13:00 4.63 32600 220000 (1979) 15300 (1964) 61600 22100 27300 29900 32500 47700 77100 79700 103000 175000
2026-03-05 12:00 4.64 32700 220000 (1979) 15300 (1964) 61600 22100 27300 29900 32500 47700 77100 79700 103000 175000
2026-03-05 11:00 4.63 32600 220000 (1979) 15300 (1964) 61600 22100 27300 29900 32500 47700 77100 79700 103000 175000
2026-03-05 10:00 4.63 32600 220000 (1979) 15300 (1964) 61600 22100 27300 29900 32500 47700 77100 79700 103000 175000
2026-03-05 09:00 4.63 32600 220000 (1979) 15300 (1964) 61600 22100 27300 29900 32500 47700 77100 79700 103000 175000
2026-03-05 08:00 4.63 32600 220000 (1979) 15300 (1964) 61600 22100 27300 29900 32500 47700 77100 79700 103000 175000
2026-03-05 07:00 4.63 32600 220000 (1979) 15300 (1964) 61600 22100 27300 29900 32500 47700 77100 79700 103000 175000
2026-03-05 06:00 4.62 32600 220000 (1979) 15300 (1964) 61600 22100 27300 29900 32500 47700 77100 79700 103000 175000
2026-03-05 05:00 4.61 32600 220000 (1979) 15300 (1964) 61600 22100 27300 29900 32500 47700 77100 79700 103000 175000
2026-03-05 04:00 4.59 32500 220000 (1979) 15300 (1964) 61600 22100 27300 29900 32500 47700 77100 79700 103000 175000
2026-03-05 03:00 4.59 32500 220000 (1979) 15300 (1964) 61600 22100 27300 29900 32500 47700 77100 79700 103000 175000
2026-03-05 02:00 4.58 32400 220000 (1979) 15300 (1964) 61600 22100 27300 29900 32500 47700 77100 79700 103000 175000
2026-03-05 01:00 4.56 32300 220000 (1979) 15300 (1964) 61600 22100 27300 29900 32500 47700 77100 79700 103000 175000
2026-03-05 00:00 4.54 32300 220000 (1979) 15300 (1964) 61600 22100 27300 29900 32500 47700 77100 79700 103000 175000
2026-03-04 23:00 4.52 32200 220000 (1979) 15300 (1964) 61600 22100 27300 29900 32500 47700 77100 79700 103000 175000
2026-03-04 22:00 4.46 31900 174000 (1985) 15100 (1964) 59000 22900 25600 29600 31300 49500 78700 83200 103000 152000
2026-03-04 21:00 4.46 31900 174000 (1985) 15100 (1964) 59000 22900 25600 29600 31300 49500 78700 83200 103000 152000
2026-03-04 20:00 4.43 31800 174000 (1985) 15100 (1964) 59000 22900 25600 29600 31300 49500 78700 83200 103000 152000
2026-03-04 19:00 4.38 31600 174000 (1985) 15100 (1964) 59000 22900 25600 29600 31300 49500 78700 83200 103000 152000
2026-03-04 18:00 4.34 31500 174000 (1985) 15100 (1964) 59000 22900 25600 29600 31300 49500 78700 83200 103000 152000
2026-03-04 17:00 4.28 31200 174000 (1985) 15100 (1964) 59000 22900 25600 29600 31300 49500 78700 83200 103000 152000
2026-03-04 16:00 4.23 31000 174000 (1985) 15100 (1964) 59000 22900 25600 29600 31300 49500 78700 83200 103000 152000
2026-03-04 15:00 4.16 30700 174000 (1985) 15100 (1964) 59000 22900 25600 29600 31300 49500 78700 83200 103000 152000
2026-03-04 14:00 4.11 30500 174000 (1985) 15100 (1964) 59000 22900 25600 29600 31300 49500 78700 83200 103000 152000
2026-03-04 13:00 4.06 30300 174000 (1985) 15100 (1964) 59000 22900 25600 29600 31300 49500 78700 83200 103000 152000
2026-03-04 12:00 3.91 29800 174000 (1985) 15100 (1964) 59000 22900 25600 29600 31300 49500 78700 83200 103000 152000
2026-03-04 11:00 3.94 29900 174000 (1985) 15100 (1964) 59000 22900 25600 29600 31300 49500 78700 83200 103000 152000
2026-03-04 10:00 3.88 29600 174000 (1985) 15100 (1964) 59000 22900 25600 29600 31300 49500 78700 83200 103000 152000
2026-03-04 09:00 3.77 29200 174000 (1985) 15100 (1964) 59000 22900 25600 29600 31300 49500 78700 83200 103000 152000
2026-03-04 08:00 3.78 29300 174000 (1985) 15100 (1964) 59000 22900 25600 29600 31300 49500 78700 83200 103000 152000
2026-03-04 07:00 3.74 29100 174000 (1985) 15100 (1964) 59000 22900 25600 29600 31300 49500 78700 83200 103000 152000
2026-03-04 06:00 3.65 28800 174000 (1985) 15100 (1964) 59000 22900 25600 29600 31300 49500 78700 83200 103000 152000
2026-03-04 05:00 3.65 28800 174000 (1985) 15100 (1964) 59000 22900 25600 29600 31300 49500 78700 83200 103000 152000
2026-03-04 04:00 3.63 28700 174000 (1985) 15100 (1964) 59000 22900 25600 29600 31300 49500 78700 83200 103000 152000
2026-03-04 03:00 3.60 28600 174000 (1985) 15100 (1964) 59000 22900 25600 29600 31300 49500 78700 83200 103000 152000
2026-03-04 02:00 3.58 28500 174000 (1985) 15100 (1964) 59000 22900 25600 29600 31300 49500 78700 83200 103000 152000
2026-03-04 01:00 3.55 28400 174000 (1985) 15100 (1964) 59000 22900 25600 29600 31300 49500 78700 83200 103000 152000
2026-03-04 00:00 3.47 28100 174000 (1985) 15100 (1964) 59000 22900 25600 29600 31300 49500 78700 83200 103000 152000
2026-03-03 23:00 3.45 28000 174000 (1985) 15100 (1964) 59000 22900 25600 29600 31300 49500 78700 83200 103000 152000
2026-03-03 22:00 3.45 28000 136000 (1987) 15100 (1964) 56900 22200 25500 30200 31200 47400 78600 84100 106000 124000
2026-03-03 21:00 3.46 28100 136000 (1987) 15100 (1964) 56900 22200 25500 30200 31200 47400 78600 84100 106000 124000
2026-03-03 20:00 3.44 28000 136000 (1987) 15100 (1964) 56900 22200 25500 30200 31200 47400 78600 84100 106000 124000
2026-03-03 19:00 3.42 27900 136000 (1987) 15100 (1964) 56900 22200 25500 30200 31200 47400 78600 84100 106000 124000
2026-03-03 18:00 3.40 27800 136000 (1987) 15100 (1964) 56900 22200 25500 30200 31200 47400 78600 84100 106000 124000
2026-03-03 17:00 3.38 27800 136000 (1987) 15100 (1964) 56900 22200 25500 30200 31200 47400 78600 84100 106000 124000
2026-03-03 16:00 3.36 27700 136000 (1987) 15100 (1964) 56900 22200 25500 30200 31200 47400 78600 84100 106000 124000
2026-03-03 15:00 3.34 27600 136000 (1987) 15100 (1964) 56900 22200 25500 30200 31200 47400 78600 84100 106000 124000
2026-03-03 14:00 3.31 27500 136000 (1987) 15100 (1964) 56900 22200 25500 30200 31200 47400 78600 84100 106000 124000
2026-03-03 13:00 3.29 27400 136000 (1987) 15100 (1964) 56900 22200 25500 30200 31200 47400 78600 84100 106000 124000
2026-03-03 12:00 3.23 27200 136000 (1987) 15100 (1964) 56900 22200 25500 30200 31200 47400 78600 84100 106000 124000
2026-03-03 11:00 3.21 27200 136000 (1987) 15100 (1964) 56900 22200 25500 30200 31200 47400 78600 84100 106000 124000
2026-03-03 10:00 3.20 27100 136000 (1987) 15100 (1964) 56900 22200 25500 30200 31200 47400 78600 84100 106000 124000
2026-03-03 09:00 3.22 27200 136000 (1987) 15100 (1964) 56900 22200 25500 30200 31200 47400 78600 84100 106000 124000
2026-03-03 08:00 3.20 27100 136000 (1987) 15100 (1964) 56900 22200 25500 30200 31200 47400 78600 84100 106000 124000
2026-03-03 07:00 3.17 27000 136000 (1987) 15100 (1964) 56900 22200 25500 30200 31200 47400 78600 84100 106000 124000
2026-03-03 06:00 3.21 27200 136000 (1987) 15100 (1964) 56900 22200 25500 30200 31200 47400 78600 84100 106000 124000
2026-03-03 05:00 3.15 26900 136000 (1987) 15100 (1964) 56900 22200 25500 30200 31200 47400 78600 84100 106000 124000
2026-03-03 04:00 3.17 27000 136000 (1987) 15100 (1964) 56900 22200 25500 30200 31200 47400 78600 84100 106000 124000
2026-03-03 03:00 3.17 27000 136000 (1987) 15100 (1964) 56900 22200 25500 30200 31200 47400 78600 84100 106000 124000
2026-03-03 02:00 3.11 26800 136000 (1987) 15100 (1964) 56900 22200 25500 30200 31200 47400 78600 84100 106000 124000
2026-03-03 01:00 3.10 26800 136000 (1987) 15100 (1964) 56900 22200 25500 30200 31200 47400 78600 84100 106000 124000
2026-03-03 00:00 3.11 26800 136000 (1987) 15100 (1964) 56900 22200 25500 30200 31200 47400 78600 84100 106000 124000
2026-03-02 23:00 3.09 26700 136000 (1987) 15100 (1964) 56900 22200 25500 30200 31200 47400 78600 84100 106000 124000
2026-03-02 22:00 3.10 26800 142000 (1987) 15300 (1967) 56600 22400 26600 29500 31800 46200 70100 81600 107000 136000
2026-03-02 21:00 3.14 26900 142000 (1987) 15300 (1967) 56600 22400 26600 29500 31800 46200 70100 81600 107000 136000
2026-03-02 20:00 3.11 26800 142000 (1987) 15300 (1967) 56600 22400 26600 29500 31800 46200 70100 81600 107000 136000
2026-03-02 19:00 3.13 26900 142000 (1987) 15300 (1967) 56600 22400 26600 29500 31800 46200 70100 81600 107000 136000
2026-03-02 18:00 3.11 26800 142000 (1987) 15300 (1967) 56600 22400 26600 29500 31800 46200 70100 81600 107000 136000
2026-03-02 17:00 3.11 26800 142000 (1987) 15300 (1967) 56600 22400 26600 29500 31800 46200 70100 81600 107000 136000
2026-03-02 16:00 3.10 26800 142000 (1987) 15300 (1967) 56600 22400 26600 29500 31800 46200 70100 81600 107000 136000
2026-03-02 15:00 3.09 26700 142000 (1987) 15300 (1967) 56600 22400 26600 29500 31800 46200 70100 81600 107000 136000
2026-03-02 14:00 3.12 26800 142000 (1987) 15300 (1967) 56600 22400 26600 29500 31800 46200 70100 81600 107000 136000
2026-03-02 13:00 3.10 26800 142000 (1987) 15300 (1967) 56600 22400 26600 29500 31800 46200 70100 81600 107000 136000
2026-03-02 12:00 3.10 26800 142000 (1987) 15300 (1967) 56600 22400 26600 29500 31800 46200 70100 81600 107000 136000
2026-03-02 11:00 3.12 26800 142000 (1987) 15300 (1967) 56600 22400 26600 29500 31800 46200 70100 81600 107000 136000
2026-03-02 10:00 3.12 26800 142000 (1987) 15300 (1967) 56600 22400 26600 29500 31800 46200 70100 81600 107000 136000
2026-03-02 09:00 3.10 26800 142000 (1987) 15300 (1967) 56600 22400 26600 29500 31800 46200 70100 81600 107000 136000
2026-03-02 08:00 3.11 26800 142000 (1987) 15300 (1967) 56600 22400 26600 29500 31800 46200 70100 81600 107000 136000
2026-03-02 07:00 3.11 26800 142000 (1987) 15300 (1967) 56600 22400 26600 29500 31800 46200 70100 81600 107000 136000
2026-03-02 06:00 3.16 27000 142000 (1987) 15300 (1967) 56600 22400 26600 29500 31800 46200 70100 81600 107000 136000
2026-03-02 05:00 3.16 27000 142000 (1987) 15300 (1967) 56600 22400 26600 29500 31800 46200 70100 81600 107000 136000
2026-03-02 04:00 3.15 26900 142000 (1987) 15300 (1967) 56600 22400 26600 29500 31800 46200 70100 81600 107000 136000
2026-03-02 03:00 3.17 27000 142000 (1987) 15300 (1967) 56600 22400 26600 29500 31800 46200 70100 81600 107000 136000
2026-03-02 02:00 3.18 27100 142000 (1987) 15300 (1967) 56600 22400 26600 29500 31800 46200 70100 81600 107000 136000
2026-03-02 01:00 3.18 27100 142000 (1987) 15300 (1967) 56600 22400 26600 29500 31800 46200 70100 81600 107000 136000
2026-03-02 00:00 3.16 27000 142000 (1987) 15300 (1967) 56600 22400 26600 29500 31800 46200 70100 81600 107000 136000
2026-03-01 23:00 3.16 27000 142000 (1987) 15300 (1967) 56600 22400 26600 29500 31800 46200 70100 81600 107000 136000
2026-03-01 22:00 3.19 27100 149000 (1997) 15300 (1967) 56200 23100 26600 30600 32500 45500 71600 75400 102000 139000
2026-03-01 21:00 3.18 27100 149000 (1997) 15300 (1967) 56200 23100 26600 30600 32500 45500 71600 75400 102000 139000
2026-03-01 20:00 3.15 26900 149000 (1997) 15300 (1967) 56200 23100 26600 30600 32500 45500 71600 75400 102000 139000
2026-03-01 19:00 3.16 27000 149000 (1997) 15300 (1967) 56200 23100 26600 30600 32500 45500 71600 75400 102000 139000
2026-03-01 18:00 3.16 27000 149000 (1997) 15300 (1967) 56200 23100 26600 30600 32500 45500 71600 75400 102000 139000
2026-03-01 17:00 3.12 26800 149000 (1997) 15300 (1967) 56200 23100 26600 30600 32500 45500 71600 75400 102000 139000
2026-03-01 16:00 3.10 26800 149000 (1997) 15300 (1967) 56200 23100 26600 30600 32500 45500 71600 75400 102000 139000
2026-03-01 15:00 3.15 26900 149000 (1997) 15300 (1967) 56200 23100 26600 30600 32500 45500 71600 75400 102000 139000
2026-03-01 14:00 3.17 27000 149000 (1997) 15300 (1967) 56200 23100 26600 30600 32500 45500 71600 75400 102000 139000
2026-03-01 13:00 3.17 27000 149000 (1997) 15300 (1967) 56200 23100 26600 30600 32500 45500 71600 75400 102000 139000
2026-03-01 12:00 3.13 26900 149000 (1997) 15300 (1967) 56200 23100 26600 30600 32500 45500 71600 75400 102000 139000
2026-03-01 11:00 3.13 26900 149000 (1997) 15300 (1967) 56200 23100 26600 30600 32500 45500 71600 75400 102000 139000
2026-03-01 10:00 3.14 26900 149000 (1997) 15300 (1967) 56200 23100 26600 30600 32500 45500 71600 75400 102000 139000
2026-03-01 09:00 3.12 26800 149000 (1997) 15300 (1967) 56200 23100 26600 30600 32500 45500 71600 75400 102000 139000
2026-03-01 08:00 3.14 26900 149000 (1997) 15300 (1967) 56200 23100 26600 30600 32500 45500 71600 75400 102000 139000
2026-03-01 07:00 3.14 26900 149000 (1997) 15300 (1967) 56200 23100 26600 30600 32500 45500 71600 75400 102000 139000
2026-03-01 06:00 3.15 26900 149000 (1997) 15300 (1967) 56200 23100 26600 30600 32500 45500 71600 75400 102000 139000
2026-03-01 05:00 3.17 27000 149000 (1997) 15300 (1967) 56200 23100 26600 30600 32500 45500 71600 75400 102000 139000
2026-03-01 04:00 3.17 27000 149000 (1997) 15300 (1967) 56200 23100 26600 30600 32500 45500 71600 75400 102000 139000
2026-03-01 03:00 3.19 27100 149000 (1997) 15300 (1967) 56200 23100 26600 30600 32500 45500 71600 75400 102000 139000
2026-03-01 02:00 3.20 27100 149000 (1997) 15300 (1967) 56200 23100 26600 30600 32500 45500 71600 75400 102000 139000
2026-03-01 01:00 3.18 27100 149000 (1997) 15300 (1967) 56200 23100 26600 30600 32500 45500 71600 75400 102000 139000
2026-03-01 00:00 3.19 27100 149000 (1997) 15300 (1967) 56200 23100 26600 30600 32500 45500 71600 75400 102000 139000
2026-02-28 23:00 3.23 27200 149000 (1997) 15300 (1967) 56200 23100 26600 30600 32500 45500 71600 75400 102000 139000
2026-02-28 22:00 3.20 27100 167000 (1985) 15800 (1964) 57300 24000 25400 30800 32400 46200 71300 86700 101000 153000
2026-02-28 21:00 3.22 27200 167000 (1985) 15800 (1964) 57300 24000 25400 30800 32400 46200 71300 86700 101000 153000
2026-02-28 20:00 3.22 27200 167000 (1985) 15800 (1964) 57300 24000 25400 30800 32400 46200 71300 86700 101000 153000
2026-02-28 19:00 3.24 27300 167000 (1985) 15800 (1964) 57300 24000 25400 30800 32400 46200 71300 86700 101000 153000
2026-02-28 18:00 3.24 27300 167000 (1985) 15800 (1964) 57300 24000 25400 30800 32400 46200 71300 86700 101000 153000
2026-02-28 17:00 3.31 27500 167000 (1985) 15800 (1964) 57300 24000 25400 30800 32400 46200 71300 86700 101000 153000
2026-02-28 16:00 3.33 27600 167000 (1985) 15800 (1964) 57300 24000 25400 30800 32400 46200 71300 86700 101000 153000
2026-02-28 15:00 3.34 27600 167000 (1985) 15800 (1964) 57300 24000 25400 30800 32400 46200 71300 86700 101000 153000
2026-02-28 14:00 3.35 27700 167000 (1985) 15800 (1964) 57300 24000 25400 30800 32400 46200 71300 86700 101000 153000
2026-02-28 13:00 3.31 27500 167000 (1985) 15800 (1964) 57300 24000 25400 30800 32400 46200 71300 86700 101000 153000
2026-02-28 12:00 3.30 27500 167000 (1985) 15800 (1964) 57300 24000 25400 30800 32400 46200 71300 86700 101000 153000
2026-02-28 11:00 3.31 27500 167000 (1985) 15800 (1964) 57300 24000 25400 30800 32400 46200 71300 86700 101000 153000
2026-02-28 10:00 3.31 27500 167000 (1985) 15800 (1964) 57300 24000 25400 30800 32400 46200 71300 86700 101000 153000
2026-02-28 09:00 3.32 27600 167000 (1985) 15800 (1964) 57300 24000 25400 30800 32400 46200 71300 86700 101000 153000
2026-02-28 08:00 3.37 27700 167000 (1985) 15800 (1964) 57300 24000 25400 30800 32400 46200 71300 86700 101000 153000
2026-02-28 07:00 3.37 27700 167000 (1985) 15800 (1964) 57300 24000 25400 30800 32400 46200 71300 86700 101000 153000
2026-02-28 06:00 3.37 27700 167000 (1985) 15800 (1964) 57300 24000 25400 30800 32400 46200 71300 86700 101000 153000
2026-02-28 05:00 3.43 28000 167000 (1985) 15800 (1964) 57300 24000 25400 30800 32400 46200 71300 86700 101000 153000
2026-02-28 04:00 3.44 28000 167000 (1985) 15800 (1964) 57300 24000 25400 30800 32400 46200 71300 86700 101000 153000
2026-02-28 03:00 3.40 27800 167000 (1985) 15800 (1964) 57300 24000 25400 30800 32400 46200 71300 86700 101000 153000
2026-02-28 02:00 3.46 28100 167000 (1985) 15800 (1964) 57300 24000 25400 30800 32400 46200 71300 86700 101000 153000
2026-02-28 01:00 3.47 28100 167000 (1985) 15800 (1964) 57300 24000 25400 30800 32400 46200 71300 86700 101000 153000
2026-02-28 00:00 3.48 28100 167000 (1985) 15800 (1964) 57300 24000 25400 30800 32400 46200 71300 86700 101000 153000
2026-02-27 23:00 3.48 28100 167000 (1985) 15800 (1964) 57300 24000 25400 30800 32400 46200 71300 86700 101000 153000
2026-02-27 22:00 3.49 28200 207000 (1985) 16400 (1964) 58400 23000 25300 31100 32500 45500 71500 78800 103000 161000
2026-02-27 21:00 3.50 28200 207000 (1985) 16400 (1964) 58400 23000 25300 31100 32500 45500 71500 78800 103000 161000
2026-02-27 20:00 3.51 28300 207000 (1985) 16400 (1964) 58400 23000 25300 31100 32500 45500 71500 78800 103000 161000
2026-02-27 19:00 3.52 28300 207000 (1985) 16400 (1964) 58400 23000 25300 31100 32500 45500 71500 78800 103000 161000
2026-02-27 18:00 3.53 28300 207000 (1985) 16400 (1964) 58400 23000 25300 31100 32500 45500 71500 78800 103000 161000
2026-02-27 17:00 3.52 28300 207000 (1985) 16400 (1964) 58400 23000 25300 31100 32500 45500 71500 78800 103000 161000
2026-02-27 16:00 3.46 28100 207000 (1985) 16400 (1964) 58400 23000 25300 31100 32500 45500 71500 78800 103000 161000
2026-02-27 15:00 3.47 28100 207000 (1985) 16400 (1964) 58400 23000 25300 31100 32500 45500 71500 78800 103000 161000
2026-02-27 14:00 3.50 28200 207000 (1985) 16400 (1964) 58400 23000 25300 31100 32500 45500 71500 78800 103000 161000
2026-02-27 13:00 3.50 28200 207000 (1985) 16400 (1964) 58400 23000 25300 31100 32500 45500 71500 78800 103000 161000
2026-02-27 12:00 3.54 28400 207000 (1985) 16400 (1964) 58400 23000 25300 31100 32500 45500 71500 78800 103000 161000
2026-02-27 11:00 3.56 28400 207000 (1985) 16400 (1964) 58400 23000 25300 31100 32500 45500 71500 78800 103000 161000
2026-02-27 10:00 3.57 28500 207000 (1985) 16400 (1964) 58400 23000 25300 31100 32500 45500 71500 78800 103000 161000
2026-02-27 09:00 3.66 28800 207000 (1985) 16400 (1964) 58400 23000 25300 31100 32500 45500 71500 78800 103000 161000
2026-02-27 08:00 3.66 28800 207000 (1985) 16400 (1964) 58400 23000 25300 31100 32500 45500 71500 78800 103000 161000
2026-02-27 07:00 3.66 28800 207000 (1985) 16400 (1964) 58400 23000 25300 31100 32500 45500 71500 78800 103000 161000
2026-02-27 06:00 3.68 28900 207000 (1985) 16400 (1964) 58400 23000 25300 31100 32500 45500 71500 78800 103000 161000
2026-02-27 05:00 3.69 28900 207000 (1985) 16400 (1964) 58400 23000 25300 31100 32500 45500 71500 78800 103000 161000
2026-02-27 04:00 3.70 29000 207000 (1985) 16400 (1964) 58400 23000 25300 31100 32500 45500 71500 78800 103000 161000
2026-02-27 03:00 3.70 29000 207000 (1985) 16400 (1964) 58400 23000 25300 31100 32500 45500 71500 78800 103000 161000
2026-02-27 02:00 3.71 29000 207000 (1985) 16400 (1964) 58400 23000 25300 31100 32500 45500 71500 78800 103000 161000
2026-02-27 01:00 3.71 29000 207000 (1985) 16400 (1964) 58400 23000 25300 31100 32500 45500 71500 78800 103000 161000
2026-02-27 00:00 3.72 29000 207000 (1985) 16400 (1964) 58400 23000 25300 31100 32500 45500 71500 78800 103000 161000
2026-02-26 23:00 3.73 29100 207000 (1985) 16400 (1964) 58400 23000 25300 31100 32500 45500 71500 78800 103000 161000
2026-02-26 22:00 3.74 29100 248000 (1985) 16200 (1967) 60000 22800 25800 31500 33900 48000 67500 78500 107000 176000
2026-02-26 21:00 3.75 29100 248000 (1985) 16200 (1967) 60000 22800 25800 31500 33900 48000 67500 78500 107000 176000
2026-02-26 20:00 3.75 29100 248000 (1985) 16200 (1967) 60000 22800 25800 31500 33900 48000 67500 78500 107000 176000
2026-02-26 19:00 3.75 29100 248000 (1985) 16200 (1967) 60000 22800 25800 31500 33900 48000 67500 78500 107000 176000
2026-02-26 18:00 3.76 29200 248000 (1985) 16200 (1967) 60000 22800 25800 31500 33900 48000 67500 78500 107000 176000
2026-02-26 17:00 3.77 29200 248000 (1985) 16200 (1967) 60000 22800 25800 31500 33900 48000 67500 78500 107000 176000
2026-02-26 16:00 3.77 29200 248000 (1985) 16200 (1967) 60000 22800 25800 31500 33900 48000 67500 78500 107000 176000
2026-02-26 15:00 3.77 29200 248000 (1985) 16200 (1967) 60000 22800 25800 31500 33900 48000 67500 78500 107000 176000
2026-02-26 14:00 3.78 29300 248000 (1985) 16200 (1967) 60000 22800 25800 31500 33900 48000 67500 78500 107000 176000
2026-02-26 13:00 3.78 29300 248000 (1985) 16200 (1967) 60000 22800 25800 31500 33900 48000 67500 78500 107000 176000
2026-02-26 12:00 3.78 29300 248000 (1985) 16200 (1967) 60000 22800 25800 31500 33900 48000 67500 78500 107000 176000
2026-02-26 11:00 3.79 29300 248000 (1985) 16200 (1967) 60000 22800 25800 31500 33900 48000 67500 78500 107000 176000
2026-02-26 10:00 3.77 29200 248000 (1985) 16200 (1967) 60000 22800 25800 31500 33900 48000 67500 78500 107000 176000
2026-02-26 09:00 3.74 29100 248000 (1985) 16200 (1967) 60000 22800 25800 31500 33900 48000 67500 78500 107000 176000
2026-02-26 08:00 3.78 29300 248000 (1985) 16200 (1967) 60000 22800 25800 31500 33900 48000 67500 78500 107000 176000
2026-02-26 07:00 3.78 29300 248000 (1985) 16200 (1967) 60000 22800 25800 31500 33900 48000 67500 78500 107000 176000
2026-02-26 06:00 3.79 29300 248000 (1985) 16200 (1967) 60000 22800 25800 31500 33900 48000 67500 78500 107000 176000
2026-02-26 05:00 3.80 29300 248000 (1985) 16200 (1967) 60000 22800 25800 31500 33900 48000 67500 78500 107000 176000
2026-02-26 04:00 3.75 29100 248000 (1985) 16200 (1967) 60000 22800 25800 31500 33900 48000 67500 78500 107000 176000
2026-02-26 03:00 3.74 29100 248000 (1985) 16200 (1967) 60000 22800 25800 31500 33900 48000 67500 78500 107000 176000
2026-02-26 02:00 3.71 29000 248000 (1985) 16200 (1967) 60000 22800 25800 31500 33900 48000 67500 78500 107000 176000
2026-02-26 00:00 3.70 29000 248000 (1985) 16200 (1967) 60000 22800 25800 31500 33900 48000 67500 78500 107000 176000
2026-02-25 23:00 3.71 29000 248000 (1985) 16200 (1967) 60000 22800 25800 31500 33900 48000 67500 78500 107000 176000
2026-02-25 22:00 3.79 29300 280000 (1985) 15800 (1967) 60200 23700 25500 31600 35000 45900 69100 81500 107000 174000
2026-02-25 21:00 3.79 29300 280000 (1985) 15800 (1967) 60200 23700 25500 31600 35000 45900 69100 81500 107000 174000
2026-02-25 20:00 3.75 29100 280000 (1985) 15800 (1967) 60200 23700 25500 31600 35000 45900 69100 81500 107000 174000
2026-02-25 19:00 3.73 29100 280000 (1985) 15800 (1967) 60200 23700 25500 31600 35000 45900 69100 81500 107000 174000
2026-02-25 18:00 3.71 29000 280000 (1985) 15800 (1967) 60200 23700 25500 31600 35000 45900 69100 81500 107000 174000
2026-02-25 17:00 3.70 29000 280000 (1985) 15800 (1967) 60200 23700 25500 31600 35000 45900 69100 81500 107000 174000
2026-02-25 16:00 3.77 29200 280000 (1985) 15800 (1967) 60200 23700 25500 31600 35000 45900 69100 81500 107000 174000
2026-02-25 15:00 3.78 29300 280000 (1985) 15800 (1967) 60200 23700 25500 31600 35000 45900 69100 81500 107000 174000
2026-02-25 14:00 3.78 29300 280000 (1985) 15800 (1967) 60200 23700 25500 31600 35000 45900 69100 81500 107000 174000
2026-02-25 13:00 3.77 29200 280000 (1985) 15800 (1967) 60200 23700 25500 31600 35000 45900 69100 81500 107000 174000
2026-02-25 12:00 3.77 29200 280000 (1985) 15800 (1967) 60200 23700 25500 31600 35000 45900 69100 81500 107000 174000
2026-02-25 11:00 3.77 29200 280000 (1985) 15800 (1967) 60200 23700 25500 31600 35000 45900 69100 81500 107000 174000
2026-02-25 10:00 3.77 29200 280000 (1985) 15800 (1967) 60200 23700 25500 31600 35000 45900 69100 81500 107000 174000
2026-02-25 09:00 3.77 29200 280000 (1985) 15800 (1967) 60200 23700 25500 31600 35000 45900 69100 81500 107000 174000
2026-02-25 08:00 3.77 29200 280000 (1985) 15800 (1967) 60200 23700 25500 31600 35000 45900 69100 81500 107000 174000
2026-02-25 07:00 3.77 29200 280000 (1985) 15800 (1967) 60200 23700 25500 31600 35000 45900 69100 81500 107000 174000
2026-02-25 06:00 3.77 29200 280000 (1985) 15800 (1967) 60200 23700 25500 31600 35000 45900 69100 81500 107000 174000
2026-02-25 05:00 3.77 29200 280000 (1985) 15800 (1967) 60200 23700 25500 31600 35000 45900 69100 81500 107000 174000
2026-02-25 04:00 3.77 29200 280000 (1985) 15800 (1967) 60200 23700 25500 31600 35000 45900 69100 81500 107000 174000
2026-02-25 03:00 3.77 29200 280000 (1985) 15800 (1967) 60200 23700 25500 31600 35000 45900 69100 81500 107000 174000
2026-02-25 02:00 3.77 29200 280000 (1985) 15800 (1967) 60200 23700 25500 31600 35000 45900 69100 81500 107000 174000
2026-02-25 01:00 3.76 29200 280000 (1985) 15800 (1967) 60200 23700 25500 31600 35000 45900 69100 81500 107000 174000
2026-02-25 00:00 3.76 29200 280000 (1985) 15800 (1967) 60200 23700 25500 31600 35000 45900 69100 81500 107000 174000
2026-02-24 23:00 3.76 29200 280000 (1985) 15800 (1967) 60200 23700 25500 31600 35000 45900 69100 81500 107000 174000
2026-02-24 22:00 3.76 29200 284000 (1985) 16000 (1967) 59600 23100 25500 29400 33500 44700 67100 74400 107000 188000
2026-02-24 21:00 3.76 29200 284000 (1985) 16000 (1967) 59600 23100 25500 29400 33500 44700 67100 74400 107000 188000
2026-02-24 20:00 3.76 29200 284000 (1985) 16000 (1967) 59600 23100 25500 29400 33500 44700 67100 74400 107000 188000
2026-02-24 19:00 3.76 29200 284000 (1985) 16000 (1967) 59600 23100 25500 29400 33500 44700 67100 74400 107000 188000
2026-02-24 18:00 3.75 29100 284000 (1985) 16000 (1967) 59600 23100 25500 29400 33500 44700 67100 74400 107000 188000
2026-02-24 17:00 3.69 28900 284000 (1985) 16000 (1967) 59600 23100 25500 29400 33500 44700 67100 74400 107000 188000
2026-02-24 16:00 3.69 28900 284000 (1985) 16000 (1967) 59600 23100 25500 29400 33500 44700 67100 74400 107000 188000
2026-02-24 15:00 3.69 28900 284000 (1985) 16000 (1967) 59600 23100 25500 29400 33500 44700 67100 74400 107000 188000
2026-02-24 14:00 3.68 28900 284000 (1985) 16000 (1967) 59600 23100 25500 29400 33500 44700 67100 74400 107000 188000
2026-02-24 13:00 3.67 28800 284000 (1985) 16000 (1967) 59600 23100 25500 29400 33500 44700 67100 74400 107000 188000
2026-02-24 12:00 3.73 29100 284000 (1985) 16000 (1967) 59600 23100 25500 29400 33500 44700 67100 74400 107000 188000
2026-02-24 11:00 3.75 29100 284000 (1985) 16000 (1967) 59600 23100 25500 29400 33500 44700 67100 74400 107000 188000
2026-02-24 10:00 3.75 29100 284000 (1985) 16000 (1967) 59600 23100 25500 29400 33500 44700 67100 74400 107000 188000
2026-02-24 09:00 3.82 29400 284000 (1985) 16000 (1967) 59600 23100 25500 29400 33500 44700 67100 74400 107000 188000
2026-02-24 08:00 3.82 29400 284000 (1985) 16000 (1967) 59600 23100 25500 29400 33500 44700 67100 74400 107000 188000
2026-02-24 07:00 3.82 29400 284000 (1985) 16000 (1967) 59600 23100 25500 29400 33500 44700 67100 74400 107000 188000
2026-02-24 06:00 3.80 29300 284000 (1985) 16000 (1967) 59600 23100 25500 29400 33500 44700 67100 74400 107000 188000
2026-02-24 05:00 3.79 29300 284000 (1985) 16000 (1967) 59600 23100 25500 29400 33500 44700 67100 74400 107000 188000
2026-02-24 04:00 3.84 29500 284000 (1985) 16000 (1967) 59600 23100 25500 29400 33500 44700 67100 74400 107000 188000
2026-02-24 03:00 3.84 29500 284000 (1985) 16000 (1967) 59600 23100 25500 29400 33500 44700 67100 74400 107000 188000
2026-02-24 02:00 3.86 29600 284000 (1985) 16000 (1967) 59600 23100 25500 29400 33500 44700 67100 74400 107000 188000
2026-02-24 01:00 3.85 29500 284000 (1985) 16000 (1967) 59600 23100 25500 29400 33500 44700 67100 74400 107000 188000
2026-02-24 00:00 3.87 29600 284000 (1985) 16000 (1967) 59600 23100 25500 29400 33500 44700 67100 74400 107000 188000
2026-02-23 23:00 3.88 29600 284000 (1985) 16000 (1967) 59600 23100 25500 29400 33500 44700 67100 74400 107000 188000
2026-02-23 22:00 3.88 29600 249000 (1997) 15400 (1958) 58500 19900 26000 28900 32700 43500 63400 70700 115000 192000
2026-02-23 21:00 3.86 29600 249000 (1997) 15400 (1958) 58500 19900 26000 28900 32700 43500 63400 70700 115000 192000
2026-02-23 20:00 3.90 29700 249000 (1997) 15400 (1958) 58500 19900 26000 28900 32700 43500 63400 70700 115000 192000
2026-02-23 19:00 3.90 29700 249000 (1997) 15400 (1958) 58500 19900 26000 28900 32700 43500 63400 70700 115000 192000
2026-02-23 18:00 3.91 29800 249000 (1997) 15400 (1958) 58500 19900 26000 28900 32700 43500 63400 70700 115000 192000
2026-02-23 17:00 3.92 29800 249000 (1997) 15400 (1958) 58500 19900 26000 28900 32700 43500 63400 70700 115000 192000
2026-02-23 16:00 3.93 29800 249000 (1997) 15400 (1958) 58500 19900 26000 28900 32700 43500 63400 70700 115000 192000
2026-02-23 15:00 3.94 29900 249000 (1997) 15400 (1958) 58500 19900 26000 28900 32700 43500 63400 70700 115000 192000
2026-02-23 14:00 3.96 30000 249000 (1997) 15400 (1958) 58500 19900 26000 28900 32700 43500 63400 70700 115000 192000
2026-02-23 13:00 3.93 29800 249000 (1997) 15400 (1958) 58500 19900 26000 28900 32700 43500 63400 70700 115000 192000
2026-02-23 12:00 3.94 29900 249000 (1997) 15400 (1958) 58500 19900 26000 28900 32700 43500 63400 70700 115000 192000
2026-02-23 11:00 3.99 30100 249000 (1997) 15400 (1958) 58500 19900 26000 28900 32700 43500 63400 70700 115000 192000
2026-02-23 10:00 4.00 30100 249000 (1997) 15400 (1958) 58500 19900 26000 28900 32700 43500 63400 70700 115000 192000
2026-02-23 09:00 4.00 30100 249000 (1997) 15400 (1958) 58500 19900 26000 28900 32700 43500 63400 70700 115000 192000
2026-02-23 08:00 4.00 30100 249000 (1997) 15400 (1958) 58500 19900 26000 28900 32700 43500 63400 70700 115000 192000
2026-02-23 07:00 4.03 30200 249000 (1997) 15400 (1958) 58500 19900 26000 28900 32700 43500 63400 70700 115000 192000
2026-02-23 06:00 4.03 30200 249000 (1997) 15400 (1958) 58500 19900 26000 28900 32700 43500 63400 70700 115000 192000
2026-02-23 05:00 4.04 30300 249000 (1997) 15400 (1958) 58500 19900 26000 28900 32700 43500 63400 70700 115000 192000
2026-02-23 04:00 4.05 30300 249000 (1997) 15400 (1958) 58500 19900 26000 28900 32700 43500 63400 70700 115000 192000
2026-02-23 03:00 4.07 30400 249000 (1997) 15400 (1958) 58500 19900 26000 28900 32700 43500 63400 70700 115000 192000
2026-02-23 02:00 4.08 30400 249000 (1997) 15400 (1958) 58500 19900 26000 28900 32700 43500 63400 70700 115000 192000
2026-02-23 01:00 4.09 30500 249000 (1997) 15400 (1958) 58500 19900 26000 28900 32700 43500 63400 70700 115000 192000
2026-02-23 00:00 4.10 30500 249000 (1997) 15400 (1958) 58500 19900 26000 28900 32700 43500 63400 70700 115000 192000
2026-02-22 23:00 4.11 30500 249000 (1997) 15400 (1958) 58500 19900 26000 28900 32700 43500 63400 70700 115000 192000
2026-02-22 22:00 4.12 30600 230000 (1997) 14000 (1958) 56400 21000 25300 28800 31300 45400 64800 71500 122000 146000
2026-02-22 21:00 4.12 30600 230000 (1997) 14000 (1958) 56400 21000 25300 28800 31300 45400 64800 71500 122000 146000
2026-02-22 20:00 4.15 30700 230000 (1997) 14000 (1958) 56400 21000 25300 28800 31300 45400 64800 71500 122000 146000
2026-02-22 19:00 4.16 30700 230000 (1997) 14000 (1958) 56400 21000 25300 28800 31300 45400 64800 71500 122000 146000
2026-02-22 18:00 4.17 30800 230000 (1997) 14000 (1958) 56400 21000 25300 28800 31300 45400 64800 71500 122000 146000
2026-02-22 17:00 4.18 30800 230000 (1997) 14000 (1958) 56400 21000 25300 28800 31300 45400 64800 71500 122000 146000
2026-02-22 16:00 4.16 30700 230000 (1997) 14000 (1958) 56400 21000 25300 28800 31300 45400 64800 71500 122000 146000
2026-02-22 15:00 4.17 30800 230000 (1997) 14000 (1958) 56400 21000 25300 28800 31300 45400 64800 71500 122000 146000
2026-02-22 14:00 4.18 30800 230000 (1997) 14000 (1958) 56400 21000 25300 28800 31300 45400 64800 71500 122000 146000
2026-02-22 13:00 4.14 30700 230000 (1997) 14000 (1958) 56400 21000 25300 28800 31300 45400 64800 71500 122000 146000
2026-02-22 12:00 4.20 30900 230000 (1997) 14000 (1958) 56400 21000 25300 28800 31300 45400 64800 71500 122000 146000
2026-02-22 11:00 4.24 31100 230000 (1997) 14000 (1958) 56400 21000 25300 28800 31300 45400 64800 71500 122000 146000
2026-02-22 10:00 4.21 30900 230000 (1997) 14000 (1958) 56400 21000 25300 28800 31300 45400 64800 71500 122000 146000
2026-02-22 09:00 4.27 31200 230000 (1997) 14000 (1958) 56400 21000 25300 28800 31300 45400 64800 71500 122000 146000
2026-02-22 08:00 4.21 30900 230000 (1997) 14000 (1958) 56400 21000 25300 28800 31300 45400 64800 71500 122000 146000
2026-02-22 07:00 4.28 31200 230000 (1997) 14000 (1958) 56400 21000 25300 28800 31300 45400 64800 71500 122000 146000
2026-02-22 06:00 4.31 31300 230000 (1997) 14000 (1958) 56400 21000 25300 28800 31300 45400 64800 71500 122000 146000
2026-02-22 05:00 4.31 31300 230000 (1997) 14000 (1958) 56400 21000 25300 28800 31300 45400 64800 71500 122000 146000
2026-02-22 04:00 4.32 31400 230000 (1997) 14000 (1958) 56400 21000 25300 28800 31300 45400 64800 71500 122000 146000
2026-02-22 03:00 4.34 31500 230000 (1997) 14000 (1958) 56400 21000 25300 28800 31300 45400 64800 71500 122000 146000
2026-02-22 02:00 4.35 31500 230000 (1997) 14000 (1958) 56400 21000 25300 28800 31300 45400 64800 71500 122000 146000
2026-02-22 01:00 4.36 31500 230000 (1997) 14000 (1958) 56400 21000 25300 28800 31300 45400 64800 71500 122000 146000
2026-02-22 00:00 4.37 31600 230000 (1997) 14000 (1958) 56400 21000 25300 28800 31300 45400 64800 71500 122000 146000
2026-02-21 23:00 4.38 31600 230000 (1997) 14000 (1958) 56400 21000 25300 28800 31300 45400 64800 71500 122000 146000
2026-02-21 22:00 4.38 31600 203000 (1982) 12600 (1958) 53500 21700 25900 30400 31800 44200 61000 69700 97000 139000
2026-02-21 21:00 4.39 31700 203000 (1982) 12600 (1958) 53500 21700 25900 30400 31800 44200 61000 69700 97000 139000
2026-02-21 20:00 4.39 31700 203000 (1982) 12600 (1958) 53500 21700 25900 30400 31800 44200 61000 69700 97000 139000
2026-02-21 19:00 4.39 31700 203000 (1982) 12600 (1958) 53500 21700 25900 30400 31800 44200 61000 69700 97000 139000
2026-02-21 18:00 4.41 31700 203000 (1982) 12600 (1958) 53500 21700 25900 30400 31800 44200 61000 69700 97000 139000
2026-02-21 17:00 4.37 31600 203000 (1982) 12600 (1958) 53500 21700 25900 30400 31800 44200 61000 69700 97000 139000
2026-02-21 16:00 4.41 31700 203000 (1982) 12600 (1958) 53500 21700 25900 30400 31800 44200 61000 69700 97000 139000
2026-02-21 15:00 4.42 31800 203000 (1982) 12600 (1958) 53500 21700 25900 30400 31800 44200 61000 69700 97000 139000
2026-02-21 14:00 4.38 31600 203000 (1982) 12600 (1958) 53500 21700 25900 30400 31800 44200 61000 69700 97000 139000
2026-02-21 13:00 4.45 31900 203000 (1982) 12600 (1958) 53500 21700 25900 30400 31800 44200 61000 69700 97000 139000
2026-02-21 12:00 4.45 31900 203000 (1982) 12600 (1958) 53500 21700 25900 30400 31800 44200 61000 69700 97000 139000
2026-02-21 11:00 4.46 31900 203000 (1982) 12600 (1958) 53500 21700 25900 30400 31800 44200 61000 69700 97000 139000
2026-02-21 10:00 4.47 32000 203000 (1982) 12600 (1958) 53500 21700 25900 30400 31800 44200 61000 69700 97000 139000
2026-02-21 09:00 4.47 32000 203000 (1982) 12600 (1958) 53500 21700 25900 30400 31800 44200 61000 69700 97000 139000
2026-02-21 08:00 4.47 32000 203000 (1982) 12600 (1958) 53500 21700 25900 30400 31800 44200 61000 69700 97000 139000
2026-02-21 07:00 4.47 32000 203000 (1982) 12600 (1958) 53500 21700 25900 30400 31800 44200 61000 69700 97000 139000
2026-02-21 06:00 4.49 32100 203000 (1982) 12600 (1958) 53500 21700 25900 30400 31800 44200 61000 69700 97000 139000
2026-02-21 05:00 4.49 32100 203000 (1982) 12600 (1958) 53500 21700 25900 30400 31800 44200 61000 69700 97000 139000
2026-02-21 04:00 4.50 32100 203000 (1982) 12600 (1958) 53500 21700 25900 30400 31800 44200 61000 69700 97000 139000
2026-02-21 03:00 4.50 32100 203000 (1982) 12600 (1958) 53500 21700 25900 30400 31800 44200 61000 69700 97000 139000
2026-02-21 02:00 4.50 32100 203000 (1982) 12600 (1958) 53500 21700 25900 30400 31800 44200 61000 69700 97000 139000
2026-02-21 01:00 4.50 32100 203000 (1982) 12600 (1958) 53500 21700 25900 30400 31800 44200 61000 69700 97000 139000
2026-02-21 00:00 4.51 32100 203000 (1982) 12600 (1958) 53500 21700 25900 30400 31800 44200 61000 69700 97000 139000
2026-02-20 23:00 4.51 32100 203000 (1982) 12600 (1958) 53500 21700 25900 30400 31800 44200 61000 69700 97000 139000
2026-02-20 22:00 4.52 32200 153000 (1982) 11300 (1958) 50200 22600 24500 29300 32200 39900 61700 65800 93400 112000
2026-02-20 21:00 4.53 32200 153000 (1982) 11300 (1958) 50200 22600 24500 29300 32200 39900 61700 65800 93400 112000
2026-02-20 20:00 4.53 32200 153000 (1982) 11300 (1958) 50200 22600 24500 29300 32200 39900 61700 65800 93400 112000
2026-02-20 19:00 4.54 32300 153000 (1982) 11300 (1958) 50200 22600 24500 29300 32200 39900 61700 65800 93400 112000
2026-02-20 18:00 4.55 32300 153000 (1982) 11300 (1958) 50200 22600 24500 29300 32200 39900 61700 65800 93400 112000
2026-02-20 17:00 4.55 32300 153000 (1982) 11300 (1958) 50200 22600 24500 29300 32200 39900 61700 65800 93400 112000
2026-02-20 16:00 4.55 32300 153000 (1982) 11300 (1958) 50200 22600 24500 29300 32200 39900 61700 65800 93400 112000
2026-02-20 15:00 4.51 32100 153000 (1982) 11300 (1958) 50200 22600 24500 29300 32200 39900 61700 65800 93400 112000
2026-02-20 14:00 4.53 32200 153000 (1982) 11300 (1958) 50200 22600 24500 29300 32200 39900 61700 65800 93400 112000
2026-02-20 13:00 4.52 32200 153000 (1982) 11300 (1958) 50200 22600 24500 29300 32200 39900 61700 65800 93400 112000
2026-02-20 12:00 4.52 32200 153000 (1982) 11300 (1958) 50200 22600 24500 29300 32200 39900 61700 65800 93400 112000
2026-02-20 11:00 4.52 32200 153000 (1982) 11300 (1958) 50200 22600 24500 29300 32200 39900 61700 65800 93400 112000
2026-02-20 10:00 4.52 32200 153000 (1982) 11300 (1958) 50200 22600 24500 29300 32200 39900 61700 65800 93400 112000
2026-02-20 09:00 4.51 32100 153000 (1982) 11300 (1958) 50200 22600 24500 29300 32200 39900 61700 65800 93400 112000
2026-02-20 08:00 4.55 32300 153000 (1982) 11300 (1958) 50200 22600 24500 29300 32200 39900 61700 65800 93400 112000
2026-02-20 07:00 4.53 32200 153000 (1982) 11300 (1958) 50200 22600 24500 29300 32200 39900 61700 65800 93400 112000
2026-02-20 06:00 4.54 32300 153000 (1982) 11300 (1958) 50200 22600 24500 29300 32200 39900 61700 65800 93400 112000
2026-02-20 05:00 4.56 32300 153000 (1982) 11300 (1958) 50200 22600 24500 29300 32200 39900 61700 65800 93400 112000
2026-02-20 04:00 4.56 32300 153000 (1982) 11300 (1958) 50200 22600 24500 29300 32200 39900 61700 65800 93400 112000
2026-02-20 03:00 4.56 32300 153000 (1982) 11300 (1958) 50200 22600 24500 29300 32200 39900 61700 65800 93400 112000
2026-02-20 02:00 4.60 32500 153000 (1982) 11300 (1958) 50200 22600 24500 29300 32200 39900 61700 65800 93400 112000
2026-02-20 01:00 4.61 32600 153000 (1982) 11300 (1958) 50200 22600 24500 29300 32200 39900 61700 65800 93400 112000
2026-02-20 00:00 4.61 32600 153000 (1982) 11300 (1958) 50200 22600 24500 29300 32200 39900 61700 65800 93400 112000
2026-02-19 23:00 4.67 32800 153000 (1982) 11300 (1958) 50200 22600 24500 29300 32200 39900 61700 65800 93400 112000
2026-02-19 22:00 4.68 32800 136000 (2011) 11100 (1958) 48300 21100 24800 28500 29800 39900 58600 64200 88500 110000
2026-02-19 21:00 4.69 32900 136000 (2011) 11100 (1958) 48300 21100 24800 28500 29800 39900 58600 64200 88500 110000
2026-02-19 20:00 4.71 33000 136000 (2011) 11100 (1958) 48300 21100 24800 28500 29800 39900 58600 64200 88500 110000
2026-02-19 19:00 4.71 33000 136000 (2011) 11100 (1958) 48300 21100 24800 28500 29800 39900 58600 64200 88500 110000
2026-02-19 18:00 4.75 33100 136000 (2011) 11100 (1958) 48300 21100 24800 28500 29800 39900 58600 64200 88500 110000
2026-02-19 17:00 4.78 33300 136000 (2011) 11100 (1958) 48300 21100 24800 28500 29800 39900 58600 64200 88500 110000
2026-02-19 16:00 4.82 33400 136000 (2011) 11100 (1958) 48300 21100 24800 28500 29800 39900 58600 64200 88500 110000
2026-02-19 15:00 4.85 33600 136000 (2011) 11100 (1958) 48300 21100 24800 28500 29800 39900 58600 64200 88500 110000
2026-02-19 14:00 4.89 33700 136000 (2011) 11100 (1958) 48300 21100 24800 28500 29800 39900 58600 64200 88500 110000
2026-02-19 13:00 4.90 33800 136000 (2011) 11100 (1958) 48300 21100 24800 28500 29800 39900 58600 64200 88500 110000
2026-02-19 12:00 4.92 33800 136000 (2011) 11100 (1958) 48300 21100 24800 28500 29800 39900 58600 64200 88500 110000
2026-02-19 11:00 4.94 33900 136000 (2011) 11100 (1958) 48300 21100 24800 28500 29800 39900 58600 64200 88500 110000
2026-02-19 10:00 5.00 34200 136000 (2011) 11100 (1958) 48300 21100 24800 28500 29800 39900 58600 64200 88500 110000
2026-02-19 09:00 5.02 34300 136000 (2011) 11100 (1958) 48300 21100 24800 28500 29800 39900 58600 64200 88500 110000
2026-02-19 08:00 5.03 34300 136000 (2011) 11100 (1958) 48300 21100 24800 28500 29800 39900 58600 64200 88500 110000
2026-02-19 07:00 5.10 34600 136000 (2011) 11100 (1958) 48300 21100 24800 28500 29800 39900 58600 64200 88500 110000
2026-02-19 06:00 5.13 34800 136000 (2011) 11100 (1958) 48300 21100 24800 28500 29800 39900 58600 64200 88500 110000
2026-02-19 05:00 5.16 34900 136000 (2011) 11100 (1958) 48300 21100 24800 28500 29800 39900 58600 64200 88500 110000
2026-02-19 04:00 5.18 35000 136000 (2011) 11100 (1958) 48300 21100 24800 28500 29800 39900 58600 64200 88500 110000
2026-02-19 03:00 5.20 35100 136000 (2011) 11100 (1958) 48300 21100 24800 28500 29800 39900 58600 64200 88500 110000
2026-02-19 02:00 5.21 35100 136000 (2011) 11100 (1958) 48300 21100 24800 28500 29800 39900 58600 64200 88500 110000
2026-02-19 01:00 5.23 35200 136000 (2011) 11100 (1958) 48300 21100 24800 28500 29800 39900 58600 64200 88500 110000
2026-02-19 00:00 5.25 35300 136000 (2011) 11100 (1958) 48300 21100 24800 28500 29800 39900 58600 64200 88500 110000
2026-02-18 23:00 5.27 35400 136000 (2011) 11100 (1958) 48300 21100 24800 28500 29800 39900 58600 64200 88500 110000
2026-02-18 22:00 5.30 35500 129000 (2011) 11800 (1958) 47200 20400 25400 28200 29800 38500 54100 63700 87500 117000
2026-02-18 21:00 5.33 35600 129000 (2011) 11800 (1958) 47200 20400 25400 28200 29800 38500 54100 63700 87500 117000
2026-02-18 20:00 5.34 35700 129000 (2011) 11800 (1958) 47200 20400 25400 28200 29800 38500 54100 63700 87500 117000
2026-02-18 19:00 5.37 35800 129000 (2011) 11800 (1958) 47200 20400 25400 28200 29800 38500 54100 63700 87500 117000
2026-02-18 18:00 5.38 35800 129000 (2011) 11800 (1958) 47200 20400 25400 28200 29800 38500 54100 63700 87500 117000
2026-02-18 17:00 5.41 36000 129000 (2011) 11800 (1958) 47200 20400 25400 28200 29800 38500 54100 63700 87500 117000
2026-02-18 16:00 5.43 36100 129000 (2011) 11800 (1958) 47200 20400 25400 28200 29800 38500 54100 63700 87500 117000
2026-02-18 15:00 5.45 36200 129000 (2011) 11800 (1958) 47200 20400 25400 28200 29800 38500 54100 63700 87500 117000
2026-02-18 14:00 5.48 36300 129000 (2011) 11800 (1958) 47200 20400 25400 28200 29800 38500 54100 63700 87500 117000
2026-02-18 13:00 5.50 36400 129000 (2011) 11800 (1958) 47200 20400 25400 28200 29800 38500 54100 63700 87500 117000
2026-02-18 12:00 5.51 36400 129000 (2011) 11800 (1958) 47200 20400 25400 28200 29800 38500 54100 63700 87500 117000
2026-02-18 11:00 5.52 36500 129000 (2011) 11800 (1958) 47200 20400 25400 28200 29800 38500 54100 63700 87500 117000
2026-02-18 10:00 5.53 36500 129000 (2011) 11800 (1958) 47200 20400 25400 28200 29800 38500 54100 63700 87500 117000
2026-02-18 08:00 5.57 36700 129000 (2011) 11800 (1958) 47200 20400 25400 28200 29800 38500 54100 63700 87500 117000
2026-02-18 07:00 5.58 36700 129000 (2011) 11800 (1958) 47200 20400 25400 28200 29800 38500 54100 63700 87500 117000
2026-02-18 06:00 5.55 36600 129000 (2011) 11800 (1958) 47200 20400 25400 28200 29800 38500 54100 63700 87500 117000
2026-02-18 05:00 5.56 36700 129000 (2011) 11800 (1958) 47200 20400 25400 28200 29800 38500 54100 63700 87500 117000
2026-02-18 04:00 5.51 36400 129000 (2011) 11800 (1958) 47200 20400 25400 28200 29800 38500 54100 63700 87500 117000
2026-02-18 03:00 5.55 36600 129000 (2011) 11800 (1958) 47200 20400 25400 28200 29800 38500 54100 63700 87500 117000
2026-02-18 02:00 5.56 36700 129000 (2011) 11800 (1958) 47200 20400 25400 28200 29800 38500 54100 63700 87500 117000
2026-02-18 01:00 5.55 36600 129000 (2011) 11800 (1958) 47200 20400 25400 28200 29800 38500 54100 63700 87500 117000
2026-02-18 00:00 5.59 36800 129000 (2011) 11800 (1958) 47200 20400 25400 28200 29800 38500 54100 63700 87500 117000
2026-02-17 23:00 5.58 36700 129000 (2011) 11800 (1958) 47200 20400 25400 28200 29800 38500 54100 63700 87500 117000
2026-02-17 22:00 5.61 36900 127000 (1962) 12400 (1958) 45900 20000 25200 28000 31100 37000 56900 64300 78700 95800
2026-02-17 21:00 5.59 36800 127000 (1962) 12400 (1958) 45900 20000 25200 28000 31100 37000 56900 64300 78700 95800
2026-02-17 20:00 5.59 36800 127000 (1962) 12400 (1958) 45900 20000 25200 28000 31100 37000 56900 64300 78700 95800
2026-02-17 19:00 5.62 36900 127000 (1962) 12400 (1958) 45900 20000 25200 28000 31100 37000 56900 64300 78700 95800
2026-02-17 18:00 5.61 36900 127000 (1962) 12400 (1958) 45900 20000 25200 28000 31100 37000 56900 64300 78700 95800
2026-02-17 17:00 5.62 36900 127000 (1962) 12400 (1958) 45900 20000 25200 28000 31100 37000 56900 64300 78700 95800
2026-02-17 16:00 5.65 37100 127000 (1962) 12400 (1958) 45900 20000 25200 28000 31100 37000 56900 64300 78700 95800
2026-02-17 15:00 5.61 36900 127000 (1962) 12400 (1958) 45900 20000 25200 28000 31100 37000 56900 64300 78700 95800
2026-02-17 14:00 5.63 37000 127000 (1962) 12400 (1958) 45900 20000 25200 28000 31100 37000 56900 64300 78700 95800
2026-02-17 13:00 5.58 36700 127000 (1962) 12400 (1958) 45900 20000 25200 28000 31100 37000 56900 64300 78700 95800
2026-02-17 12:00 5.64 37000 127000 (1962) 12400 (1958) 45900 20000 25200 28000 31100 37000 56900 64300 78700 95800
2026-02-17 11:00 5.60 36800 127000 (1962) 12400 (1958) 45900 20000 25200 28000 31100 37000 56900 64300 78700 95800
2026-02-17 10:00 5.62 36900 127000 (1962) 12400 (1958) 45900 20000 25200 28000 31100 37000 56900 64300 78700 95800
2026-02-17 09:00 5.63 37000 127000 (1962) 12400 (1958) 45900 20000 25200 28000 31100 37000 56900 64300 78700 95800
2026-02-17 08:00 5.61 36900 127000 (1962) 12400 (1958) 45900 20000 25200 28000 31100 37000 56900 64300 78700 95800
2026-02-17 07:00 5.59 36800 127000 (1962) 12400 (1958) 45900 20000 25200 28000 31100 37000 56900 64300 78700 95800
2026-02-17 06:00 5.57 36700 127000 (1962) 12400 (1958) 45900 20000 25200 28000 31100 37000 56900 64300 78700 95800
2026-02-17 05:00 5.54 36600 127000 (1962) 12400 (1958) 45900 20000 25200 28000 31100 37000 56900 64300 78700 95800
2026-02-17 04:00 5.51 36400 127000 (1962) 12400 (1958) 45900 20000 25200 28000 31100 37000 56900 64300 78700 95800
2026-02-17 03:00 5.48 36300 127000 (1962) 12400 (1958) 45900 20000 25200 28000 31100 37000 56900 64300 78700 95800
2026-02-17 02:00 5.45 36200 127000 (1962) 12400 (1958) 45900 20000 25200 28000 31100 37000 56900 64300 78700 95800
2026-02-17 01:00 5.42 36000 127000 (1962) 12400 (1958) 45900 20000 25200 28000 31100 37000 56900 64300 78700 95800
2026-02-17 00:00 5.40 35900 127000 (1962) 12400 (1958) 45900 20000 25200 28000 31100 37000 56900 64300 78700 95800
2026-02-16 23:00 5.37 35800 127000 (1962) 12400 (1958) 45900 20000 25200 28000 31100 37000 56900 64300 78700 95800
2026-02-16 22:00 5.34 35700 118000 (2005) 12400 (1958) 45200 20300 25500 28800 31500 37100 55200 61700 77600 95400
2026-02-16 21:00 5.31 35500 118000 (2005) 12400 (1958) 45200 20300 25500 28800 31500 37100 55200 61700 77600 95400
2026-02-16 20:00 5.28 35400 118000 (2005) 12400 (1958) 45200 20300 25500 28800 31500 37100 55200 61700 77600 95400
2026-02-16 19:00 5.25 35300 118000 (2005) 12400 (1958) 45200 20300 25500 28800 31500 37100 55200 61700 77600 95400
2026-02-16 18:00 5.23 35200 118000 (2005) 12400 (1958) 45200 20300 25500 28800 31500 37100 55200 61700 77600 95400
2026-02-16 17:00 5.21 35100 118000 (2005) 12400 (1958) 45200 20300 25500 28800 31500 37100 55200 61700 77600 95400
2026-02-16 16:00 5.12 34700 118000 (2005) 12400 (1958) 45200 20300 25500 28800 31500 37100 55200 61700 77600 95400
2026-02-16 15:00 5.10 34600 118000 (2005) 12400 (1958) 45200 20300 25500 28800 31500 37100 55200 61700 77600 95400
2026-02-16 14:00 5.06 34400 118000 (2005) 12400 (1958) 45200 20300 25500 28800 31500 37100 55200 61700 77600 95400
2026-02-16 13:00 5.06 34400 118000 (2005) 12400 (1958) 45200 20300 25500 28800 31500 37100 55200 61700 77600 95400
2026-02-16 12:00 5.03 34300 118000 (2005) 12400 (1958) 45200 20300 25500 28800 31500 37100 55200 61700 77600 95400
2026-02-16 11:00 5.01 34200 118000 (2005) 12400 (1958) 45200 20300 25500 28800 31500 37100 55200 61700 77600 95400
2026-02-16 10:00 5.04 34400 118000 (2005) 12400 (1958) 45200 20300 25500 28800 31500 37100 55200 61700 77600 95400
2026-02-16 09:00 5.02 34300 118000 (2005) 12400 (1958) 45200 20300 25500 28800 31500 37100 55200 61700 77600 95400
2026-02-16 08:00 5.00 34200 118000 (2005) 12400 (1958) 45200 20300 25500 28800 31500 37100 55200 61700 77600 95400
2026-02-16 07:00 4.95 34000 118000 (2005) 12400 (1958) 45200 20300 25500 28800 31500 37100 55200 61700 77600 95400
2026-02-16 06:00 4.93 33900 118000 (2005) 12400 (1958) 45200 20300 25500 28800 31500 37100 55200 61700 77600 95400
2026-02-16 05:00 4.89 33700 118000 (2005) 12400 (1958) 45200 20300 25500 28800 31500 37100 55200 61700 77600 95400
2026-02-16 04:00 4.84 33500 118000 (2005) 12400 (1958) 45200 20300 25500 28800 31500 37100 55200 61700 77600 95400
2026-02-16 03:00 4.86 33600 118000 (2005) 12400 (1958) 45200 20300 25500 28800 31500 37100 55200 61700 77600 95400
2026-02-16 02:00 4.84 33500 118000 (2005) 12400 (1958) 45200 20300 25500 28800 31500 37100 55200 61700 77600 95400
2026-02-16 01:00 4.82 33400 118000 (2005) 12400 (1958) 45200 20300 25500 28800 31500 37100 55200 61700 77600 95400
2026-02-16 00:00 4.79 33300 118000 (2005) 12400 (1958) 45200 20300 25500 28800 31500 37100 55200 61700 77600 95400
2026-02-15 23:00 4.77 33200 118000 (2005) 12400 (1958) 45200 20300 25500 28800 31500 37100 55200 61700 77600 95400
2026-02-15 22:00 4.74 33100 128000 (2005) 13000 (1958) 45500 21800 24900 28000 31500 35900 55000 64400 78900 96100
2026-02-15 21:00 4.72 33000 128000 (2005) 13000 (1958) 45500 21800 24900 28000 31500 35900 55000 64400 78900 96100
2026-02-15 20:00 4.69 32900 128000 (2005) 13000 (1958) 45500 21800 24900 28000 31500 35900 55000 64400 78900 96100
2026-02-15 19:00 4.67 32800 128000 (2005) 13000 (1958) 45500 21800 24900 28000 31500 35900 55000 64400 78900 96100
2026-02-15 18:00 4.64 32700 128000 (2005) 13000 (1958) 45500 21800 24900 28000 31500 35900 55000 64400 78900 96100
2026-02-15 17:00 4.62 32600 128000 (2005) 13000 (1958) 45500 21800 24900 28000 31500 35900 55000 64400 78900 96100
2026-02-15 16:00 4.58 32400 128000 (2005) 13000 (1958) 45500 21800 24900 28000 31500 35900 55000 64400 78900 96100
2026-02-15 15:00 4.58 32400 128000 (2005) 13000 (1958) 45500 21800 24900 28000 31500 35900 55000 64400 78900 96100
2026-02-15 14:00 4.55 32300 128000 (2005) 13000 (1958) 45500 21800 24900 28000 31500 35900 55000 64400 78900 96100
2026-02-15 13:00 4.53 32200 128000 (2005) 13000 (1958) 45500 21800 24900 28000 31500 35900 55000 64400 78900 96100
2026-02-15 12:00 4.50 32100 128000 (2005) 13000 (1958) 45500 21800 24900 28000 31500 35900 55000 64400 78900 96100
2026-02-15 11:00 4.48 32000 128000 (2005) 13000 (1958) 45500 21800 24900 28000 31500 35900 55000 64400 78900 96100
2026-02-15 10:00 4.45 31900 128000 (2005) 13000 (1958) 45500 21800 24900 28000 31500 35900 55000 64400 78900 96100
2026-02-15 09:00 4.42 31800 128000 (2005) 13000 (1958) 45500 21800 24900 28000 31500 35900 55000 64400 78900 96100
2026-02-15 08:00 4.41 31700 128000 (2005) 13000 (1958) 45500 21800 24900 28000 31500 35900 55000 64400 78900 96100
2026-02-15 07:00 4.40 31700 128000 (2005) 13000 (1958) 45500 21800 24900 28000 31500 35900 55000 64400 78900 96100
2026-02-15 06:00 4.36 31500 128000 (2005) 13000 (1958) 45500 21800 24900 28000 31500 35900 55000 64400 78900 96100
2026-02-15 05:00 4.36 31500 128000 (2005) 13000 (1958) 45500 21800 24900 28000 31500 35900 55000 64400 78900 96100
2026-02-15 04:00 4.34 31500 128000 (2005) 13000 (1958) 45500 21800 24900 28000 31500 35900 55000 64400 78900 96100
2026-02-15 03:00 4.33 31400 128000 (2005) 13000 (1958) 45500 21800 24900 28000 31500 35900 55000 64400 78900 96100
2026-02-15 02:00 4.31 31300 128000 (2005) 13000 (1958) 45500 21800 24900 28000 31500 35900 55000 64400 78900 96100
2026-02-15 01:00 4.22 31000 128000 (2005) 13000 (1958) 45500 21800 24900 28000 31500 35900 55000 64400 78900 96100
2026-02-15 00:00 4.22 31000 128000 (2005) 13000 (1958) 45500 21800 24900 28000 31500 35900 55000 64400 78900 96100
2026-02-14 23:00 4.19 30900 128000 (2005) 13000 (1958) 45500 21800 24900 28000 31500 35900 55000 64400 78900 96100
2026-02-14 22:00 4.16 30700 105000 (1993) 14200 (1958) 45500 21000 24400 28000 31300 38900 52500 66200 84400 98800
2026-02-14 21:00 4.16 30700 105000 (1993) 14200 (1958) 45500 21000 24400 28000 31300 38900 52500 66200 84400 98800
2026-02-14 20:00 4.16 30700 105000 (1993) 14200 (1958) 45500 21000 24400 28000 31300 38900 52500 66200 84400 98800
2026-02-14 19:00 4.13 30600 105000 (1993) 14200 (1958) 45500 21000 24400 28000 31300 38900 52500 66200 84400 98800
2026-02-14 18:00 4.11 30500 105000 (1993) 14200 (1958) 45500 21000 24400 28000 31300 38900 52500 66200 84400 98800
2026-02-14 17:00 4.11 30500 105000 (1993) 14200 (1958) 45500 21000 24400 28000 31300 38900 52500 66200 84400 98800
2026-02-14 16:00 4.09 30500 105000 (1993) 14200 (1958) 45500 21000 24400 28000 31300 38900 52500 66200 84400 98800
2026-02-14 15:00 4.08 30400 105000 (1993) 14200 (1958) 45500 21000 24400 28000 31300 38900 52500 66200 84400 98800
2026-02-14 14:00 4.05 30300 105000 (1993) 14200 (1958) 45500 21000 24400 28000 31300 38900 52500 66200 84400 98800
2026-02-14 13:00 4.06 30300 105000 (1993) 14200 (1958) 45500 21000 24400 28000 31300 38900 52500 66200 84400 98800
2026-02-14 12:00 4.04 30300 105000 (1993) 14200 (1958) 45500 21000 24400 28000 31300 38900 52500 66200 84400 98800
2026-02-14 11:00 4.02 30200 105000 (1993) 14200 (1958) 45500 21000 24400 28000 31300 38900 52500 66200 84400 98800
2026-02-14 10:00 4.00 30100 105000 (1993) 14200 (1958) 45500 21000 24400 28000 31300 38900 52500 66200 84400 98800
2026-02-14 09:00 4.07 30400 105000 (1993) 14200 (1958) 45500 21000 24400 28000 31300 38900 52500 66200 84400 98800
2026-02-14 08:00 4.06 30300 105000 (1993) 14200 (1958) 45500 21000 24400 28000 31300 38900 52500 66200 84400 98800
2026-02-14 07:00 4.05 30300 105000 (1993) 14200 (1958) 45500 21000 24400 28000 31300 38900 52500 66200 84400 98800
2026-02-14 06:00 4.05 30300 105000 (1993) 14200 (1958) 45500 21000 24400 28000 31300 38900 52500 66200 84400 98800
2026-02-14 05:00 4.04 30300 105000 (1993) 14200 (1958) 45500 21000 24400 28000 31300 38900 52500 66200 84400 98800
2026-02-14 04:00 4.04 30300 105000 (1993) 14200 (1958) 45500 21000 24400 28000 31300 38900 52500 66200 84400 98800
2026-02-14 03:00 4.03 30200 105000 (1993) 14200 (1958) 45500 21000 24400 28000 31300 38900 52500 66200 84400 98800
2026-02-14 02:00 4.03 30200 105000 (1993) 14200 (1958) 45500 21000 24400 28000 31300 38900 52500 66200 84400 98800
2026-02-14 01:00 4.00 30100 105000 (1993) 14200 (1958) 45500 21000 24400 28000 31300 38900 52500 66200 84400 98800
2026-02-14 00:00 4.02 30200 105000 (1993) 14200 (1958) 45500 21000 24400 28000 31300 38900 52500 66200 84400 98800
2026-02-13 23:00 4.01 30100 105000 (1993) 14200 (1958) 45500 21000 24400 28000 31300 38900 52500 66200 84400 98800
2026-02-13 22:00 4.01 30100 97400 (1998) 15600 (1958) 44700 19300 24300 27000 29100 39700 55200 60500 83600 92800
2026-02-13 21:00 4.00 30100 97400 (1998) 15600 (1958) 44700 19300 24300 27000 29100 39700 55200 60500 83600 92800
2026-02-13 20:00 3.99 30100 97400 (1998) 15600 (1958) 44700 19300 24300 27000 29100 39700 55200 60500 83600 92800
2026-02-13 19:00 3.98 30000 97400 (1998) 15600 (1958) 44700 19300 24300 27000 29100 39700 55200 60500 83600 92800
2026-02-13 18:00 3.98 30000 97400 (1998) 15600 (1958) 44700 19300 24300 27000 29100 39700 55200 60500 83600 92800
2026-02-13 17:00 3.97 30000 97400 (1998) 15600 (1958) 44700 19300 24300 27000 29100 39700 55200 60500 83600 92800
2026-02-13 16:00 3.98 30000 97400 (1998) 15600 (1958) 44700 19300 24300 27000 29100 39700 55200 60500 83600 92800
2026-02-13 15:00 3.97 30000 97400 (1998) 15600 (1958) 44700 19300 24300 27000 29100 39700 55200 60500 83600 92800
2026-02-13 14:00 3.96 30000 97400 (1998) 15600 (1958) 44700 19300 24300 27000 29100 39700 55200 60500 83600 92800
2026-02-13 13:00 3.97 30000 97400 (1998) 15600 (1958) 44700 19300 24300 27000 29100 39700 55200 60500 83600 92800
2026-02-13 12:00 3.97 30000 97400 (1998) 15600 (1958) 44700 19300 24300 27000 29100 39700 55200 60500 83600 92800
2026-02-13 11:00 3.96 30000 97400 (1998) 15600 (1958) 44700 19300 24300 27000 29100 39700 55200 60500 83600 92800
2026-02-13 10:00 3.96 30000 97400 (1998) 15600 (1958) 44700 19300 24300 27000 29100 39700 55200 60500 83600 92800
2026-02-13 09:00 3.96 30000 97400 (1998) 15600 (1958) 44700 19300 24300 27000 29100 39700 55200 60500 83600 92800
2026-02-13 08:00 3.94 29900 97400 (1998) 15600 (1958) 44700 19300 24300 27000 29100 39700 55200 60500 83600 92800
2026-02-13 07:00 3.94 29900 97400 (1998) 15600 (1958) 44700 19300 24300 27000 29100 39700 55200 60500 83600 92800
2026-02-13 06:00 3.94 29900 97400 (1998) 15600 (1958) 44700 19300 24300 27000 29100 39700 55200 60500 83600 92800
2026-02-13 05:00 3.93 29800 97400 (1998) 15600 (1958) 44700 19300 24300 27000 29100 39700 55200 60500 83600 92800
2026-02-13 04:00 3.93 29800 97400 (1998) 15600 (1958) 44700 19300 24300 27000 29100 39700 55200 60500 83600 92800
2026-02-13 03:00 3.93 29800 97400 (1998) 15600 (1958) 44700 19300 24300 27000 29100 39700 55200 60500 83600 92800
2026-02-13 02:00 3.92 29800 97400 (1998) 15600 (1958) 44700 19300 24300 27000 29100 39700 55200 60500 83600 92800
2026-02-13 01:00 3.91 29800 97400 (1998) 15600 (1958) 44700 19300 24300 27000 29100 39700 55200 60500 83600 92800
2026-02-13 00:00 3.90 29700 97400 (1998) 15600 (1958) 44700 19300 24300 27000 29100 39700 55200 60500 83600 92800
2026-02-12 23:00 3.91 29800 97400 (1998) 15600 (1958) 44700 19300 24300 27000 29100 39700 55200 60500 83600 92800
2026-02-12 22:00 3.90 29700 100000 (1962) 13800 (1989) 44600 18400 23800 26300 28500 39200 53800 60700 80900 86500
2026-02-12 21:00 3.90 29700 100000 (1962) 13800 (1989) 44600 18400 23800 26300 28500 39200 53800 60700 80900 86500
2026-02-12 20:00 3.90 29700 100000 (1962) 13800 (1989) 44600 18400 23800 26300 28500 39200 53800 60700 80900 86500
2026-02-12 19:00 3.90 29700 100000 (1962) 13800 (1989) 44600 18400 23800 26300 28500 39200 53800 60700 80900 86500
2026-02-12 18:00 3.90 29700 100000 (1962) 13800 (1989) 44600 18400 23800 26300 28500 39200 53800 60700 80900 86500
2026-02-12 17:00 3.84 29500 100000 (1962) 13800 (1989) 44600 18400 23800 26300 28500 39200 53800 60700 80900 86500
2026-02-12 16:00 3.89 29700 100000 (1962) 13800 (1989) 44600 18400 23800 26300 28500 39200 53800 60700 80900 86500
2026-02-12 15:00 3.87 29600 100000 (1962) 13800 (1989) 44600 18400 23800 26300 28500 39200 53800 60700 80900 86500
2026-02-12 14:00 3.89 29700 100000 (1962) 13800 (1989) 44600 18400 23800 26300 28500 39200 53800 60700 80900 86500
2026-02-12 13:00 3.80 29300 100000 (1962) 13800 (1989) 44600 18400 23800 26300 28500 39200 53800 60700 80900 86500
2026-02-12 12:00 3.81 29400 100000 (1962) 13800 (1989) 44600 18400 23800 26300 28500 39200 53800 60700 80900 86500
2026-02-12 11:00 3.82 29400 100000 (1962) 13800 (1989) 44600 18400 23800 26300 28500 39200 53800 60700 80900 86500
2026-02-12 10:00 3.82 29400 100000 (1962) 13800 (1989) 44600 18400 23800 26300 28500 39200 53800 60700 80900 86500
2026-02-12 09:00 3.88 29600 100000 (1962) 13800 (1989) 44600 18400 23800 26300 28500 39200 53800 60700 80900 86500
2026-02-12 08:00 3.86 29600 100000 (1962) 13800 (1989) 44600 18400 23800 26300 28500 39200 53800 60700 80900 86500
2026-02-12 07:00 3.86 29600 100000 (1962) 13800 (1989) 44600 18400 23800 26300 28500 39200 53800 60700 80900 86500
2026-02-12 06:00 3.85 29500 100000 (1962) 13800 (1989) 44600 18400 23800 26300 28500 39200 53800 60700 80900 86500
2026-02-12 05:00 3.80 29300 100000 (1962) 13800 (1989) 44600 18400 23800 26300 28500 39200 53800 60700 80900 86500
2026-02-12 04:00 3.83 29500 100000 (1962) 13800 (1989) 44600 18400 23800 26300 28500 39200 53800 60700 80900 86500
2026-02-12 03:00 3.83 29500 100000 (1962) 13800 (1989) 44600 18400 23800 26300 28500 39200 53800 60700 80900 86500
2026-02-12 02:00 3.82 29400 100000 (1962) 13800 (1989) 44600 18400 23800 26300 28500 39200 53800 60700 80900 86500
2026-02-12 01:00 3.81 29400 100000 (1962) 13800 (1989) 44600 18400 23800 26300 28500 39200 53800 60700 80900 86500
2026-02-12 00:00 3.80 29300 100000 (1962) 13800 (1989) 44600 18400 23800 26300 28500 39200 53800 60700 80900 86500
2026-02-11 23:00 3.79 29300 100000 (1962) 13800 (1989) 44600 18400 23800 26300 28500 39200 53800 60700 80900 86500
2026-02-11 22:00 3.78 29300 106000 (1962) 14900 (1989) 44200 17700 22500 26100 28200 39400 54800 57500 78300 87000
2026-02-11 21:00 3.77 29200 106000 (1962) 14900 (1989) 44200 17700 22500 26100 28200 39400 54800 57500 78300 87000
2026-02-11 20:00 3.76 29200 106000 (1962) 14900 (1989) 44200 17700 22500 26100 28200 39400 54800 57500 78300 87000
2026-02-11 19:00 3.75 29100 106000 (1962) 14900 (1989) 44200 17700 22500 26100 28200 39400 54800 57500 78300 87000
2026-02-11 18:00 3.74 29100 106000 (1962) 14900 (1989) 44200 17700 22500 26100 28200 39400 54800 57500 78300 87000
2026-02-11 17:00 3.72 29000 106000 (1962) 14900 (1989) 44200 17700 22500 26100 28200 39400 54800 57500 78300 87000
2026-02-11 16:00 3.72 29000 106000 (1962) 14900 (1989) 44200 17700 22500 26100 28200 39400 54800 57500 78300 87000
2026-02-11 15:00 3.70 29000 106000 (1962) 14900 (1989) 44200 17700 22500 26100 28200 39400 54800 57500 78300 87000
2026-02-11 14:00 3.69 28900 106000 (1962) 14900 (1989) 44200 17700 22500 26100 28200 39400 54800 57500 78300 87000
2026-02-11 13:00 3.68 28900 106000 (1962) 14900 (1989) 44200 17700 22500 26100 28200 39400 54800 57500 78300 87000
2026-02-11 12:00 3.65 28800 106000 (1962) 14900 (1989) 44200 17700 22500 26100 28200 39400 54800 57500 78300 87000
2026-02-11 11:00 3.64 28700 106000 (1962) 14900 (1989) 44200 17700 22500 26100 28200 39400 54800 57500 78300 87000
2026-02-11 10:00 3.62 28700 106000 (1962) 14900 (1989) 44200 17700 22500 26100 28200 39400 54800 57500 78300 87000
2026-02-11 09:00 3.60 28600 106000 (1962) 14900 (1989) 44200 17700 22500 26100 28200 39400 54800 57500 78300 87000
2026-02-11 08:00 3.58 28500 106000 (1962) 14900 (1989) 44200 17700 22500 26100 28200 39400 54800 57500 78300 87000
2026-02-11 07:00 3.57 28500 106000 (1962) 14900 (1989) 44200 17700 22500 26100 28200 39400 54800 57500 78300 87000
2026-02-11 06:00 3.56 28400 106000 (1962) 14900 (1989) 44200 17700 22500 26100 28200 39400 54800 57500 78300 87000
2026-02-11 05:00 3.54 28400 106000 (1962) 14900 (1989) 44200 17700 22500 26100 28200 39400 54800 57500 78300 87000
2026-02-11 04:00 3.52 28300 106000 (1962) 14900 (1989) 44200 17700 22500 26100 28200 39400 54800 57500 78300 87000
2026-02-11 03:00 3.50 28200 106000 (1962) 14900 (1989) 44200 17700 22500 26100 28200 39400 54800 57500 78300 87000
2026-02-11 02:00 3.49 28200 106000 (1962) 14900 (1989) 44200 17700 22500 26100 28200 39400 54800 57500 78300 87000
2026-02-11 01:00 3.47 28100 106000 (1962) 14900 (1989) 44200 17700 22500 26100 28200 39400 54800 57500 78300 87000
2026-02-11 00:00 3.44 28000 106000 (1962) 14900 (1989) 44200 17700 22500 26100 28200 39400 54800 57500 78300 87000
2026-02-10 23:00 3.43 28000 106000 (1962) 14900 (1989) 44200 17700 22500 26100 28200 39400 54800 57500 78300 87000
2026-02-10 22:00 3.41 27900 113000 (1962) 15900 (1961) 43900 18000 22300 26000 27200 37400 55000 59100 83200 92600
2026-02-10 21:00 3.39 27800 113000 (1962) 15900 (1961) 43900 18000 22300 26000 27200 37400 55000 59100 83200 92600
2026-02-10 20:00 3.38 27800 113000 (1962) 15900 (1961) 43900 18000 22300 26000 27200 37400 55000 59100 83200 92600
2026-02-10 19:00 3.36 27700 113000 (1962) 15900 (1961) 43900 18000 22300 26000 27200 37400 55000 59100 83200 92600
2026-02-10 18:00 3.35 27700 113000 (1962) 15900 (1961) 43900 18000 22300 26000 27200 37400 55000 59100 83200 92600
2026-02-10 17:00 3.34 27600 113000 (1962) 15900 (1961) 43900 18000 22300 26000 27200 37400 55000 59100 83200 92600
2026-02-10 16:00 3.33 27600 113000 (1962) 15900 (1961) 43900 18000 22300 26000 27200 37400 55000 59100 83200 92600
2026-02-10 15:00 3.31 27500 113000 (1962) 15900 (1961) 43900 18000 22300 26000 27200 37400 55000 59100 83200 92600
2026-02-10 14:00 3.27 27400 113000 (1962) 15900 (1961) 43900 18000 22300 26000 27200 37400 55000 59100 83200 92600
2026-02-10 13:00 3.29 27400 113000 (1962) 15900 (1961) 43900 18000 22300 26000 27200 37400 55000 59100 83200 92600
2026-02-10 12:00 3.24 27300 113000 (1962) 15900 (1961) 43900 18000 22300 26000 27200 37400 55000 59100 83200 92600
2026-02-10 11:00 3.27 27400 113000 (1962) 15900 (1961) 43900 18000 22300 26000 27200 37400 55000 59100 83200 92600
2026-02-10 10:00 3.23 27200 113000 (1962) 15900 (1961) 43900 18000 22300 26000 27200 37400 55000 59100 83200 92600
2026-02-10 09:00 3.24 27300 113000 (1962) 15900 (1961) 43900 18000 22300 26000 27200 37400 55000 59100 83200 92600
2026-02-10 08:00 3.23 27200 113000 (1962) 15900 (1961) 43900 18000 22300 26000 27200 37400 55000 59100 83200 92600
2026-02-10 07:00 3.22 27200 113000 (1962) 15900 (1961) 43900 18000 22300 26000 27200 37400 55000 59100 83200 92600
2026-02-10 06:00 3.20 27100 113000 (1962) 15900 (1961) 43900 18000 22300 26000 27200 37400 55000 59100 83200 92600
2026-02-10 05:00 3.19 27100 113000 (1962) 15900 (1961) 43900 18000 22300 26000 27200 37400 55000 59100 83200 92600
2026-02-10 04:00 3.18 27100 113000 (1962) 15900 (1961) 43900 18000 22300 26000 27200 37400 55000 59100 83200 92600
2026-02-10 03:00 3.18 27100 113000 (1962) 15900 (1961) 43900 18000 22300 26000 27200 37400 55000 59100 83200 92600
2026-02-10 02:00 3.16 27000 113000 (1962) 15900 (1961) 43900 18000 22300 26000 27200 37400 55000 59100 83200 92600
2026-02-10 01:00 3.17 27000 113000 (1962) 15900 (1961) 43900 18000 22300 26000 27200 37400 55000 59100 83200 92600
2026-02-10 00:00 3.17 27000 113000 (1962) 15900 (1961) 43900 18000 22300 26000 27200 37400 55000 59100 83200 92600
2026-02-09 23:00 3.16 27000 113000 (1962) 15900 (1961) 43900 18000 22300 26000 27200 37400 55000 59100 83200 92600
2026-02-09 22:00 3.15 26900 110000 (1973) 17000 (1961) 43200 18200 20000 25000 26800 36300 56300 58900 73600 100000
2026-02-09 21:00 3.14 26900 110000 (1973) 17000 (1961) 43200 18200 20000 25000 26800 36300 56300 58900 73600 100000
2026-02-09 20:00 3.13 26900 110000 (1973) 17000 (1961) 43200 18200 20000 25000 26800 36300 56300 58900 73600 100000
2026-02-09 19:00 3.13 26900 110000 (1973) 17000 (1961) 43200 18200 20000 25000 26800 36300 56300 58900 73600 100000
2026-02-09 18:00 3.13 26900 110000 (1973) 17000 (1961) 43200 18200 20000 25000 26800 36300 56300 58900 73600 100000
2026-02-09 17:00 3.12 26800 110000 (1973) 17000 (1961) 43200 18200 20000 25000 26800 36300 56300 58900 73600 100000
2026-02-09 16:00 3.12 26800 110000 (1973) 17000 (1961) 43200 18200 20000 25000 26800 36300 56300 58900 73600 100000
2026-02-09 15:00 3.06 26600 110000 (1973) 17000 (1961) 43200 18200 20000 25000 26800 36300 56300 58900 73600 100000
2026-02-09 14:00 3.03 26500 110000 (1973) 17000 (1961) 43200 18200 20000 25000 26800 36300 56300 58900 73600 100000
2026-02-09 13:00 3.10 26800 110000 (1973) 17000 (1961) 43200 18200 20000 25000 26800 36300 56300 58900 73600 100000
2026-02-09 12:00 3.07 26700 110000 (1973) 17000 (1961) 43200 18200 20000 25000 26800 36300 56300 58900 73600 100000
2026-02-09 11:00 3.10 26800 110000 (1973) 17000 (1961) 43200 18200 20000 25000 26800 36300 56300 58900 73600 100000
2026-02-09 10:00 3.09 26700 110000 (1973) 17000 (1961) 43200 18200 20000 25000 26800 36300 56300 58900 73600 100000
2026-02-09 09:00 3.08 26700 110000 (1973) 17000 (1961) 43200 18200 20000 25000 26800 36300 56300 58900 73600 100000
2026-02-09 08:00 3.07 26700 110000 (1973) 17000 (1961) 43200 18200 20000 25000 26800 36300 56300 58900 73600 100000
2026-02-09 07:00 3.07 26700 110000 (1973) 17000 (1961) 43200 18200 20000 25000 26800 36300 56300 58900 73600 100000
2026-02-09 06:00 3.06 26600 110000 (1973) 17000 (1961) 43200 18200 20000 25000 26800 36300 56300 58900 73600 100000
2026-02-09 05:00 3.06 26600 110000 (1973) 17000 (1961) 43200 18200 20000 25000 26800 36300 56300 58900 73600 100000
2026-02-09 04:00 3.05 26600 110000 (1973) 17000 (1961) 43200 18200 20000 25000 26800 36300 56300 58900 73600 100000
2026-02-09 03:00 3.05 26600 110000 (1973) 17000 (1961) 43200 18200 20000 25000 26800 36300 56300 58900 73600 100000
2026-02-09 02:00 3.05 26600 110000 (1973) 17000 (1961) 43200 18200 20000 25000 26800 36300 56300 58900 73600 100000
2026-02-09 01:00 3.05 26600 110000 (1973) 17000 (1961) 43200 18200 20000 25000 26800 36300 56300 58900 73600 100000
2026-02-09 00:00 3.04 26600 110000 (1973) 17000 (1961) 43200 18200 20000 25000 26800 36300 56300 58900 73600 100000
2026-02-08 23:00 3.03 26500 110000 (1973) 17000 (1961) 43200 18200 20000 25000 26800 36300 56300 58900 73600 100000
2026-02-08 22:00 3.03 26500 134000 (1973) 13400 (1966) 43400 17100 20000 24000 26000 35600 52300 63100 79200 102000
2026-02-08 21:00 3.03 26500 134000 (1973) 13400 (1966) 43400 17100 20000 24000 26000 35600 52300 63100 79200 102000
2026-02-08 20:00 3.02 26500 134000 (1973) 13400 (1966) 43400 17100 20000 24000 26000 35600 52300 63100 79200 102000
2026-02-08 19:00 3.02 26500 134000 (1973) 13400 (1966) 43400 17100 20000 24000 26000 35600 52300 63100 79200 102000
2026-02-08 18:00 3.01 26400 134000 (1973) 13400 (1966) 43400 17100 20000 24000 26000 35600 52300 63100 79200 102000
2026-02-08 17:00 3.00 26400 134000 (1973) 13400 (1966) 43400 17100 20000 24000 26000 35600 52300 63100 79200 102000
2026-02-08 16:00 3.00 26400 134000 (1973) 13400 (1966) 43400 17100 20000 24000 26000 35600 52300 63100 79200 102000
2026-02-08 15:00 3.00 26400 134000 (1973) 13400 (1966) 43400 17100 20000 24000 26000 35600 52300 63100 79200 102000
2026-02-08 14:00 3.00 26400 134000 (1973) 13400 (1966) 43400 17100 20000 24000 26000 35600 52300 63100 79200 102000
2026-02-08 13:00 3.00 26400 134000 (1973) 13400 (1966) 43400 17100 20000 24000 26000 35600 52300 63100 79200 102000
2026-02-08 12:00 2.99 26400 134000 (1973) 13400 (1966) 43400 17100 20000 24000 26000 35600 52300 63100 79200 102000
2026-02-08 11:00 2.98 26300 134000 (1973) 13400 (1966) 43400 17100 20000 24000 26000 35600 52300 63100 79200 102000
2026-02-08 10:00 2.98 26300 134000 (1973) 13400 (1966) 43400 17100 20000 24000 26000 35600 52300 63100 79200 102000
2026-02-08 09:00 2.97 26300 134000 (1973) 13400 (1966) 43400 17100 20000 24000 26000 35600 52300 63100 79200 102000
2026-02-08 08:00 2.96 26300 134000 (1973) 13400 (1966) 43400 17100 20000 24000 26000 35600 52300 63100 79200 102000
2026-02-08 07:00 2.94 26200 134000 (1973) 13400 (1966) 43400 17100 20000 24000 26000 35600 52300 63100 79200 102000
2026-02-08 06:00 2.96 26300 134000 (1973) 13400 (1966) 43400 17100 20000 24000 26000 35600 52300 63100 79200 102000
2026-02-08 05:00 2.95 26200 134000 (1973) 13400 (1966) 43400 17100 20000 24000 26000 35600 52300 63100 79200 102000
2026-02-08 04:00 2.96 26300 134000 (1973) 13400 (1966) 43400 17100 20000 24000 26000 35600 52300 63100 79200 102000
2026-02-08 03:00 2.88 26000 134000 (1973) 13400 (1966) 43400 17100 20000 24000 26000 35600 52300 63100 79200 102000
2026-02-08 02:00 2.92 26100 134000 (1973) 13400 (1966) 43400 17100 20000 24000 26000 35600 52300 63100 79200 102000
2026-02-08 01:00 2.91 26100 134000 (1973) 13400 (1966) 43400 17100 20000 24000 26000 35600 52300 63100 79200 102000
2026-02-08 00:00 2.89 26000 134000 (1973) 13400 (1966) 43400 17100 20000 24000 26000 35600 52300 63100 79200 102000
2026-02-07 23:00 2.94 26200 134000 (1973) 13400 (1966) 43400 17100 20000 24000 26000 35600 52300 63100 79200 102000

A total of 2190 rows are displayed for years 1958 through 2025.